GFSSW_sfc_thetae_000.txt.gz
Theta_e
325 323 321 320 319 319 319 319 319 320 322 325 327 330 330 329 327 320 311 315 318 327 325 313 311 312 310 307 310 305 296 293 294 295 297 301 299 303 303 300 303 304 303 307 310
326 324 322 320 319 319 319 319 319 320 322 324 326 328 329 328 320 315 321 328 328 329 316 309 305 308 303 304 305 304 297 297 300 299 299 302 301 301 301 300 301 303 306 310 315
325 325 323 321 319 318 319 319 319 320 321 323 324 325 326 326 312 311 327 331 331 330 318 314 311 307 300 302 303 302 299 302 303 304 304 303 301 303 300 300 303 303 305 307 314
324 325 324 322 320 318 318 319 319 320 320 321 322 323 324 319 298 309 324 325 330 325 317 313 306 299 298 298 304 296 303 305 306 308 306 303 305 302 301 302 305 305 305 305 310
324 324 324 322 321 319 318 318 318 319 318 320 322 322 317 308 307 314 322 319 320 319 314 311 303 300 296 297 299 298 301 304 306 307 307 308 306 305 305 307 309 308 306 306 306
323 324 324 323 321 320 319 318 318 318 319 319 320 319 307 295 308 309 309 310 313 316 312 311 306 306 299 299 297 300 300 301 303 304 305 304 304 304 307 307 305 305 305 306 305
322 323 323 323 322 320 319 318 319 318 319 318 319 313 304 300 308 307 309 305 307 310 309 312 310 305 304 298 302 300 295 298 299 301 301 304 300 301 307 307 304 303 303 305 306
318 321 321 322 322 321 320 319 319 319 319 318 318 309 298 310 309 308 307 304 306 308 306 311 312 306 302 302 299 297 294 288 295 299 301 302 293 300 304 305 305 306 303 303 305
315 317 320 321 321 321 321 319 318 317 317 318 306 301 294 310 306 307 306 302 302 303 304 308 303 298 297 292 288 291 283 287 291 298 299 299 293 301 304 304 302 301 301 302 303
313 313 316 320 321 320 320 318 317 315 313 311 308 297 300 299 304 306 306 305 301 301 300 299 297 292 293 289 279 283 285 289 290 295 295 295 295 300 301 302 301 301 301 301 302
312 314 314 318 320 320 316 308 300 300 305 296 297 297 300 304 306 304 305 302 300 296 290 294 289 287 289 291 290 288 287 287 291 296 294 291 292 295 297 299 299 302 301 303 302
310 311 314 315 320 319 311 301 298 299 293 301 301 301 303 304 298 301 305 297 294 288 290 290 285 290 292 292 292 291 288 287 290 294 294 291 290 293 295 298 299 300 302 302 303
310 310 313 314 319 313 306 301 305 303 290 294 299 298 299 302 297 297 301 296 291 288 290 285 287 292 291 289 287 286 285 285 285 290 291 288 286 289 294 297 298 300 301 304 305
309 309 312 313 312 309 303 307 306 302 278 285 293 297 299 300 294 303 302 297 291 289 289 288 292 290 287 287 288 283 289 289 288 284 278 287 277 285 288 292 295 297 299 302 303
308 309 311 312 308 304 306 306 305 295 268 289 293 304 301 295 297 296 302 299 289 288 288 284 286 287 286 287 289 286 290 288 288 285 282 283 280 281 287 288 293 296 297 300 303
308 309 311 307 309 308 309 309 302 277 268 287 293 294 294 295 297 298 298 302 299 292 291 287 291 290 288 290 290 291 287 286 286 285 277 281 281 280 283 286 291 295 297 299 299
308 309 309 308 303 310 310 301 283 273 288 286 289 293 293 291 293 294 292 291 288 284 284 289 288 292 292 286 289 288 284 276 276 276 274 282 280 283 287 290 292 294 296 297 297
308 309 308 307 311 310 304 290 275 283 284 291 290 291 288 291 291 293 291 288 292 289 285 278 275 287 290 288 285 285 284 276 270 274 273 282 277 282 291 294 295 296 298 296 296
309 305 304 304 311 308 295 283 280 284 290 288 289 286 286 289 289 290 289 288 290 291 283 281 278 288 290 291 291 286 281 286 280 280 277 277 282 288 293 293 295 294 295 295 296
303 299 300 306 311 303 290 284 284 291 292 290 284 287 284 286 285 287 286 287 290 292 292 286 280 286 289 291 291 288 290 281 281 273 270 275 278 280 287 289 292 293 294 294 296
300 293 302 308 307 296 285 284 287 295 294 290 287 286 288 286 287 286 283 286 290 289 291 288 285 281 288 285 284 285 284 284 284 281 271 271 276 287 288 291 291 293 296 296 297
297 288 306 308 291 292 285 287 293 293 295 296 293 292 288 287 285 282 282 286 292 291 287 291 288 280 282 288 291 288 285 284 278 273 278 274 278 291 292 292 293 295 294 295 297
294 297 306 304 286 288 289 290 292 293 293 294 292 293 294 289 284 285 286 291 293 291 288 290 286 279 280 285 289 287 287 286 285 284 276 273 278 289 293 295 294 294 295 297 298
295 289 296 298 297 291 288 288 288 295 294 296 294 294 291 290 289 285 286 291 293 293 297 295 288 283 278 282 286 284 285 286 285 279 279 280 282 287 291 293 295 295 295 297 298
298 290 292 285 291 291 292 290 288 289 294 296 294 293 292 289 289 287 288 290 293 296 295 292 284 286 287 287 287 287 287 286 283 284 280 282 284 288 291 293 296 297 296 297 297
295 293 294 291 293 289 289 289 289 291 294 292 291 293 293 291 290 285 289 289 289 292 292 293 284 286 284 288 287 286 288 289 288 286 285 285 285 292 295 297 297 295 295 296 298
297 300 296 293 293 288 288 289 290 295 295 295 296 294 293 294 297 297 296 294 294 293 291 289 285 285 281 288 287 282 286 287 289 290 288 284 288 293 293 295 292 293 296 297 298

GFSSW_sfc_thetae_003.txt.gz
Theta_e
325 326 326 323 321 319 319 318 320 320 321 322 324 327 331 330 327 320 311 316 319 327 325 316 313 314 314 311 314 309 301 297 298 297 300 305 304 308 307 305 308 310 309 312 317
325 325 326 324 322 320 319 318 320 320 320 322 324 327 329 328 319 314 321 327 328 328 317 311 308 310 307 308 309 308 301 300 303 303 302 305 305 306 306 305 307 309 312 313 319
324 324 325 325 322 320 319 319 320 320 321 321 323 324 326 326 312 312 326 331 330 329 319 315 312 308 304 307 306 306 300 305 305 306 306 305 305 307 305 303 307 308 309 311 316
324 323 324 325 324 321 319 318 319 319 320 320 321 323 325 319 299 310 325 325 331 324 318 313 308 302 301 301 306 301 305 307 308 310 308 306 308 307 305 307 311 309 310 310 311
320 322 323 323 324 322 319 318 319 318 319 318 320 321 317 309 308 315 319 318 321 319 315 311 305 302 298 300 301 301 303 306 307 307 308 309 307 308 308 310 313 314 312 311 311
317 319 320 322 323 323 321 319 319 318 319 318 319 317 308 299 309 308 310 311 316 318 313 312 308 307 302 301 299 301 301 302 303 304 305 305 306 307 309 312 311 310 310 310 310
314 316 317 321 321 323 320 319 318 319 319 318 319 312 303 300 308 308 308 306 308 312 311 313 311 307 306 301 304 302 298 299 300 302 302 305 300 301 309 310 309 309 310 311 311
311 313 315 316 320 322 321 320 319 320 319 318 318 308 297 310 310 308 307 305 306 309 308 312 313 308 304 304 299 297 297 291 297 300 301 303 293 302 306 306 307 308 307 308 311
309 310 313 315 316 320 321 321 320 318 318 319 308 301 294 310 306 308 306 302 303 305 306 308 305 299 301 294 290 292 286 289 292 300 299 299 295 301 305 304 304 305 306 306 307
308 309 311 313 315 318 320 320 319 315 312 310 309 299 300 298 305 305 307 305 301 302 301 300 297 293 293 290 281 284 286 288 289 295 296 294 294 298 302 302 303 303 305 305 306
308 309 310 312 315 317 317 310 302 299 303 296 297 297 300 305 306 303 305 302 301 298 291 295 290 286 289 291 290 290 288 288 291 295 293 293 293 296 299 299 299 300 302 304 306
308 309 310 311 315 316 313 302 299 300 293 301 301 301 304 305 298 301 305 297 295 290 292 291 286 291 292 292 291 290 287 287 291 294 293 291 290 294 296 297 299 299 301 303 305
308 309 309 310 313 311 307 304 305 303 291 294 299 299 300 302 297 297 301 297 292 289 290 286 288 293 291 290 289 288 287 287 287 290 292 289 286 289 293 295 298 300 301 302 303
307 307 308 309 305 309 304 308 307 301 279 286 292 297 300 301 294 303 303 298 292 289 291 289 292 290 288 288 289 284 290 289 288 286 280 288 278 286 291 292 293 296 298 300 302
306 307 308 309 303 305 307 308 304 297 268 288 292 304 301 295 296 297 303 298 289 289 289 285 287 287 287 288 290 286 290 288 288 286 284 284 281 284 288 288 291 294 297 299 302
305 307 308 306 306 306 310 308 301 282 269 286 293 294 293 294 297 298 298 302 298 291 291 288 292 290 289 290 291 291 288 287 286 285 277 281 282 282 285 288 290 294 296 298 301
305 305 305 306 299 310 310 301 283 275 287 286 289 294 292 290 293 294 292 291 288 283 283 288 289 291 292 287 289 289 285 278 276 276 275 283 281 283 288 291 292 293 296 298 301
306 307 306 306 309 310 304 290 278 282 283 292 291 292 289 291 292 292 290 288 292 289 284 277 276 288 291 288 285 285 285 278 271 272 276 281 278 283 290 294 294 295 296 297 299
308 302 303 304 308 307 295 283 281 284 290 289 290 287 287 290 290 290 290 289 291 291 284 280 280 288 289 291 290 286 282 287 280 280 277 279 282 287 289 291 293 294 294 295 296
302 300 300 306 308 303 290 285 285 292 292 291 285 287 284 286 286 288 288 289 290 293 294 288 280 286 289 291 291 288 290 280 281 273 272 276 278 280 285 287 290 294 295 298 297
300 293 301 307 307 295 285 287 288 294 294 290 287 286 286 286 286 286 284 287 290 290 293 290 285 283 289 285 284 286 284 285 284 281 275 273 278 286 287 289 292 293 297 299 297
296 288 303 306 289 288 287 288 294 292 295 295 292 290 287 288 286 286 283 286 291 291 288 290 287 281 282 289 291 289 286 285 279 276 280 277 279 291 291 293 293 295 297 299 299
293 297 304 301 286 287 290 291 293 293 293 293 291 293 292 288 284 286 286 291 292 291 288 290 286 278 278 285 289 286 287 287 286 284 278 275 279 289 290 293 296 296 297 298 298
295 289 296 298 296 288 287 288 288 295 294 295 293 293 291 289 290 286 286 291 292 292 296 294 288 280 279 282 286 284 286 287 285 280 279 280 282 287 289 291 293 295 298 298 297
298 290 292 287 290 290 291 290 288 288 293 295 292 293 291 289 289 288 288 289 292 294 294 292 283 285 287 287 286 286 286 286 284 284 280 282 283 287 289 291 294 297 298 297 296
292 293 291 290 293 290 289 286 287 289 293 292 290 293 294 291 290 286 288 288 288 291 292 294 285 286 284 288 287 284 287 287 287 286 285 285 284 291 292 294 297 298 296 296 296
297 299 296 293 291 288 286 288 290 293 294 296 295 294 292 294 297 297 297 295 294 292 290 289 286 284 281 287 287 281 286 287 288 289 287 282 287 292 291 292 294 296 295 297 298

GFSSW_sfc_thetae_006.txt.gz
Theta_e
324 325 326 326 325 322 320 320 318 320 320 321 323 325 329 330 328 322 315 319 321 327 327 320 317 317 318 314 317 317 304 299 301 302 304 309 307 312 312 310 313 314 314 317 321
322 324 324 325 325 323 321 320 319 320 320 321 323 325 328 328 321 316 322 327 328 328 320 315 312 313 311 311 312 310 303 302 307 308 306 308 309 310 309 310 311 313 317 317 321
320 321 323 324 325 324 322 320 320 320 320 321 322 323 326 326 314 314 325 330 331 330 323 318 315 311 307 310 309 308 303 307 308 310 310 309 309 312 309 307 311 312 315 317 317
315 319 321 322 323 324 322 320 319 320 320 319 320 322 325 320 300 316 325 327 332 328 321 317 312 306 304 304 309 303 307 308 308 311 311 310 313 310 311 310 314 316 316 318 319
312 314 317 319 321 323 323 321 319 320 319 318 320 320 320 311 309 317 318 321 326 324 317 314 309 306 302 304 306 305 305 308 310 310 310 311 309 309 310 315 318 319 319 319 320
310 312 314 317 318 321 323 322 319 320 319 318 319 317 311 304 313 313 314 319 322 321 316 314 311 310 305 303 303 304 305 306 307 307 308 306 307 309 310 314 314 315 315 318 319
309 311 311 313 316 317 321 321 320 319 319 319 318 314 306 303 312 313 312 312 315 320 313 315 314 309 308 303 307 305 300 303 304 305 304 307 302 303 309 311 310 312 314 315 316
308 310 310 311 314 316 320 322 320 320 320 319 318 311 301 311 315 311 311 310 313 315 317 319 318 310 305 307 303 299 300 295 301 302 304 303 295 303 310 310 309 311 312 312 314
308 308 309 309 312 314 316 321 320 320 319 319 310 305 300 312 307 311 311 308 309 310 313 315 309 303 304 298 295 296 291 293 296 302 302 301 298 304 308 308 308 309 311 312 314
308 308 308 310 311 313 315 320 319 317 315 312 309 301 304 300 307 308 310 309 306 306 304 304 303 298 298 295 288 290 290 292 292 297 299 297 297 302 306 305 305 307 310 311 312
307 307 308 309 310 312 313 314 303 302 306 300 301 299 302 307 309 306 308 306 305 303 296 299 294 291 294 296 295 292 291 291 294 298 295 294 296 299 302 303 303 305 306 308 310
307 308 308 309 310 311 311 302 303 306 297 304 303 303 305 307 299 303 308 300 298 294 297 294 289 296 296 295 293 292 290 290 294 296 295 294 293 297 299 300 302 303 304 306 308
306 307 308 308 309 308 305 306 309 306 296 299 302 301 302 305 299 300 304 300 296 293 294 292 292 295 294 292 291 291 290 290 290 293 295 293 291 295 298 299 300 301 303 304 305
306 306 307 307 304 305 302 310 309 304 287 290 296 300 302 304 297 306 305 300 296 292 294 293 296 292 291 290 292 288 293 291 290 288 284 291 283 292 295 296 298 300 302 303 305
306 306 306 306 300 300 307 310 305 300 280 292 294 306 303 297 298 299 306 300 293 292 293 290 291 290 288 290 293 289 293 291 290 288 287 288 282 289 293 292 295 299 301 303 305
305 306 306 303 303 305 309 307 302 284 279 288 295 294 294 296 297 299 299 302 299 293 294 293 295 293 293 294 294 294 291 290 289 287 280 286 284 286 290 293 295 298 301 302 304
306 306 304 303 296 307 309 300 283 281 290 287 289 293 292 291 293 295 293 291 290 284 285 289 291 294 294 290 293 292 287 281 278 278 279 287 284 287 292 295 296 298 299 302 304
306 308 307 303 307 307 303 289 281 286 287 293 292 292 289 291 293 292 291 288 293 290 287 284 283 290 294 291 288 288 288 282 275 277 280 286 281 286 295 297 298 299 300 301 303
307 306 304 307 308 306 292 283 286 288 292 289 291 288 288 290 292 290 290 289 292 293 286 284 282 291 293 294 293 287 283 290 283 284 279 283 287 292 295 294 296 297 298 302 304
299 302 302 309 308 301 289 286 288 294 294 293 286 289 285 287 289 289 289 293 292 295 296 289 283 290 291 294 293 290 292 283 284 275 275 281 282 284 289 291 294 295 298 301 303
299 293 302 309 303 292 286 287 291 296 296 292 289 288 289 288 289 288 289 291 294 294 296 292 287 286 289 287 287 287 284 286 286 284 277 276 281 292 291 293 295 297 299 301 303
296 287 305 306 289 289 288 289 296 294 299 296 295 293 290 291 289 289 289 290 295 296 290 293 289 283 286 292 293 292 288 287 280 279 283 281 282 294 294 294 296 297 299 301 304
292 293 304 302 287 288 291 291 296 295 296 295 293 294 294 291 287 290 290 294 295 295 292 294 287 281 285 288 291 287 289 289 287 286 281 279 282 292 294 294 296 296 298 301 304
292 287 295 295 298 292 291 291 292 298 297 297 295 296 293 290 292 289 290 294 296 295 296 296 290 285 282 286 289 286 287 288 286 282 283 284 285 290 292 293 295 296 299 303 304
295 291 294 287 292 294 294 293 291 291 297 298 294 293 292 289 290 289 291 292 294 296 296 294 285 287 288 288 288 288 287 288 285 286 283 286 286 290 293 294 296 297 299 303 301
290 293 297 294 294 294 293 291 291 293 294 292 293 295 294 291 291 290 292 292 292 295 293 295 286 287 284 289 289 286 288 289 288 288 288 288 287 295 296 296 296 299 299 299 300
298 298 298 292 292 292 291 291 292 295 296 297 296 294 293 295 297 298 297 297 295 294 292 290 287 285 282 289 289 284 288 289 289 290 289 284 291 295 293 294 295 297 298 299 300

GFSSW_sfc_thetae_009.txt.gz
Theta_e
318 322 323 325 325 325 324 322 321 319 320 321 321 323 325 328 329 323 314 321 324 329 326 321 318 318 318 315 316 318 306 300 302 302 304 310 308 313 314 311 313 315 315 319 324
315 318 320 322 324 324 324 323 322 320 321 321 321 323 325 327 321 316 323 325 326 328 321 316 312 314 311 311 313 310 303 302 307 308 306 309 309 311 310 310 310 313 317 319 322
312 314 316 319 321 322 324 323 322 321 321 321 321 322 324 326 312 314 330 329 330 328 322 318 316 312 307 310 310 308 302 306 308 310 311 309 309 311 309 307 311 311 314 318 319
311 311 313 316 318 320 322 324 322 320 321 320 320 321 323 321 301 319 325 328 332 328 321 317 313 308 306 304 309 303 307 307 309 310 310 308 311 309 310 310 314 315 317 318 318
310 310 311 313 315 317 319 322 323 320 320 320 319 321 320 311 310 321 321 324 327 324 317 314 310 309 304 306 307 305 306 307 309 310 310 311 309 309 310 315 317 317 317 317 318
310 309 310 311 312 314 317 320 323 320 320 320 318 320 314 304 318 317 318 320 321 322 316 316 311 311 307 306 304 306 306 307 309 309 309 307 307 308 310 314 313 314 315 317 318
310 310 309 309 310 312 314 318 321 320 320 320 319 315 308 307 315 316 318 317 322 322 314 316 314 311 309 304 308 306 302 304 305 306 305 307 302 303 309 311 310 312 313 315 316
309 309 309 309 309 310 312 316 317 321 320 320 318 312 303 313 316 312 316 317 321 322 318 319 316 310 307 308 304 300 302 297 304 304 305 304 296 305 310 310 310 310 311 312 314
309 308 309 309 308 309 311 313 316 320 320 319 311 308 301 313 308 312 314 312 313 316 318 317 314 306 304 299 296 298 294 296 299 304 303 302 299 305 309 308 307 309 311 312 314
308 308 308 308 308 309 311 312 314 318 316 314 310 302 306 303 309 311 313 313 309 309 307 305 303 299 299 297 290 293 293 295 294 298 300 299 298 303 305 305 306 308 309 310 312
307 307 307 308 309 310 310 307 306 303 307 302 302 301 304 309 311 308 310 309 308 304 296 300 294 293 297 299 298 295 293 292 296 299 296 295 296 299 302 303 303 305 306 308 309
307 307 307 307 308 309 308 299 303 304 297 305 304 304 307 309 301 305 309 302 301 296 299 294 291 298 300 298 296 295 292 292 295 298 296 295 294 298 300 301 302 303 304 305 307
307 307 307 307 307 307 303 301 309 306 298 299 303 303 303 306 301 301 305 302 298 295 295 293 295 297 296 295 292 293 292 292 292 295 296 294 292 296 300 302 303 303 304 304 305
306 306 306 306 303 301 300 308 308 306 287 292 296 301 304 305 298 307 307 302 298 294 295 295 298 294 293 292 294 289 296 294 292 290 286 293 285 292 296 298 300 302 303 303 304
305 306 306 305 301 298 304 309 307 302 280 293 296 307 304 299 300 300 307 301 294 294 295 292 292 292 291 292 295 291 294 292 291 289 287 289 285 290 295 293 296 300 302 304 305
305 306 306 304 303 303 307 307 302 284 279 289 294 294 294 297 298 300 300 303 301 295 295 294 297 295 294 295 295 295 292 290 290 286 280 286 286 287 291 293 295 299 301 302 304
306 307 305 304 297 305 306 299 283 279 291 287 289 294 292 291 293 295 293 292 290 285 285 291 291 295 296 291 294 292 287 283 280 279 280 289 286 288 294 296 296 297 300 302 303
308 307 307 307 304 304 300 290 281 288 289 293 292 292 289 291 292 293 291 288 294 292 289 284 285 291 294 292 290 288 288 283 277 279 282 289 283 288 296 298 298 300 300 301 302
307 305 304 305 305 304 291 283 283 290 293 291 290 287 288 290 292 292 291 290 293 294 288 287 285 293 294 295 294 289 285 291 284 285 280 284 288 293 295 295 297 298 299 299 301
301 301 301 307 308 300 289 287 288 295 295 293 287 290 285 287 289 289 289 294 292 296 297 291 284 291 293 295 295 292 293 283 284 276 276 282 284 285 290 293 295 296 297 299 302
300 293 303 309 306 293 286 287 292 297 297 293 291 289 289 288 290 289 290 294 296 296 296 293 289 287 291 288 288 288 286 287 287 285 279 277 282 292 292 294 295 297 299 300 302
297 288 304 308 289 291 290 290 296 295 298 296 296 294 292 292 291 291 291 292 297 297 291 294 289 284 287 293 295 292 288 287 282 281 283 282 282 294 294 295 296 296 298 300 300
294 293 304 303 287 289 290 292 296 295 296 296 294 295 296 293 289 292 293 296 297 296 293 294 288 282 285 290 293 289 291 290 289 287 282 280 283 294 295 295 296 296 297 299 301
291 288 294 296 298 294 290 291 292 299 297 298 296 297 294 292 294 291 291 295 297 297 298 298 290 286 283 287 290 286 289 290 288 283 284 284 286 291 294 294 296 297 299 299 300
293 292 296 289 292 294 295 294 292 292 298 298 294 294 293 290 291 290 293 294 296 298 296 294 286 288 289 290 290 289 288 289 285 287 283 287 287 291 294 295 297 299 298 300 301
291 292 296 295 296 295 294 293 293 294 295 293 293 295 295 292 293 290 293 293 292 295 294 295 287 288 285 290 290 288 291 291 290 289 288 288 287 295 297 297 297 298 298 300 299
299 300 296 293 294 293 294 293 294 296 297 298 297 296 294 296 299 299 299 298 297 294 292 291 288 285 283 290 289 286 290 290 290 291 290 286 291 296 295 295 296 296 297 298 299

GFSSW_sfc_thetae_012.txt.gz
Theta_e
313 314 317 319 321 322 324 325 324 323 321 320 321 321 323 325 328 323 316 319 323 331 327 323 318 316 316 312 314 314 301 297 299 300 302 307 305 308 309 306 308 308 308 316 326
312 313 313 316 318 320 322 324 325 323 321 321 321 322 323 326 322 316 324 328 328 330 318 315 311 313 308 309 310 306 300 301 306 305 303 307 305 306 305 306 304 306 311 317 319
311 311 312 313 315 317 319 321 324 323 322 321 321 322 323 324 314 311 332 329 329 327 321 318 315 310 306 308 307 305 299 304 305 306 308 307 307 308 305 303 306 305 307 312 314
311 311 311 311 313 314 316 319 322 324 322 321 321 321 322 319 299 319 330 331 330 326 320 315 311 306 303 301 306 301 305 306 306 308 307 305 309 306 306 305 310 310 311 310 312
311 311 311 310 310 311 313 316 320 322 321 321 320 319 317 310 309 323 325 326 326 324 317 311 308 306 301 303 304 302 303 306 307 307 306 308 306 306 307 310 312 313 312 312 311
311 311 310 310 310 310 311 313 317 321 321 321 319 319 311 303 320 318 319 319 320 321 317 314 311 311 306 304 303 305 305 305 306 306 307 305 305 306 306 309 309 311 311 311 312
312 311 310 310 310 310 310 312 314 318 321 320 320 315 307 306 317 318 317 316 319 320 315 316 315 310 308 304 307 305 300 303 303 304 303 305 300 301 307 309 307 307 309 311 312
311 311 310 309 309 309 309 310 313 315 318 320 320 311 302 314 315 312 317 315 319 322 319 319 317 310 306 307 304 299 299 293 301 303 303 302 293 302 306 306 305 306 307 308 310
310 310 309 309 309 309 309 310 312 314 318 319 311 307 299 312 308 311 314 313 315 317 318 318 314 307 305 297 293 296 289 292 296 302 301 299 294 302 305 304 303 304 304 307 308
309 309 308 308 308 309 309 310 312 312 317 315 311 302 304 303 308 310 313 314 309 311 308 308 304 297 297 293 285 289 290 293 292 297 297 295 295 299 302 302 300 301 303 304 306
308 308 308 308 308 308 307 306 301 303 307 301 301 301 303 309 311 307 310 309 308 305 296 300 293 290 294 296 296 295 292 290 293 297 294 292 293 295 298 298 298 299 301 303 305
308 307 307 308 308 308 306 298 301 304 296 305 304 304 307 308 301 304 310 302 300 295 298 294 289 296 299 298 295 294 291 289 293 296 293 292 291 295 297 298 299 299 299 300 302
307 307 307 307 307 305 301 300 308 304 297 299 303 303 303 306 300 301 305 303 297 294 295 291 294 298 296 294 292 291 289 289 289 293 293 291 288 291 296 298 299 300 301 302 301
307 306 306 306 302 302 298 306 307 305 287 292 296 301 303 305 298 306 306 302 298 294 295 293 297 294 293 292 293 287 293 293 292 287 281 290 279 287 292 293 296 297 297 298 299
306 306 306 305 300 297 302 307 305 300 278 293 296 307 304 299 300 300 307 302 294 295 295 291 292 292 290 291 294 290 294 291 290 286 283 284 280 284 290 289 292 292 295 297 299
307 307 307 304 303 302 306 306 299 282 278 288 295 295 295 298 298 300 300 303 301 295 296 294 297 295 293 295 295 295 291 289 287 284 274 282 282 282 286 289 291 291 294 296 297
307 308 307 306 296 305 304 297 282 278 290 287 290 294 293 292 294 295 293 292 288 285 285 290 291 294 296 290 293 292 287 276 274 275 274 286 282 284 290 293 293 291 292 295 296
309 309 306 306 305 304 299 288 278 286 288 292 293 293 289 292 292 293 291 288 293 290 287 281 282 290 294 291 288 289 287 277 273 273 277 285 278 284 290 293 294 294 294 295 296
309 305 302 305 307 303 290 281 282 289 292 290 291 287 287 291 291 290 289 288 291 292 285 284 285 294 294 294 293 288 282 288 282 281 275 279 283 289 292 293 294 292 294 294 295
302 302 299 305 305 299 288 286 287 293 294 293 286 289 284 287 288 289 289 292 291 294 295 291 281 290 292 294 293 289 291 282 281 268 272 277 280 282 286 288 292 292 291 294 295
301 294 301 307 306 294 285 286 291 296 296 293 290 288 288 287 289 288 288 293 294 294 295 292 286 286 289 287 286 287 285 286 284 281 273 274 278 288 288 289 289 292 294 293 295
297 289 304 307 290 290 288 289 296 295 299 296 296 293 289 289 289 289 289 292 297 296 290 293 289 279 284 291 293 291 287 286 280 275 280 279 280 293 292 291 292 292 294 293 296
294 294 305 304 286 288 291 292 295 295 296 295 294 296 294 291 288 291 292 295 296 295 291 293 286 277 280 288 290 288 289 289 287 286 280 277 280 293 294 294 295 294 294 294 297
295 287 294 297 296 291 289 291 292 299 297 298 295 296 294 291 293 290 291 295 295 296 299 297 290 281 277 281 287 283 287 290 288 282 282 283 284 290 292 293 295 295 297 297 296
295 292 295 290 293 293 293 293 292 291 298 298 294 294 293 289 290 290 292 293 295 297 295 292 283 284 287 289 288 287 287 288 286 287 283 285 286 290 293 294 295 295 296 297 298
293 292 295 295 296 293 294 292 292 294 295 293 293 294 294 291 292 289 292 292 291 294 292 293 285 286 281 288 287 285 288 289 290 290 290 290 289 295 296 297 295 294 295 296 297
299 300 295 293 294 292 293 293 294 297 297 298 297 295 294 295 298 298 297 297 296 293 291 290 288 284 278 287 286 284 288 290 292 292 291 287 291 296 295 295 295 293 295 296 298

GFSSW_sfc_thetae_015.txt.gz
Theta_e
313 313 313 314 315 318 321 322 323 325 324 322 321 322 322 323 324 321 312 318 322 332 328 321 318 315 313 307 310 308 296 293 297 298 299 305 302 305 306 304 305 305 304 319 328
313 313 312 312 312 314 317 319 321 323 325 323 321 322 322 324 318 316 323 330 331 330 321 312 310 310 304 305 306 301 296 297 303 302 301 304 304 304 302 303 301 302 309 317 325
312 312 312 312 312 312 313 316 318 321 324 323 322 321 322 321 311 312 331 331 331 329 320 315 313 308 303 303 303 301 296 303 305 305 304 305 304 307 302 299 303 303 304 311 315
312 312 312 312 312 311 311 311 315 319 322 323 322 321 321 317 296 318 330 332 331 324 318 314 309 303 300 299 303 297 303 304 305 306 304 302 306 304 304 303 308 307 307 309 308
313 313 313 312 311 311 311 311 312 316 321 323 322 320 315 308 307 324 329 330 325 323 315 312 306 303 299 300 301 298 301 304 305 305 303 306 303 303 303 307 309 310 310 308 309
313 312 312 311 311 310 310 311 310 314 317 321 321 320 310 300 318 321 320 321 321 320 315 314 307 307 303 302 300 302 302 302 304 303 304 303 302 302 303 307 306 307 307 307 308
311 311 311 311 311 310 309 310 310 311 315 318 321 314 305 304 317 316 317 316 319 319 314 317 314 310 305 301 305 303 298 300 301 302 301 304 298 299 305 306 305 304 304 306 308
310 310 310 310 310 309 309 310 310 310 313 317 320 311 300 314 313 316 317 315 316 319 318 318 316 310 306 304 302 298 297 291 299 301 302 301 292 301 304 302 303 305 306 305 307
309 309 309 309 309 308 309 309 310 311 313 316 313 306 298 313 308 309 314 312 317 318 319 318 314 305 305 298 292 292 286 290 294 301 300 298 293 301 303 302 299 302 303 305 306
308 308 308 308 308 308 308 309 309 310 310 314 311 300 304 302 308 309 310 315 311 313 311 309 306 297 297 294 285 286 287 290 290 295 297 294 293 297 300 298 296 297 299 300 302
308 308 308 308 308 308 305 301 296 299 303 300 298 300 302 308 310 307 309 310 309 306 296 301 294 290 290 293 293 291 289 288 291 295 292 290 291 293 296 295 296 297 296 298 300
308 308 308 308 307 308 304 294 298 301 294 305 303 304 307 308 300 304 309 301 301 295 296 292 287 293 297 296 294 291 289 287 290 294 292 290 290 293 295 296 297 297 297 296 298
307 307 307 307 307 303 298 298 306 304 293 299 304 302 303 306 300 300 305 301 296 294 293 288 292 297 295 293 291 288 287 287 287 291 290 288 286 289 293 295 297 298 299 298 297
306 306 307 306 300 299 297 305 306 303 284 291 296 301 304 304 298 305 306 302 298 293 294 294 296 294 292 291 291 285 291 291 289 285 279 287 277 284 290 291 294 295 295 297 299
307 307 308 307 300 295 301 305 303 297 276 292 295 307 304 299 299 299 306 302 295 294 294 290 292 292 289 290 292 288 292 289 289 283 280 281 278 281 287 287 290 290 292 292 295
308 308 308 305 303 300 303 304 299 281 275 288 295 295 295 297 298 299 300 303 301 296 295 292 295 293 292 294 293 293 289 287 285 282 272 280 280 278 283 287 288 290 289 292 293
308 308 308 306 296 303 303 296 280 275 289 287 291 294 293 292 293 295 294 291 287 283 284 290 289 292 294 289 291 290 283 271 274 276 273 283 280 282 288 291 291 292 291 293 293
308 309 305 305 304 302 297 287 276 285 286 293 294 293 289 292 292 293 291 287 291 288 281 278 277 288 292 289 286 286 284 275 272 271 275 283 278 282 290 293 292 293 292 292 292
309 301 301 305 304 299 291 278 280 286 292 290 291 288 288 291 290 291 290 288 289 289 281 278 281 292 292 293 291 285 280 286 277 277 270 277 281 287 290 290 290 291 291 292 291
301 298 298 305 303 296 288 285 285 289 294 293 285 288 284 288 286 288 288 291 290 292 291 289 280 289 292 293 292 288 289 277 275 268 270 275 277 280 285 286 290 291 290 291 294
297 292 299 303 302 292 285 285 290 295 296 292 287 287 287 287 288 287 287 291 292 292 292 292 285 285 291 286 284 285 281 283 281 278 271 272 276 285 286 287 288 289 291 293 293
295 288 300 304 290 290 287 289 295 293 297 296 294 290 287 289 286 285 285 289 295 295 288 292 288 279 282 289 291 288 285 284 276 273 277 274 279 291 291 289 291 293 293 292 293
292 293 302 301 286 287 291 293 295 296 296 295 294 294 293 288 286 289 290 293 296 294 289 292 284 275 281 285 290 286 287 287 285 283 278 276 279 290 290 293 296 295 294 296 297
290 283 290 294 295 291 289 291 290 297 296 297 294 293 290 290 291 289 288 293 294 295 299 296 287 278 276 278 286 281 286 287 286 281 280 281 283 288 291 294 296 297 298 297 297
293 289 290 281 288 289 294 293 291 291 297 296 293 293 291 287 288 288 290 290 293 297 295 293 279 281 285 287 286 285 285 286 284 286 282 285 286 290 294 296 296 296 295 296 296
291 291 293 290 292 290 291 290 292 293 294 291 291 293 294 289 290 287 291 290 288 291 290 291 282 286 281 286 286 284 286 287 287 287 288 288 288 296 298 299 297 292 294 295 295
297 299 295 290 289 289 289 293 293 295 295 296 294 294 293 294 296 295 297 295 293 291 291 290 285 279 273 285 284 281 286 287 289 292 292 287 292 297 295 295 293 293 294 294 295

GFSSW_sfc_thetae_018.txt.gz
Theta_e
314 313 312 313 312 312 314 316 319 320 323 325 323 321 322 321 322 318 310 316 320 331 328 319 317 314 312 306 308 306 295 292 295 296 297 302 301 305 305 301 302 303 306 318 327
313 313 312 311 312 312 311 312 315 317 320 323 324 322 322 323 316 312 321 328 330 331 320 316 309 311 303 304 304 299 294 296 301 301 299 302 302 303 302 301 300 301 314 323 326
314 313 313 313 313 312 311 311 311 313 317 320 324 322 322 321 309 308 328 330 332 330 320 318 312 308 302 302 302 300 295 302 304 305 304 303 302 305 301 299 301 300 309 315 315
315 314 314 313 312 311 311 311 311 311 315 318 320 322 321 315 295 315 329 333 332 325 318 313 309 303 300 299 303 296 301 303 304 306 303 301 304 302 303 303 306 306 306 306 310
314 314 313 312 312 312 310 309 310 311 312 315 318 322 315 305 306 321 330 331 325 319 313 310 305 302 297 299 300 296 299 303 304 304 303 303 302 302 303 306 308 307 308 307 307
312 311 311 311 311 311 310 310 310 310 310 312 316 320 309 297 316 322 322 322 321 318 313 311 307 306 301 300 298 300 301 301 302 302 303 301 301 302 302 306 305 306 305 304 307
311 311 310 311 310 310 309 309 310 310 310 312 315 315 305 301 315 318 321 318 321 318 312 315 313 307 304 300 304 302 297 299 300 301 300 302 298 298 304 305 304 304 304 306 305
310 310 309 309 309 309 309 309 309 309 310 312 315 313 299 313 312 314 316 314 316 319 317 318 314 307 303 303 300 297 296 290 297 300 301 300 292 299 303 301 302 303 303 304 307
309 309 308 308 309 308 309 309 309 310 311 311 310 307 297 315 308 313 315 312 316 318 318 318 314 305 301 295 290 291 285 288 293 300 299 297 292 300 304 300 299 299 299 301 304
309 308 308 308 308 308 308 309 309 309 307 309 311 299 301 301 308 308 310 315 311 312 310 309 306 299 296 294 284 285 285 288 289 294 295 293 294 297 299 298 297 297 297 298 300
308 308 308 308 308 308 305 299 294 294 300 298 300 299 300 308 310 306 308 311 311 306 298 302 296 292 293 292 292 293 289 287 290 294 291 290 289 292 295 293 293 296 296 296 298
307 307 307 307 307 307 302 293 296 297 290 301 303 303 306 307 301 304 310 303 303 295 297 294 291 296 296 296 293 293 288 286 290 292 290 289 288 292 294 295 296 297 297 298 297
306 307 307 308 308 302 298 297 304 302 291 295 302 301 303 305 300 300 305 302 299 294 293 289 292 296 294 292 291 288 286 286 286 289 288 287 286 287 291 293 295 298 299 299 298
308 307 308 308 301 298 296 304 306 301 280 290 295 300 304 304 297 305 308 301 298 293 293 292 295 294 292 291 290 284 290 290 288 284 279 286 277 283 288 290 292 292 292 294 295
308 308 308 308 300 296 300 302 302 296 273 292 296 308 304 298 299 300 306 302 294 294 295 290 291 290 289 291 292 288 292 289 287 282 279 280 278 280 285 286 288 290 292 291 293
308 308 309 306 304 302 302 301 297 280 273 287 296 295 295 297 297 300 300 303 302 296 295 290 294 293 291 293 292 293 288 286 284 280 271 278 279 278 281 285 286 289 290 291 292
309 308 306 306 297 304 303 295 277 273 286 287 290 294 293 292 293 296 294 292 289 285 286 290 288 292 294 288 291 288 282 272 270 268 272 281 278 280 286 288 288 290 290 291 291
308 306 305 304 304 301 298 285 275 283 286 294 293 292 289 292 293 293 291 288 291 287 285 279 277 288 291 288 286 285 283 274 271 271 273 281 277 281 289 291 290 291 291 290 291
307 302 302 302 302 299 291 279 279 284 292 291 291 287 288 290 291 291 290 289 289 289 281 278 280 291 291 292 290 284 278 284 276 274 269 276 280 286 288 287 288 291 292 292 293
296 296 297 303 302 297 288 284 285 289 294 293 285 288 284 286 286 288 288 290 289 291 290 286 278 289 291 292 290 286 288 276 272 265 269 274 276 280 284 285 289 289 289 291 292
294 289 298 305 302 292 285 285 289 297 296 292 287 286 286 286 286 285 286 289 291 291 291 288 283 282 288 285 283 284 280 281 280 276 270 272 276 284 285 285 287 288 290 290 292
292 282 300 305 290 290 286 288 294 294 296 295 291 289 287 288 286 285 285 288 293 292 287 290 285 274 282 287 289 287 284 282 273 272 275 274 277 289 287 288 290 293 296 297 298
288 288 299 299 286 288 291 293 295 295 295 294 291 292 292 287 284 286 288 292 294 293 289 290 283 273 278 285 288 284 286 286 283 280 272 275 278 288 288 292 294 295 298 299 297
288 281 288 294 292 289 290 289 290 296 295 295 291 293 290 288 289 287 288 292 295 295 298 295 285 277 275 277 284 279 284 285 284 279 278 280 282 287 290 292 296 298 299 298 297
290 290 292 283 287 291 293 292 290 290 295 295 292 291 290 287 287 287 289 290 293 298 296 292 279 280 284 286 285 284 284 285 282 284 281 284 285 288 292 294 297 299 296 295 294
292 291 293 288 291 289 290 288 290 292 292 291 291 293 292 289 289 287 289 288 287 289 289 292 284 285 283 285 285 282 285 285 286 286 287 287 286 293 297 299 295 294 294 294 296
292 297 294 289 288 287 287 290 291 293 294 295 293 293 292 293 295 294 293 293 291 289 287 287 284 281 273 283 283 279 283 285 286 287 287 285 291 297 296 296 293 291 290 292 295

GFSSW_sfc_thetae_021.txt.gz
Theta_e
315 314 313 312 312 312 313 312 312 314 316 319 322 324 322 322 321 316 309 314 318 328 327 319 316 314 311 306 307 304 294 291 293 293 295 300 299 303 303 300 302 301 311 317 325
316 316 316 314 313 313 311 311 312 312 313 316 319 322 322 323 315 309 317 325 327 328 322 315 309 309 304 304 303 299 294 295 300 299 298 301 300 301 302 300 299 301 316 323 325
314 314 315 315 314 314 312 310 311 311 311 313 317 320 322 320 306 305 323 327 329 328 322 317 312 308 302 301 301 299 295 300 302 304 304 301 301 303 300 299 299 299 304 312 320
313 313 313 313 314 312 312 311 310 309 311 312 314 318 321 314 293 312 327 329 330 324 318 312 308 302 299 298 302 296 300 302 304 306 303 300 302 300 302 302 304 305 306 306 311
312 312 312 311 311 312 311 311 310 310 311 311 312 315 315 303 303 318 328 330 324 321 313 308 304 302 297 299 299 296 299 302 303 304 302 303 300 300 300 306 307 306 307 306 306
311 311 311 311 310 310 310 310 310 310 310 311 312 313 309 295 312 317 322 322 321 317 311 309 305 305 300 298 298 299 300 300 301 301 301 300 300 300 301 304 304 304 304 304 305
311 310 309 309 309 309 310 310 309 310 310 310 311 310 306 301 312 314 322 320 320 317 310 311 311 305 303 299 302 301 296 297 299 300 300 301 297 296 303 304 302 302 303 304 304
310 309 309 309 309 309 309 309 309 309 309 310 311 308 300 312 312 309 316 316 320 319 316 316 315 306 302 302 299 296 294 290 296 299 300 300 292 299 302 301 301 302 302 303 304
309 309 309 309 309 309 309 309 309 309 310 310 305 307 297 315 308 310 315 311 313 316 317 317 312 303 300 294 290 292 285 288 292 299 298 296 291 298 302 301 299 300 299 300 301
308 307 308 308 308 308 308 309 309 308 306 307 306 299 302 300 308 310 314 316 312 312 310 309 305 295 293 290 284 285 285 287 288 292 294 291 291 297 300 297 297 297 298 297 299
308 307 307 307 308 307 304 298 292 292 297 294 299 298 301 308 310 306 310 311 310 307 299 302 297 292 293 291 290 289 288 286 289 294 290 289 288 291 294 293 292 293 295 297 298
307 307 307 308 308 308 300 292 296 298 287 297 302 303 306 308 300 304 312 304 303 296 298 296 292 298 299 296 294 294 291 285 289 292 289 288 287 292 294 294 296 297 297 298 297
307 308 308 308 307 302 298 296 302 302 290 294 299 301 303 306 299 300 307 304 298 295 295 292 293 298 296 294 292 287 286 285 286 289 287 286 284 287 290 292 293 296 297 298 297
308 308 308 308 301 299 295 303 303 300 277 287 292 300 303 303 296 305 308 302 299 293 294 293 295 296 292 290 290 284 289 289 287 284 279 285 277 283 287 288 289 290 290 292 294
307 307 308 307 300 296 299 301 303 296 266 290 293 307 304 297 298 300 307 303 295 294 295 289 291 291 289 290 291 287 290 288 286 281 278 279 277 281 283 285 287 288 289 291 292
309 308 307 305 303 302 301 300 298 274 274 287 296 296 295 296 297 300 300 302 302 296 294 290 294 292 290 292 292 292 287 284 282 279 271 277 277 278 281 283 286 287 290 290 290
307 308 305 305 297 302 300 295 275 272 286 287 291 294 293 292 294 296 294 291 289 286 286 289 288 291 293 288 290 288 282 271 270 268 272 279 277 281 285 287 287 289 289 289 289
308 306 304 302 302 300 295 284 275 283 283 294 293 293 289 292 293 293 291 287 290 288 284 281 278 288 291 288 286 284 283 273 270 269 273 280 276 281 286 288 288 289 289 291 292
305 300 300 300 301 298 291 279 280 283 288 291 291 287 288 290 292 291 290 288 289 288 282 278 280 290 291 291 289 283 277 283 276 274 269 275 279 284 287 287 289 289 289 290 292
297 294 294 301 301 296 288 284 285 289 294 290 284 287 284 286 287 288 288 291 290 290 290 285 278 288 290 291 290 286 287 277 272 265 269 273 275 278 282 284 287 287 289 290 291
295 289 297 304 301 290 284 284 291 297 296 290 286 286 286 286 287 286 286 288 291 289 290 287 283 285 287 284 283 284 280 280 279 275 269 271 276 283 283 284 286 289 291 291 293
290 282 297 302 287 289 286 288 294 294 295 293 290 289 288 287 285 284 284 287 292 291 287 289 284 275 282 287 289 286 283 281 273 270 273 273 277 288 286 286 288 293 293 294 297
287 287 297 296 286 288 290 292 294 293 293 293 289 292 291 286 284 285 287 291 293 291 288 289 280 272 278 284 287 284 284 284 281 278 271 273 277 288 287 291 293 294 296 300 299
287 282 289 291 293 290 289 288 289 294 293 292 291 292 289 287 288 286 287 292 293 294 298 294 283 277 274 277 282 279 283 284 282 276 277 279 280 287 289 290 294 298 295 296 297
288 288 292 287 291 292 291 290 289 289 293 293 290 290 289 285 286 286 288 289 294 298 293 289 279 279 283 285 283 283 284 284 280 283 278 281 282 287 290 293 297 295 295 294 293
288 291 293 288 288 287 288 287 289 290 291 290 289 291 290 287 287 286 288 287 288 291 291 291 283 283 281 284 283 282 284 285 285 285 284 285 285 292 294 298 298 294 291 290 291
290 294 291 288 286 285 286 289 291 292 293 294 293 291 291 292 293 292 291 291 290 289 287 286 284 281 275 281 282 279 283 284 285 286 286 282 288 295 296 297 294 290 290 289 290

GFSSW_sfc_thetae_024.txt.gz
Theta_e
315 315 316 316 316 315 314 312 311 313 313 314 316 319 322 323 322 315 308 313 318 327 329 321 320 314 311 305 306 303 294 290 292 293 294 299 297 303 302 299 301 301 304 313 324
314 314 314 315 315 315 315 314 311 311 312 313 314 316 320 322 314 309 315 323 326 325 319 315 310 309 304 303 303 300 293 294 299 298 297 299 299 300 301 300 299 299 315 321 327
313 313 313 313 314 314 312 313 313 311 310 311 312 315 317 318 305 303 321 324 327 326 322 317 312 307 301 301 300 299 295 299 302 303 303 300 300 301 298 297 299 298 302 311 317
312 312 312 313 312 312 312 312 312 312 311 310 311 313 315 315 292 308 322 325 326 322 319 314 309 301 299 297 301 295 300 301 303 305 303 299 301 298 300 301 304 304 305 305 308
311 311 311 311 311 311 311 311 311 311 311 311 311 312 310 305 301 315 323 328 320 320 315 311 305 301 297 299 299 297 298 302 303 303 302 302 299 299 299 303 305 305 306 305 305
310 310 310 310 310 309 310 310 310 310 310 310 310 311 306 297 312 312 317 321 318 318 312 308 305 304 300 298 298 300 300 300 301 300 301 299 298 299 300 302 302 303 303 304 304
311 310 310 309 309 309 309 309 310 310 310 309 309 307 302 302 312 310 319 319 321 317 309 309 308 304 302 298 301 300 295 297 298 300 299 300 296 295 301 303 302 301 301 303 304
310 309 308 309 308 309 309 309 309 309 309 309 308 306 298 313 315 311 312 317 320 318 315 314 312 305 301 301 298 296 294 289 296 299 300 299 289 297 301 300 300 300 300 301 304
310 309 308 308 308 308 309 309 309 309 309 309 303 301 297 313 307 310 312 312 316 316 316 316 312 304 299 293 291 292 284 287 292 297 297 295 290 297 299 298 297 298 298 300 300
309 308 307 307 307 308 308 309 308 306 305 306 304 299 303 300 307 310 314 315 312 312 309 307 305 297 292 293 283 285 285 286 287 291 293 291 289 294 296 297 296 297 297 297 299
307 307 308 307 308 308 304 297 291 289 296 291 295 298 301 307 310 307 312 312 310 306 296 302 295 292 293 291 290 289 287 286 289 293 290 289 287 291 294 292 292 293 294 296 298
307 307 308 308 307 307 299 291 296 295 286 295 296 302 305 307 299 304 312 304 303 297 299 296 292 296 296 294 292 291 288 285 289 291 288 287 287 291 294 293 295 296 296 297 296
308 307 307 308 307 302 296 295 301 302 288 294 299 301 302 305 299 300 308 304 299 296 296 293 295 300 297 294 293 290 289 285 286 288 286 285 284 286 289 291 292 293 294 294 295
310 308 307 307 300 299 294 301 303 299 275 284 293 300 303 303 296 305 309 303 298 292 292 293 296 297 294 293 291 286 289 288 286 283 279 285 277 283 286 286 288 288 288 290 291
308 308 308 306 298 295 298 303 300 294 263 288 292 307 303 297 298 300 307 303 294 294 293 289 291 294 291 292 292 288 290 287 285 281 277 279 277 281 282 283 285 287 288 288 289
309 309 307 303 301 302 300 299 295 273 270 286 295 295 294 295 296 300 300 303 302 294 293 291 295 293 291 292 293 290 286 283 281 279 272 276 276 278 280 281 285 287 288 288 289
308 307 304 303 296 302 299 291 274 272 285 286 290 293 292 293 294 296 294 291 290 286 285 289 288 291 292 288 290 287 282 272 270 269 272 278 277 279 284 286 286 287 287 289 291
306 305 302 300 300 299 294 282 276 283 283 293 293 292 289 292 293 293 291 287 290 288 283 281 281 289 291 288 286 284 282 274 269 268 272 279 276 281 286 286 287 288 287 290 292
306 296 296 299 300 297 287 275 277 283 287 291 291 288 288 291 292 291 289 287 288 286 281 278 280 289 290 290 288 283 277 282 275 272 269 274 278 283 285 285 287 288 290 291 293
294 292 294 302 303 293 285 285 286 290 293 289 284 286 284 287 287 289 287 289 288 289 288 284 279 287 289 291 290 286 287 277 273 266 269 273 274 277 281 284 286 288 289 291 294
292 288 296 301 298 291 284 285 292 297 295 289 285 285 285 285 287 285 286 287 289 288 290 286 283 285 287 284 283 284 281 280 278 275 270 270 275 282 282 283 284 287 290 291 293
289 283 296 299 288 290 287 290 294 293 294 292 289 288 285 286 283 283 284 286 291 291 286 288 283 275 283 286 288 286 283 280 272 271 274 272 276 286 286 286 288 290 293 294 296
286 286 296 295 286 288 289 291 293 292 292 291 288 291 289 286 283 285 286 291 292 290 287 289 280 272 279 283 286 283 283 282 280 277 271 271 277 287 286 288 291 294 297 297 295
287 282 289 294 294 291 289 287 288 294 292 291 289 290 288 286 288 285 285 291 292 292 297 293 283 278 274 276 282 279 282 283 281 272 276 277 279 286 288 291 294 296 297 296 294
288 288 292 285 286 290 289 289 287 288 292 292 288 288 287 284 285 285 287 288 292 296 292 289 278 279 282 284 283 283 283 283 279 280 275 279 281 286 290 292 294 297 295 293 290
288 288 293 287 286 285 287 286 288 289 290 288 288 292 289 286 286 285 287 286 287 291 288 289 281 281 277 283 283 281 283 284 283 283 284 284 284 291 294 295 296 296 291 290 288
289 295 293 287 285 283 284 287 290 291 292 293 291 290 289 291 292 291 291 291 290 288 287 288 284 278 275 280 281 278 281 284 284 285 286 281 287 292 292 295 297 292 290 289 289

GFSSW_sfc_thetae_027.txt.gz
Theta_e
314 314 314 314 314 315 315 316 315 312 311 313 314 315 317 320 323 316 309 314 318 327 327 319 320 319 312 308 308 306 298 293 296 294 297 302 301 306 307 305 306 307 310 318 330
312 313 313 313 313 313 314 314 314 312 312 310 312 313 316 318 313 310 316 323 325 326 318 313 313 312 307 305 305 303 296 296 299 300 299 303 304 304 305 304 305 306 310 325 332
312 312 312 312 313 312 312 312 312 312 312 313 311 312 314 315 308 307 324 325 325 325 320 318 314 310 304 303 302 301 297 301 303 303 305 303 304 305 304 302 305 304 308 318 328
311 311 312 312 312 311 311 311 312 312 312 312 311 311 313 311 294 309 322 325 325 321 319 312 308 304 301 299 302 298 301 302 305 306 305 303 305 302 304 305 308 309 310 310 323
311 311 311 311 310 310 310 310 310 311 311 311 310 309 308 302 303 314 320 321 320 319 315 311 306 304 300 301 301 299 300 303 305 304 304 304 302 303 302 306 307 307 309 310 310
311 311 310 310 310 310 309 310 309 310 310 310 309 309 303 295 312 313 312 320 316 317 314 312 308 305 302 301 300 302 302 302 302 302 303 301 301 302 303 306 305 305 307 308 308
311 311 310 309 309 309 309 309 309 309 309 310 309 305 300 299 311 314 312 317 317 318 312 312 311 305 302 299 303 301 297 299 299 301 300 302 297 297 304 305 304 305 305 307 308
311 310 310 309 308 308 309 309 309 309 309 309 308 304 294 312 314 313 311 316 319 320 317 314 311 306 304 303 300 297 297 292 298 300 301 300 290 300 303 302 303 304 304 304 306
310 309 307 308 307 308 308 309 309 309 308 308 302 299 295 314 306 311 312 310 316 316 315 316 311 305 302 295 293 294 287 290 294 300 299 298 293 299 302 301 301 302 302 302 303
309 308 307 308 307 308 308 309 307 306 305 305 303 295 300 299 308 309 312 315 312 312 308 307 304 298 297 293 285 287 288 290 290 294 296 294 293 297 298 297 298 300 301 301 302
311 308 308 308 308 307 303 296 291 289 296 289 292 295 301 307 310 308 313 312 311 306 297 302 295 290 294 294 292 291 289 289 292 294 292 291 290 293 296 295 295 296 298 299 300
310 309 306 307 306 306 299 291 293 295 286 294 294 297 302 307 300 305 313 305 298 295 299 296 292 296 297 294 292 291 288 288 291 292 291 289 288 293 295 295 296 297 297 298 299
310 308 303 306 306 301 295 294 301 300 288 294 299 296 301 305 299 300 308 305 295 291 293 292 295 298 296 293 292 290 289 288 289 290 289 287 287 288 292 293 293 293 293 295 296
310 309 307 305 299 298 293 301 301 298 275 287 293 299 303 303 297 307 309 303 298 292 295 293 297 296 295 293 294 289 292 290 288 286 283 287 282 286 287 289 291 290 290 291 292
309 309 308 305 297 294 298 302 299 291 266 288 293 304 304 297 299 300 307 304 294 292 294 289 293 295 293 294 294 289 291 288 286 284 283 282 281 284 286 286 289 289 291 292 293
307 308 307 301 299 300 299 299 293 274 268 286 293 294 294 297 297 300 300 304 302 294 294 291 297 294 293 295 294 291 287 284 283 282 277 279 280 281 283 286 288 290 290 292 294
308 306 302 301 294 300 298 290 274 273 285 286 289 293 292 292 294 295 293 291 290 286 285 290 289 293 293 289 291 289 285 277 275 275 277 280 280 282 286 288 289 290 291 293 294
309 304 301 300 299 297 293 281 272 282 282 293 293 291 290 292 292 293 291 288 289 288 285 283 282 289 292 290 287 286 285 278 274 273 276 280 278 283 288 289 290 291 293 293 296
305 295 295 299 302 297 288 278 274 283 288 290 291 286 288 291 292 291 288 287 288 288 284 282 281 290 290 291 290 285 280 284 276 274 274 277 280 285 288 288 289 291 293 294 295
293 291 292 299 301 294 288 285 287 291 292 289 284 286 283 288 288 288 286 289 288 289 289 285 280 288 289 291 290 287 287 280 276 269 272 275 277 280 284 286 289 291 291 293 296
291 288 295 300 297 290 285 286 291 295 293 288 285 284 285 285 286 285 286 289 291 289 289 286 284 285 289 285 284 285 282 281 280 278 274 273 278 284 286 287 289 290 292 294 297
288 284 296 298 288 291 288 290 295 293 294 290 289 287 285 285 283 283 285 287 292 291 287 288 284 280 284 287 289 287 284 282 276 274 276 276 279 288 288 288 290 291 294 298 299
286 286 295 295 286 288 290 291 292 291 291 291 288 290 288 285 283 285 287 291 292 290 288 289 281 275 281 284 287 284 284 283 281 279 275 276 280 288 288 289 291 293 296 298 297
286 282 289 291 291 288 287 286 287 293 291 290 289 289 287 286 287 285 285 291 291 292 297 292 283 279 275 278 283 281 283 283 282 277 277 278 280 287 288 289 292 294 298 296 293
288 289 292 284 286 286 287 288 286 287 291 291 288 288 286 283 284 284 287 288 292 296 292 289 279 279 283 284 284 284 284 283 280 282 278 281 281 286 289 291 292 296 296 294 291
287 289 292 286 285 284 285 284 287 288 289 287 287 290 287 285 285 284 287 286 286 289 288 289 282 281 278 284 284 282 284 284 284 284 283 284 284 292 293 293 296 297 292 292 290
294 295 292 286 283 282 284 286 288 289 291 292 292 291 288 290 291 290 289 290 290 288 287 288 284 277 275 282 281 278 282 284 285 285 286 282 287 291 291 293 295 292 290 289 289

GFSSW_sfc_thetae_030.txt.gz
Theta_e
314 314 313 313 314 314 314 314 315 316 315 312 311 313 314 317 318 316 312 315 319 326 326 318 322 323 316 313 314 313 305 301 303 303 304 308 306 309 311 309 311 311 313 324 330
314 314 312 312 313 313 313 313 313 314 314 312 310 311 312 316 310 308 321 325 324 325 321 312 315 318 311 310 310 307 302 302 307 307 306 307 307 309 308 309 309 311 317 331 334
314 313 312 312 312 312 312 312 312 312 312 312 313 310 312 313 304 305 326 325 326 325 320 317 319 315 308 309 307 306 301 305 305 307 307 307 307 310 308 306 309 309 313 326 331
313 313 312 311 311 311 310 311 311 311 312 313 311 310 310 308 290 312 322 328 326 322 318 316 314 309 306 303 308 301 304 305 306 308 307 306 309 307 309 308 312 314 314 315 328
313 312 312 311 310 310 310 310 310 310 310 310 311 308 306 300 299 316 319 320 321 318 315 312 309 308 303 305 305 303 304 306 307 308 308 308 307 307 308 312 313 313 313 314 315
312 311 311 311 310 310 309 309 310 309 309 310 310 308 302 293 309 315 315 316 319 316 314 314 309 311 306 305 303 305 304 305 307 307 307 305 306 306 308 311 310 311 311 313 315
311 311 310 309 311 310 309 309 309 309 309 309 309 306 299 296 313 317 315 313 319 316 313 315 314 309 308 303 307 305 301 303 304 305 304 306 302 302 308 310 308 309 310 312 314
312 311 309 308 308 308 308 309 309 309 309 309 309 304 293 307 310 313 314 314 318 319 317 318 315 309 306 307 304 300 300 294 301 304 304 303 295 302 307 307 306 308 309 310 312
312 311 309 309 308 307 308 309 309 309 309 308 303 300 293 312 307 312 314 310 314 316 318 317 313 307 305 299 295 297 291 293 296 303 301 300 295 301 305 305 305 306 308 309 310
311 311 308 307 307 307 308 307 307 308 307 306 304 295 299 299 308 311 314 313 311 311 310 308 306 302 300 297 287 290 291 293 292 298 300 299 297 302 305 304 304 305 306 307 309
311 310 307 307 307 306 305 303 297 296 299 292 292 294 300 307 312 308 312 310 311 307 298 303 297 294 296 298 296 295 293 292 295 297 297 297 297 300 303 303 302 304 305 307 308
310 309 305 307 306 306 304 297 297 298 289 296 296 295 300 304 301 305 314 303 303 296 300 297 293 299 300 298 296 296 292 292 295 295 296 295 295 299 301 301 302 303 303 305 306
310 307 304 307 307 304 300 298 305 303 291 295 297 296 298 306 300 302 306 301 299 296 297 292 296 299 298 295 295 295 292 291 292 294 294 293 293 294 295 297 297 297 298 299 301
310 309 307 306 302 302 298 305 306 302 286 287 293 298 302 303 299 308 307 302 296 291 296 294 298 297 295 294 296 291 297 294 292 292 289 292 288 293 293 293 295 296 298 300 302
309 308 307 306 301 298 301 305 304 299 277 290 292 304 303 298 300 299 308 303 293 290 294 289 295 296 294 295 298 293 296 293 291 290 289 288 287 290 292 291 293 296 299 301 302
307 307 306 305 305 303 305 303 300 285 277 287 293 295 295 298 298 300 301 303 301 293 294 292 297 295 294 296 298 294 292 291 290 289 284 286 285 287 290 292 293 295 298 301 303
310 306 304 305 298 305 304 299 286 281 287 287 290 295 294 294 294 295 293 292 291 286 286 289 289 293 295 291 293 292 290 285 283 283 284 285 284 289 291 293 294 296 299 302 304
309 305 303 304 306 304 301 291 282 284 286 293 294 294 291 294 292 293 293 290 293 292 290 286 284 289 292 292 289 291 291 287 279 279 282 284 282 288 293 295 295 297 299 302 303
305 304 304 304 305 304 296 285 284 285 290 291 292 288 289 293 293 293 292 291 292 293 288 286 284 292 292 293 294 289 288 288 283 281 282 285 286 290 292 292 295 296 299 301 303
302 301 301 304 306 302 295 286 288 291 294 293 287 290 285 288 289 291 291 293 291 293 294 289 284 290 291 294 293 292 292 285 286 279 278 282 283 286 289 291 294 297 300 302 305
301 298 302 305 305 300 287 289 293 297 296 292 289 289 290 288 291 290 289 292 294 292 294 292 290 287 291 289 288 288 288 286 287 284 282 281 284 292 292 295 295 297 299 301 304
298 297 303 305 298 297 291 292 295 296 298 294 294 292 290 290 289 289 288 292 296 295 291 291 289 284 286 291 292 291 289 288 285 281 283 283 285 293 295 295 295 297 300 302 303
296 296 304 304 292 293 294 294 295 295 294 293 292 293 293 290 287 289 290 294 295 294 292 293 287 281 283 288 290 288 289 288 286 286 282 283 286 293 294 294 297 297 300 302 300
297 293 299 301 298 294 292 292 292 296 294 294 293 294 291 290 292 289 289 293 294 294 297 296 288 285 282 285 288 285 287 288 287 284 284 285 287 291 293 295 299 300 301 302 299
297 290 293 292 294 293 293 293 291 291 296 295 292 292 291 288 289 288 291 291 293 296 294 293 286 286 287 287 287 287 287 287 284 287 285 286 286 291 294 296 298 300 301 300 297
291 291 294 292 291 291 291 292 291 293 293 291 291 292 293 290 290 289 292 292 291 294 292 293 286 286 284 286 287 285 288 288 288 288 288 288 288 296 298 298 299 301 298 297 295
296 296 293 290 290 291 291 291 292 294 295 296 295 294 293 294 297 296 296 296 296 292 291 291 287 285 282 285 285 282 286 288 288 289 289 285 291 296 295 296 298 299 296 294 294

GFSSW_sfc_thetae_033.txt.gz
Theta_e
316 316 315 315 314 313 314 314 314 315 316 317 313 311 313 314 317 313 310 318 320 322 326 315 320 323 318 313 315 316 303 301 305 304 306 312 309 312 313 310 311 314 316 325 337
315 315 315 314 313 313 313 313 313 313 314 315 312 311 311 313 310 306 316 326 325 323 320 311 314 318 310 310 311 308 305 305 310 310 308 311 309 309 308 308 309 311 319 329 335
314 314 314 313 313 311 312 312 312 312 312 312 312 313 310 311 303 303 321 327 327 324 320 314 316 315 307 309 308 306 301 307 308 309 310 309 308 310 308 306 309 309 314 327 331
314 313 313 313 312 310 311 311 311 311 311 311 312 311 308 308 290 308 325 328 327 322 318 313 312 309 306 303 308 301 305 306 308 308 307 306 310 307 309 309 313 315 316 318 328
313 312 312 312 311 310 311 311 310 310 310 310 310 310 307 299 299 319 320 325 322 319 313 312 307 308 304 305 306 303 304 306 307 308 308 308 306 307 308 312 315 315 315 315 317
313 313 311 310 309 309 311 310 310 309 309 310 310 309 302 293 307 314 315 315 317 317 313 312 307 312 306 304 304 306 306 305 306 307 308 306 306 308 309 313 312 312 312 313 315
313 313 312 309 307 307 308 310 309 309 309 309 310 307 300 298 310 316 315 312 314 317 309 313 312 309 308 303 308 306 301 304 304 305 305 307 303 304 310 312 310 310 311 312 313
313 312 311 309 309 308 308 308 309 309 309 309 309 305 295 306 309 307 314 312 315 318 313 315 314 309 306 308 305 301 301 295 301 304 305 304 297 306 310 309 308 309 310 310 311
312 312 311 308 307 307 307 308 309 309 308 308 305 301 294 310 302 305 312 310 311 316 315 317 313 307 305 299 296 298 291 294 296 303 303 302 298 304 307 306 306 307 309 309 310
311 311 310 308 307 306 307 307 307 308 307 306 304 295 298 297 305 310 314 312 310 311 309 308 306 300 299 296 287 291 291 293 294 300 301 299 298 302 305 304 305 306 307 308 309
311 309 308 308 307 307 306 306 299 296 299 293 293 295 298 304 310 308 311 310 310 306 299 305 299 294 296 297 297 295 293 292 296 299 298 297 298 300 304 304 304 305 306 306 308
309 307 308 308 308 306 306 298 298 299 291 296 296 296 300 303 300 305 312 301 302 297 300 297 294 299 300 299 297 296 293 292 296 299 297 296 296 300 302 302 303 304 305 306 307
309 306 307 307 305 305 302 300 307 304 292 294 297 295 299 305 300 301 305 300 297 296 297 294 296 301 298 296 295 295 293 292 292 296 297 295 293 296 299 300 301 300 301 302 304
309 308 307 306 304 304 299 305 306 304 287 289 293 297 303 304 298 306 306 299 293 295 297 295 300 298 297 295 296 291 297 296 293 292 287 296 286 294 295 295 297 298 300 301 303
311 308 307 308 304 300 302 306 306 301 278 291 291 304 303 299 299 298 307 303 291 291 294 289 295 296 294 295 298 294 299 296 295 292 291 291 288 293 295 292 295 298 300 302 304
309 310 307 307 307 304 307 306 302 285 279 287 294 295 295 298 298 300 300 303 299 293 293 292 297 296 295 298 299 299 295 294 294 291 285 291 289 289 291 294 295 298 301 302 304
309 310 306 307 301 307 306 302 286 282 288 288 291 295 296 293 294 295 292 291 288 285 285 288 288 294 295 293 296 296 293 286 283 284 284 288 286 291 294 296 297 298 301 303 305
309 309 307 306 309 307 304 293 284 286 288 295 295 295 291 293 292 294 293 290 295 294 288 287 283 289 291 293 291 292 293 288 280 282 284 286 283 289 295 297 298 300 301 304 305
308 308 305 308 307 306 298 287 286 287 292 292 293 290 290 293 294 294 294 291 294 294 288 287 285 292 291 294 297 291 288 291 285 285 285 286 288 292 293 294 295 298 300 303 304
305 304 305 307 308 303 296 287 290 293 296 295 288 291 286 290 291 293 292 295 293 295 296 292 285 291 291 295 294 293 295 286 288 281 280 284 285 287 290 291 295 296 300 303 305
304 300 306 308 307 302 289 291 294 299 298 293 291 290 290 289 292 291 291 294 296 294 296 295 291 288 292 290 289 289 288 289 289 286 283 282 284 294 292 295 296 298 300 302 304
303 298 307 309 300 301 294 294 295 297 299 296 295 293 292 292 291 291 290 294 298 297 292 293 292 285 288 293 294 293 291 291 286 283 286 285 285 296 297 297 297 298 301 302 305
299 301 308 308 295 294 296 295 297 296 296 294 293 295 295 292 289 292 292 296 297 296 293 294 289 282 283 289 292 289 291 291 289 288 285 284 285 296 297 296 299 300 302 303 303
300 295 303 305 302 297 294 294 294 298 296 296 295 296 294 292 294 291 292 295 296 296 297 297 290 287 284 287 291 287 290 291 289 285 286 286 288 292 294 296 300 301 302 304 303
299 292 295 295 297 297 297 295 293 293 297 297 294 294 292 289 290 290 293 293 295 296 296 295 288 287 288 289 289 289 289 289 286 288 286 288 288 293 295 298 299 302 303 302 300
292 291 295 296 295 295 293 294 293 294 295 292 292 294 294 291 292 290 293 293 291 295 294 295 287 288 285 289 288 286 289 290 289 289 289 290 289 296 298 299 300 302 300 298 297
297 297 293 294 294 294 295 294 294 296 297 298 297 295 293 295 298 298 298 298 297 294 292 292 289 286 284 287 286 283 287 289 290 291 291 287 292 297 296 297 298 300 299 297 296

GFSSW_sfc_thetae_036.txt.gz
Theta_e
316 316 316 316 315 315 314 313 313 314 314 315 317 313 311 314 314 312 306 316 320 327 323 315 317 321 322 315 315 316 301 297 301 303 305 310 307 309 308 306 306 308 318 331 337
316 316 315 314 314 314 313 313 313 313 313 313 314 314 310 312 307 303 315 325 328 328 317 309 311 317 311 310 310 306 300 301 306 308 308 309 308 307 304 304 302 307 322 333 334
315 315 315 314 313 313 312 311 312 312 312 311 312 313 310 310 300 300 318 325 328 326 318 312 315 314 309 308 307 305 300 307 307 310 308 309 306 308 304 302 304 304 315 325 329
315 315 315 313 312 312 311 311 311 311 311 310 310 312 310 306 290 311 318 325 329 322 318 314 308 308 305 302 307 300 305 305 308 309 306 305 308 304 305 305 309 308 313 324 325
314 314 314 313 312 311 311 311 311 310 310 310 310 311 306 298 297 314 322 324 322 320 312 311 304 306 303 304 304 302 303 305 306 307 306 308 304 303 304 308 311 313 313 310 316
313 313 313 312 310 309 309 309 310 309 309 309 309 310 301 292 307 314 317 318 318 316 311 312 305 309 306 304 302 304 304 304 304 305 307 304 303 303 304 308 308 309 308 309 310
314 312 312 311 307 307 307 308 309 309 309 308 309 307 299 296 310 315 313 311 316 315 310 311 311 307 307 303 307 305 299 302 302 304 304 306 300 300 305 307 306 306 306 308 308
313 312 312 310 308 307 308 307 308 308 309 309 309 304 293 305 307 305 312 311 313 315 315 314 313 307 307 306 304 300 299 293 301 302 304 303 294 302 306 305 304 305 304 305 308
312 312 310 309 308 307 307 307 308 309 308 308 303 300 292 310 300 304 306 307 310 313 314 315 312 304 306 298 295 297 289 293 296 303 302 300 295 302 304 304 302 303 305 304 305
310 310 310 309 308 307 307 307 308 308 307 306 303 294 297 295 302 303 308 312 307 309 305 306 305 298 299 295 286 290 290 292 292 298 300 298 296 300 301 300 299 300 301 302 304
309 309 310 309 308 307 306 305 299 296 299 293 293 293 296 302 307 304 310 308 306 304 297 303 295 291 294 296 296 294 292 290 294 300 296 295 297 298 300 300 299 300 300 301 302
310 309 309 309 308 308 307 297 297 299 290 297 296 296 299 302 297 303 309 298 300 296 300 297 291 297 300 297 295 293 291 290 293 297 295 294 294 297 298 300 300 300 299 300 301
311 310 309 309 309 307 301 300 306 304 292 294 297 296 299 302 297 299 303 298 296 296 295 292 295 300 297 294 293 292 290 290 290 294 295 292 289 293 297 299 300 297 296 297 298
309 310 310 309 303 304 299 305 307 305 285 288 293 298 301 303 297 306 305 300 296 294 296 294 300 298 296 294 295 288 295 294 293 289 283 293 279 289 294 294 295 293 293 295 297
309 310 310 308 304 300 302 306 306 301 276 291 293 304 303 298 297 299 307 299 292 295 295 290 295 295 294 295 297 293 297 294 293 289 286 288 283 286 291 290 291 293 296 297 299
308 309 310 307 307 304 307 306 302 285 278 287 294 294 296 298 297 298 299 301 299 295 294 293 297 296 295 298 298 299 294 293 291 288 278 287 285 284 287 290 292 295 296 298 298
308 308 308 305 301 308 307 300 285 280 289 288 291 295 294 293 294 295 291 290 287 285 285 289 288 294 296 293 297 296 288 281 278 277 277 286 284 285 289 292 293 294 296 298 299
309 308 309 305 308 307 302 292 280 286 288 295 295 295 290 293 293 293 290 288 294 292 287 285 281 289 293 293 291 291 289 282 275 276 277 284 280 285 292 294 296 297 297 299 299
309 308 306 309 309 306 296 284 284 285 293 292 293 290 290 293 294 293 292 291 294 294 287 286 284 291 292 294 295 291 286 288 281 281 276 279 284 288 291 291 294 295 296 298 300
303 304 305 308 308 302 294 286 290 294 296 295 288 291 287 290 291 292 291 294 292 295 295 290 284 290 291 295 295 292 294 283 281 273 275 279 280 282 286 288 291 293 294 298 301
303 299 304 309 307 298 288 291 294 298 298 293 291 290 289 289 291 290 290 293 295 293 295 294 289 288 290 288 287 288 286 287 285 282 277 275 278 287 288 290 291 293 296 297 300
302 295 306 309 298 298 292 295 297 297 299 296 296 294 291 292 290 289 290 292 297 296 291 292 289 284 287 293 295 293 290 290 283 279 280 278 279 292 291 293 295 295 296 298 301
297 299 308 307 292 292 296 295 297 296 296 295 293 295 295 291 288 291 291 295 297 295 291 292 286 280 283 288 290 288 290 291 288 286 282 276 278 293 292 293 294 295 297 300 300
298 292 301 303 300 296 294 293 294 299 296 296 295 295 293 291 292 290 290 295 295 296 297 296 289 283 277 280 288 284 288 289 285 279 282 282 283 287 291 292 296 297 299 299 298
297 291 294 291 295 295 296 295 293 293 298 297 294 293 292 288 289 289 292 292 295 296 294 293 281 282 286 289 288 287 287 288 283 287 280 284 285 289 291 293 295 298 299 299 296
291 290 293 293 295 294 293 294 293 294 294 292 292 294 293 290 290 289 291 290 288 292 291 292 283 283 281 288 286 283 288 288 288 288 287 287 286 292 293 295 297 297 298 296 295
293 296 293 294 294 292 292 293 293 296 297 298 296 295 292 294 297 296 295 294 293 291 289 289 284 280 277 285 284 279 285 287 288 289 288 284 289 293 293 295 296 297 297 295 294

GFSSW_sfc_thetae_039.txt.gz
Theta_e
316 317 316 315 315 315 315 314 314 314 314 314 314 316 313 313 314 310 305 315 320 325 324 314 314 318 321 315 315 314 300 295 298 301 304 310 307 306 307 303 307 313 323 331 335
316 316 316 316 314 313 314 313 312 313 312 313 314 315 312 312 307 303 312 322 326 328 314 308 307 315 310 310 311 307 300 299 304 305 305 308 308 304 302 301 302 317 330 333 333
315 314 314 315 314 312 312 312 311 311 311 312 312 314 312 310 300 300 317 322 327 327 316 311 312 313 307 307 307 306 299 305 306 308 310 308 308 308 302 299 302 313 323 327 328
314 315 314 314 313 312 311 311 311 310 310 310 310 312 312 306 288 305 319 322 327 324 315 309 309 305 304 302 307 300 305 307 308 310 309 306 309 304 303 302 307 310 323 325 326
315 314 313 313 312 310 310 309 310 310 309 310 310 312 306 297 296 309 318 321 322 319 312 309 303 304 301 303 303 301 303 306 308 308 307 309 305 303 302 307 309 310 316 322 324
314 314 313 312 310 309 309 308 309 309 309 310 310 312 301 292 307 313 317 316 318 316 311 310 302 307 303 303 301 303 304 304 304 305 306 304 304 303 302 306 307 308 307 306 312
314 313 312 311 310 309 308 308 309 309 309 309 309 307 299 296 306 312 314 312 316 315 310 311 308 305 304 301 306 303 299 301 302 303 303 304 300 299 303 304 304 304 304 306 306
312 311 311 310 309 309 309 308 308 308 308 309 308 303 292 304 303 303 310 310 313 315 315 314 311 306 303 305 302 299 298 292 299 302 303 301 292 301 304 301 302 302 301 303 306
311 311 311 310 309 309 308 308 308 308 308 308 302 298 291 308 301 302 304 305 309 312 314 315 310 303 302 296 293 295 288 291 295 302 301 299 293 301 303 302 302 301 302 303 303
311 310 311 310 309 308 309 309 308 307 306 306 302 294 297 295 302 302 307 311 307 308 306 306 303 295 295 294 286 289 289 291 292 297 299 296 295 299 299 300 300 299 299 299 301
312 310 310 310 310 310 306 301 296 293 297 293 293 293 295 302 307 301 310 307 306 302 295 300 296 290 293 294 293 293 292 290 294 298 297 294 296 299 299 296 297 297 299 299 300
310 311 311 310 310 311 305 294 297 297 289 297 297 295 298 302 296 302 309 298 299 293 298 294 290 295 297 296 295 292 290 289 292 298 296 293 293 298 298 297 298 299 298 299 298
308 309 311 311 310 304 300 300 306 303 291 294 297 296 299 301 296 298 303 298 295 293 295 290 293 298 296 293 292 289 287 288 289 293 293 290 288 292 296 297 299 297 297 297 297
308 308 309 311 302 299 297 304 305 302 284 288 293 297 299 299 295 304 305 300 297 292 294 293 298 296 293 292 292 286 293 292 292 288 283 291 279 286 292 295 295 293 292 294 294
308 308 309 310 299 298 300 303 303 298 274 291 294 304 301 296 296 296 306 300 294 294 296 291 294 294 292 293 294 291 295 292 291 288 286 286 281 285 290 289 290 290 291 292 295
307 308 308 304 302 304 303 302 300 282 276 287 295 293 295 295 295 297 299 301 300 294 294 293 296 294 294 298 298 297 292 291 289 287 278 284 283 282 286 289 289 292 294 296 297
307 308 306 305 299 305 303 298 281 274 288 288 291 295 294 293 293 294 292 292 289 283 285 289 289 294 295 292 296 294 286 277 277 275 275 283 282 286 289 290 291 292 293 295 296
308 310 307 306 303 303 300 289 277 286 287 294 295 294 290 293 292 292 291 289 293 289 287 284 282 290 293 291 288 289 287 280 274 273 277 282 279 284 289 293 296 295 295 296 298
308 302 300 303 304 302 294 278 279 284 290 292 293 289 289 293 292 292 291 290 293 293 284 284 282 291 293 294 293 291 286 287 280 278 273 279 281 287 289 291 294 294 295 296 298
296 297 299 305 304 299 288 281 284 292 294 294 287 288 286 289 290 291 290 294 292 295 295 290 283 290 292 295 295 291 293 284 281 272 273 276 278 280 284 288 292 293 293 295 298
296 292 300 305 302 295 281 281 292 297 296 292 290 287 286 286 289 287 287 293 295 295 295 292 288 287 291 289 288 288 286 286 285 279 274 273 277 285 287 289 290 292 293 295 298
293 292 301 303 290 289 283 291 296 295 297 294 292 291 288 288 287 287 286 290 296 295 291 293 288 284 287 294 296 292 288 287 280 278 278 276 279 289 288 290 291 292 295 297 299
289 291 301 301 289 286 291 294 296 294 294 293 292 293 292 289 286 288 289 294 295 294 291 292 285 280 282 288 291 288 289 291 287 285 279 274 277 290 290 292 293 294 295 298 298
292 290 296 295 298 295 290 290 291 296 295 294 292 293 290 288 289 287 288 293 294 294 299 295 287 281 277 280 286 283 288 290 287 281 282 283 282 286 289 291 292 294 297 297 296
291 290 293 289 290 290 295 295 293 292 295 294 291 291 290 285 287 287 289 290 293 296 292 290 279 281 285 287 286 286 286 286 283 285 280 284 283 287 289 290 294 297 297 296 294
289 287 291 287 291 289 291 293 292 293 293 291 292 292 290 290 288 286 289 287 287 289 288 290 279 280 277 287 286 282 286 287 287 287 286 286 285 291 291 293 295 296 296 294 294
287 290 290 290 288 288 291 292 293 293 295 296 295 293 291 292 294 292 291 292 291 289 287 287 280 275 274 283 282 278 283 286 287 289 288 283 288 292 292 294 295 295 295 294 293

GFSSW_sfc_thetae_042.txt.gz
Theta_e
316 316 316 316 315 316 315 315 314 314 313 314 314 314 315 316 315 311 304 312 319 328 327 313 312 314 319 314 314 313 300 295 297 299 303 308 305 309 307 308 313 321 321 329 334
316 316 316 315 315 314 313 313 312 312 312 312 313 314 314 313 307 303 311 319 324 327 312 307 305 314 308 310 311 305 298 297 303 305 304 307 307 308 303 302 312 321 329 332 332
315 314 314 314 314 313 312 311 311 311 311 311 311 313 314 311 300 299 316 320 323 325 314 309 311 313 304 307 308 306 299 304 305 307 309 307 307 310 304 299 310 319 324 326 326
315 315 314 314 313 312 311 310 310 311 310 311 310 313 311 305 288 305 318 320 323 322 316 307 309 304 301 301 307 302 305 306 307 311 309 307 309 306 304 303 306 321 327 325 324
314 314 314 312 312 311 310 309 310 309 310 309 310 312 306 296 296 309 320 318 315 319 314 305 304 303 299 301 304 301 304 307 309 310 310 310 306 306 306 308 307 322 324 323 324
312 312 312 311 310 310 309 309 309 310 310 310 311 310 302 291 306 306 312 313 316 316 312 307 304 307 303 301 301 304 304 305 308 308 308 305 306 307 305 305 308 313 318 320 322
312 312 311 310 310 310 310 309 309 310 310 309 311 305 299 296 306 306 312 312 316 315 310 311 306 305 302 300 304 303 299 301 301 304 303 306 301 300 306 304 303 304 305 306 310
311 311 311 310 310 309 308 308 309 309 309 309 309 303 293 305 304 304 310 310 314 316 314 313 310 304 301 303 301 297 297 292 299 302 303 303 294 303 307 301 301 302 301 303 304
312 311 310 311 310 309 309 309 308 308 308 308 301 297 290 307 300 303 306 305 310 313 315 315 309 301 300 296 291 294 288 291 294 302 301 299 294 301 304 301 300 301 301 303 302
311 312 311 310 310 310 311 310 308 307 305 306 303 292 296 294 301 302 306 309 306 308 307 306 302 294 294 294 286 288 288 292 292 298 299 296 295 300 300 298 299 300 300 300 300
309 310 311 311 311 311 307 300 294 291 296 292 292 292 295 299 306 305 308 302 304 304 292 301 293 289 290 293 292 292 290 290 293 298 297 296 295 299 299 295 295 297 297 298 299
309 308 310 311 311 311 303 294 296 295 288 297 296 295 298 301 296 302 306 293 298 292 294 294 290 293 296 297 293 292 290 289 292 297 296 295 294 298 298 296 296 297 297 298 297
308 308 309 310 311 303 298 298 304 303 291 294 297 296 298 301 296 297 302 296 296 292 291 290 293 297 296 293 292 288 288 288 289 293 293 291 288 292 296 295 297 297 298 298 298
308 308 308 309 302 298 296 303 303 303 284 288 293 296 299 299 293 303 304 300 296 293 294 292 298 295 294 292 292 285 291 291 291 288 284 290 281 286 293 294 295 296 293 295 295
308 308 309 308 297 297 300 303 301 297 274 290 294 303 299 294 295 297 305 300 293 293 292 289 294 294 292 292 293 289 293 291 290 287 286 285 281 285 288 287 291 291 291 292 294
307 307 308 304 302 302 302 301 300 278 273 286 292 289 290 294 294 298 299 301 301 294 295 293 297 294 293 295 295 294 291 289 287 284 277 284 282 282 285 287 287 289 291 292 295
307 308 306 305 297 303 302 297 278 275 288 288 291 288 289 288 292 293 292 291 290 284 286 290 290 294 294 291 296 291 285 275 277 274 276 283 281 286 288 289 290 291 291 294 295
307 308 306 305 302 302 300 289 274 285 287 295 294 293 288 292 292 292 291 289 292 288 288 283 283 291 292 290 288 287 285 277 273 273 275 281 279 283 289 290 292 295 294 294 295
306 299 300 303 303 301 293 274 277 280 288 291 291 288 289 292 292 291 290 290 293 290 285 281 282 292 293 293 292 288 285 286 278 276 272 278 281 287 288 288 291 292 293 294 296
295 295 297 304 302 298 284 280 282 291 293 292 285 287 285 289 290 290 290 293 292 293 292 287 282 290 292 295 293 290 291 282 278 271 272 276 277 280 283 288 291 292 293 295 298
295 292 299 304 301 293 277 280 290 296 295 291 288 286 286 286 288 287 288 293 295 293 293 290 285 286 291 290 289 287 285 285 285 281 274 273 277 284 285 289 291 293 294 295 297
291 288 300 302 292 286 281 290 296 294 295 293 291 290 286 287 286 285 286 290 297 295 290 290 288 283 287 294 296 292 287 288 283 277 276 275 278 287 288 289 292 292 293 294 299
291 290 299 300 282 284 289 293 294 293 292 292 290 292 290 287 285 287 288 293 296 294 291 291 284 278 282 287 291 290 290 289 287 283 276 274 277 289 286 289 291 292 293 297 297
290 288 292 297 294 289 288 289 290 295 293 293 291 291 289 286 289 286 287 292 293 293 298 295 286 280 278 281 287 285 288 289 286 277 281 279 281 286 288 289 291 293 295 297 296
288 289 292 288 291 291 292 292 291 291 293 293 290 290 288 284 285 285 288 289 292 295 292 289 280 280 284 287 285 285 287 288 285 288 284 286 286 289 290 291 292 295 296 295 294
284 287 289 288 290 289 291 291 292 292 291 290 291 292 290 288 287 285 288 286 286 288 287 288 278 280 277 285 284 282 285 288 289 289 288 285 284 291 292 290 294 295 295 294 294
285 287 288 289 286 290 290 291 292 291 293 294 295 291 289 290 292 292 290 290 289 288 286 286 280 275 273 282 282 278 283 285 286 288 288 283 289 290 289 292 294 294 295 294 293

GFSSW_sfc_thetae_045.txt.gz
Theta_e
316 316 316 316 316 315 315 315 314 313 313 313 314 315 315 316 317 313 305 310 316 326 326 312 311 315 317 314 314 313 300 295 297 299 302 307 305 309 311 303 313 322 320 326 330
315 316 315 315 315 314 313 313 313 312 312 312 313 314 314 315 308 304 313 318 323 326 312 307 304 313 311 309 311 306 299 298 303 304 304 307 306 306 305 306 309 317 327 330 331
314 314 314 314 314 313 313 311 311 311 311 311 312 313 314 311 300 299 315 320 320 323 316 308 307 312 307 309 306 306 298 303 304 307 308 306 307 309 304 301 304 307 323 326 326
313 313 313 312 312 312 311 311 311 310 310 310 311 313 312 307 288 305 316 320 321 317 315 307 307 304 303 303 308 301 304 305 308 309 308 306 309 307 305 303 309 309 322 325 325
313 312 312 311 311 311 311 310 311 310 311 310 310 312 306 297 296 308 314 311 316 314 311 303 303 305 299 300 303 301 304 307 310 310 309 310 307 307 306 310 310 308 324 323 325
312 313 311 311 310 310 311 310 310 310 310 310 310 310 301 291 305 307 305 311 312 312 311 305 304 308 302 300 301 303 305 306 308 307 308 306 305 307 307 308 307 321 320 319 322
313 311 312 311 310 310 309 310 309 310 310 310 308 304 298 296 306 305 307 312 312 313 310 309 308 304 302 299 303 303 301 304 305 306 306 308 302 302 308 310 305 303 317 320 320
313 312 311 311 311 310 310 309 309 309 309 308 309 304 293 305 305 304 308 311 316 316 314 314 309 304 300 301 300 296 299 293 301 304 305 303 294 304 308 305 303 301 301 305 308
310 312 312 311 311 311 311 310 309 309 309 308 299 296 289 306 301 303 303 306 311 313 314 314 308 300 298 294 290 291 287 290 294 303 302 300 294 302 307 305 301 300 300 302 302
310 309 310 312 311 311 312 309 309 307 305 306 302 290 294 293 300 304 306 307 306 307 307 305 301 293 292 291 285 287 285 290 291 298 300 298 295 301 304 304 300 300 300 300 302
310 308 309 310 311 311 305 298 293 290 295 290 291 291 294 298 305 305 305 303 303 303 293 301 292 289 289 291 290 291 288 288 292 298 297 297 295 298 303 302 295 296 298 299 299
310 308 308 309 310 311 300 292 296 294 287 296 295 295 297 301 296 300 302 296 297 291 293 292 289 293 296 296 292 291 288 287 292 297 297 295 294 299 300 300 298 296 295 297 297
309 308 308 309 310 302 297 297 303 301 291 293 297 295 297 300 295 296 299 295 294 291 291 288 293 296 295 293 291 287 287 286 288 293 293 292 290 294 298 297 299 297 296 296 297
308 308 307 309 301 297 295 302 302 301 281 288 292 295 299 298 293 303 302 297 296 290 291 289 297 294 292 292 291 284 290 290 290 288 284 292 282 287 294 295 295 298 295 296 295
308 307 307 308 296 296 299 302 300 297 274 290 293 302 298 295 295 296 305 299 293 292 293 288 292 291 290 291 293 289 291 289 289 285 285 285 282 286 288 288 293 294 294 294 293
307 307 308 303 304 301 301 300 300 276 270 285 292 290 290 294 294 298 298 302 300 294 295 293 296 295 292 294 294 293 290 288 286 283 278 284 283 282 286 287 289 291 291 292 292
307 308 306 304 296 303 302 296 278 272 287 286 287 289 289 289 291 293 291 291 288 284 285 290 291 295 294 291 292 292 285 281 277 274 275 282 281 287 289 289 289 290 290 290 293
308 308 306 304 302 301 299 287 271 283 287 294 290 289 287 290 289 289 289 288 292 289 287 285 282 290 292 289 287 286 285 277 274 273 275 281 279 284 289 291 292 292 291 291 293
305 298 299 302 302 301 292 271 276 278 287 290 289 286 288 291 289 289 288 289 292 291 285 281 284 293 292 294 291 288 281 284 277 274 272 277 281 286 288 289 289 291 291 291 294
294 294 296 303 304 300 284 280 281 289 291 291 285 288 286 288 288 289 288 292 292 293 292 286 282 291 293 294 293 288 289 280 276 269 271 275 276 280 284 287 289 290 291 292 295
294 292 298 302 303 294 276 279 288 294 294 289 286 285 286 288 290 288 289 293 296 292 292 288 284 286 292 290 287 286 284 283 283 278 273 273 277 283 284 286 289 291 293 294 296
290 286 299 301 293 290 279 288 295 293 294 292 290 289 285 287 286 286 287 289 297 294 288 289 286 282 287 294 295 291 286 285 278 275 275 274 277 286 286 286 291 292 294 296 298
290 289 299 301 281 283 288 292 293 292 291 290 289 290 289 285 284 285 287 293 297 294 290 290 282 281 283 289 292 289 289 287 285 281 276 275 279 288 286 285 290 292 293 295 297
289 283 289 297 292 287 287 288 289 294 292 292 290 290 287 285 288 285 286 291 294 295 298 295 285 280 277 280 287 286 289 289 285 278 281 281 283 286 287 286 289 291 293 296 296
287 286 288 282 289 290 289 291 290 290 292 292 289 289 287 283 284 285 287 288 291 295 291 290 283 281 284 287 285 284 287 289 285 287 281 287 283 288 288 288 289 290 293 294 294
283 284 287 286 289 290 291 290 291 292 290 289 290 290 289 286 285 285 287 285 286 287 287 287 278 280 276 284 284 282 285 287 288 289 288 287 286 291 292 290 291 293 295 294 294
284 286 287 286 286 289 286 290 289 292 293 294 294 290 288 289 290 290 290 289 289 287 285 284 279 275 273 281 281 277 282 284 286 290 289 284 291 289 289 290 293 292 294 294 294

GFSSW_sfc_thetae_048.txt.gz
Theta_e
314 316 316 315 315 315 314 314 314 313 313 313 313 314 315 316 316 312 306 310 316 325 325 313 311 316 318 313 314 313 300 296 296 299 301 306 303 307 309 304 305 323 320 325 330
314 313 313 313 313 314 314 313 313 312 312 312 312 313 314 314 309 306 314 318 322 324 314 308 304 313 311 309 311 305 299 298 302 304 303 306 305 305 304 304 305 308 319 327 330
314 313 313 312 312 312 312 312 312 312 311 311 311 312 312 312 300 300 315 321 320 320 315 310 307 309 305 309 307 306 299 302 304 306 308 306 306 307 304 301 301 305 308 320 324
313 313 313 312 311 312 312 311 311 311 311 310 311 313 313 307 287 307 314 318 320 317 314 307 304 300 301 300 308 300 305 305 306 309 307 305 309 305 305 305 309 309 310 319 324
313 312 312 312 311 311 311 311 311 311 311 311 310 311 306 297 297 308 314 310 311 313 310 306 301 299 298 303 304 302 303 306 308 308 309 309 306 306 305 309 309 308 313 315 325
314 312 311 311 311 311 310 310 311 311 311 310 310 309 302 291 306 308 307 309 310 311 309 307 302 304 301 303 303 305 304 306 308 308 308 305 305 307 307 309 308 309 307 320 321
313 313 312 311 311 311 311 310 310 310 310 310 309 305 299 296 306 306 305 310 312 310 308 307 307 303 301 300 304 304 301 304 305 306 305 307 301 301 308 309 306 306 306 309 320
310 311 312 313 311 311 311 312 309 309 310 309 309 302 293 305 304 305 305 310 313 313 313 313 310 304 299 301 299 298 300 295 302 304 306 303 295 303 309 306 304 304 303 302 307
311 309 310 311 312 311 312 312 309 308 309 308 298 295 288 306 301 304 304 307 312 312 314 315 308 301 298 294 289 291 286 291 296 303 303 299 294 302 308 307 304 303 301 301 302
311 310 308 310 311 311 312 310 309 306 304 304 302 289 293 292 299 303 307 308 306 306 304 305 302 294 291 291 284 286 284 288 291 299 301 297 295 300 304 305 304 302 300 299 301
310 310 308 309 309 311 305 297 292 289 293 289 291 290 293 298 306 302 303 304 305 301 291 297 292 289 289 290 289 289 287 287 291 299 297 297 296 298 302 303 303 303 297 298 300
309 309 308 308 309 310 299 292 294 293 286 295 294 294 297 301 294 299 302 297 297 291 290 290 287 292 295 294 291 290 287 286 291 297 297 296 296 297 300 301 303 304 299 297 297
310 309 307 308 308 302 295 295 302 300 289 292 295 295 297 299 294 296 298 296 292 289 286 289 291 296 295 293 289 286 286 286 288 292 293 293 291 294 297 299 301 302 299 296 297
309 308 307 308 301 296 294 301 301 300 283 287 291 294 298 297 292 302 301 298 295 288 290 290 296 293 292 291 290 285 290 290 289 288 283 290 281 288 296 296 297 300 301 297 296
308 308 306 308 296 295 298 301 299 295 274 289 292 301 298 294 293 296 302 299 290 291 291 287 293 291 290 292 294 288 291 289 288 284 284 283 282 287 289 290 297 300 300 297 297
307 307 307 304 304 300 300 300 299 276 273 285 291 290 289 293 293 297 297 302 300 294 294 293 297 293 292 293 293 292 288 287 286 283 276 282 283 284 285 289 288 294 297 297 294
307 308 306 303 295 301 302 295 278 273 287 285 287 289 288 288 290 292 291 289 288 284 285 290 291 293 293 290 291 289 284 275 274 273 274 280 280 286 289 290 290 292 293 293 291
307 307 306 302 300 300 297 284 271 282 286 291 289 289 285 289 289 289 288 287 292 290 285 285 281 290 292 288 286 286 285 277 273 273 275 280 278 283 290 291 291 293 292 292 291
304 297 298 303 303 302 291 271 274 276 288 290 289 286 285 289 288 288 287 288 291 291 285 284 284 293 292 292 290 286 280 283 276 273 271 277 280 285 287 289 289 290 290 290 293
294 294 295 302 304 299 287 280 281 288 291 291 286 288 284 287 285 286 286 292 292 292 290 285 283 291 293 293 292 287 289 283 277 269 271 274 275 279 284 287 288 289 290 291 294
293 294 297 303 303 293 276 281 287 293 293 289 287 286 288 287 288 287 285 291 293 291 290 287 285 287 292 288 286 286 282 282 282 277 272 272 277 282 284 285 286 288 290 291 294
290 289 298 303 292 290 278 286 295 292 293 291 290 289 287 289 287 284 285 288 295 294 288 289 285 283 287 293 292 287 284 284 277 275 275 274 277 286 285 286 286 288 291 293 296
288 291 301 301 286 282 286 290 292 291 290 290 288 289 288 285 284 286 286 291 295 292 289 290 284 280 281 288 290 289 289 286 284 280 275 274 279 286 285 286 288 289 291 294 296
287 282 290 297 294 285 284 287 288 292 291 291 289 289 287 285 287 284 286 293 296 295 298 294 284 280 277 279 285 284 288 289 286 282 283 282 283 287 288 288 287 289 291 292 294
286 285 286 280 286 286 287 289 288 289 291 291 289 288 286 282 283 283 286 288 293 297 293 290 279 279 283 285 285 284 284 288 286 287 283 287 286 290 291 291 289 289 290 292 293
283 283 286 284 286 284 287 288 288 291 290 288 289 289 288 285 284 284 286 284 285 286 288 288 280 280 278 284 284 282 284 286 288 288 288 288 287 293 291 289 288 288 290 292 293
283 285 285 283 283 288 284 287 286 288 292 295 294 290 288 289 290 289 289 288 287 287 285 284 279 275 273 280 280 277 282 284 285 288 288 285 290 291 290 291 290 290 290 293 294

GFSSW_sfc_thetae_051.txt.gz
Theta_e
315 315 314 314 313 313 314 314 314 313 313 314 313 313 314 314 315 311 306 312 316 322 323 316 314 319 318 313 315 314 300 296 298 300 302 307 305 309 311 308 316 320 317 327 332
314 315 313 313 312 313 312 312 313 313 313 313 313 313 313 314 308 305 314 319 322 322 314 310 307 315 311 311 311 306 297 299 304 305 304 306 306 307 307 304 305 310 313 317 331
314 313 313 313 312 312 312 313 312 312 312 312 312 312 312 311 300 299 316 319 321 320 315 312 310 310 306 309 308 306 299 304 305 307 309 307 307 309 306 304 306 307 308 314 327
315 314 311 313 312 312 313 312 312 312 312 312 312 314 313 306 287 307 316 316 320 317 314 308 306 304 301 302 307 301 304 305 307 309 307 305 309 306 307 308 311 310 310 314 321
314 315 313 311 312 311 311 312 311 312 311 312 311 311 305 297 296 308 312 311 308 310 309 306 302 301 299 302 305 302 304 307 308 308 309 309 306 306 307 311 311 311 311 312 319
311 312 313 312 310 311 311 311 311 311 311 310 309 310 302 291 306 308 307 306 306 309 308 308 303 303 301 302 302 304 305 304 307 307 308 306 306 307 307 310 310 310 310 309 316
314 310 311 312 313 311 311 312 310 309 310 310 310 306 299 296 306 306 306 304 309 311 307 310 308 304 303 300 306 305 301 304 305 306 305 307 302 302 308 310 308 308 309 308 308
312 312 309 311 311 312 311 312 311 309 310 308 309 301 293 304 307 306 306 304 311 313 313 312 311 305 303 304 302 300 301 294 302 305 306 304 295 304 308 308 307 307 308 307 308
312 311 309 309 311 311 312 312 310 308 309 308 299 296 289 305 302 304 305 306 310 311 313 312 309 303 301 296 294 296 291 293 298 305 303 301 296 303 308 307 306 307 306 305 306
311 311 310 309 310 310 312 310 309 305 304 304 302 290 293 292 299 303 307 309 305 306 305 305 302 295 294 293 285 289 289 292 294 300 301 298 296 301 305 306 306 308 307 305 305
310 310 310 308 309 310 305 296 292 289 294 290 291 290 293 299 305 302 303 304 305 301 294 298 293 289 292 292 292 291 290 290 294 302 299 297 297 299 303 304 305 308 307 308 305
310 310 310 307 308 309 299 291 293 293 286 295 294 294 297 301 294 299 303 296 297 290 293 290 288 293 296 294 292 291 289 290 293 300 299 297 296 300 301 303 305 307 308 308 306
310 309 309 307 309 302 295 294 302 300 288 292 295 295 297 299 294 296 299 296 293 289 289 289 291 296 296 292 290 289 288 288 290 296 296 296 293 297 299 301 304 307 308 308 303
309 308 308 307 300 296 294 300 301 300 282 287 290 294 298 297 292 301 302 298 293 288 289 289 296 295 294 292 291 287 292 291 291 291 286 294 284 290 297 298 300 302 305 306 300
308 307 307 307 295 294 297 301 300 294 272 289 292 300 298 293 293 294 302 299 290 290 290 287 293 293 292 292 293 289 292 290 290 287 287 287 286 289 293 294 297 300 302 304 302
307 307 307 305 303 299 300 298 299 276 272 285 291 289 290 292 293 297 296 302 300 292 292 292 297 295 293 295 293 292 289 289 288 287 282 284 286 286 288 291 294 299 302 303 305
307 309 306 302 295 301 300 294 279 271 287 284 286 288 288 288 290 291 291 291 288 284 285 290 292 293 294 291 293 290 286 281 280 278 279 282 282 288 292 292 293 294 296 298 299
307 306 305 302 300 301 298 285 274 281 286 290 288 288 286 288 288 289 289 288 292 290 286 285 282 290 292 291 289 288 286 279 274 275 279 282 280 286 292 293 293 293 294 294 295
305 297 301 303 303 302 292 272 273 280 290 287 287 283 283 288 287 287 287 288 291 291 284 285 284 293 292 293 291 288 286 285 277 276 276 280 282 287 289 290 291 292 293 293 294
294 293 295 302 304 299 287 280 283 288 292 290 285 286 280 285 283 285 285 291 291 293 291 287 283 292 293 293 292 289 289 282 279 272 273 277 278 282 286 288 289 290 291 293 294
293 294 297 304 303 294 280 282 287 292 293 290 288 287 286 284 284 284 284 291 294 292 290 288 286 287 292 289 286 287 284 284 284 280 276 275 279 285 287 288 288 289 290 292 295
291 291 299 303 292 290 282 285 294 291 293 292 291 290 289 290 286 283 285 289 295 293 288 289 286 284 287 293 293 289 286 285 280 277 277 277 280 289 287 288 288 289 292 294 296
287 294 301 301 286 281 285 289 291 290 289 289 288 290 290 288 284 286 287 292 295 292 289 290 283 281 283 288 290 290 289 287 284 281 276 278 281 288 288 289 290 292 293 294 297
287 283 293 297 295 287 285 286 287 292 290 290 288 289 286 285 286 285 286 294 295 295 297 293 284 280 278 280 285 284 287 288 285 278 281 282 285 289 292 291 292 292 294 294 296
285 283 286 287 287 284 286 287 287 288 290 292 288 288 285 283 283 283 286 290 294 297 292 289 280 281 283 285 286 285 286 288 286 287 283 287 286 290 292 293 294 293 292 292 294
284 284 285 282 284 284 286 286 287 288 290 288 288 288 287 285 284 283 286 286 288 290 292 289 280 281 279 284 285 283 285 285 288 288 287 288 287 295 296 294 291 291 290 291 293
282 284 284 281 282 286 283 285 285 288 291 294 293 289 288 288 289 289 288 288 288 287 285 286 283 280 277 281 281 279 283 284 285 288 289 285 290 295 293 293 293 293 291 291 293

GFSSW_sfc_thetae_054.txt.gz
Theta_e
316 314 314 313 313 313 313 313 314 314 314 314 314 313 313 314 315 312 307 313 317 322 323 320 318 321 320 318 318 316 303 299 301 301 303 310 308 311 314 316 317 316 315 320 335
317 315 313 314 313 313 314 314 313 313 313 312 313 313 313 314 308 305 313 321 321 322 316 314 311 317 311 313 314 308 301 302 307 308 307 308 309 309 310 311 312 314 317 324 334
315 316 314 312 313 312 313 313 313 313 313 313 312 314 312 313 302 301 313 316 321 321 316 315 314 312 307 309 311 308 303 307 308 310 311 308 309 311 309 308 312 311 314 318 330
312 314 315 313 311 312 312 313 312 313 312 313 313 314 312 308 289 308 316 317 317 318 314 310 310 306 304 302 309 302 308 307 307 311 309 307 310 308 309 311 315 314 316 319 318
315 311 312 314 312 311 312 312 312 312 312 311 311 312 308 299 298 310 312 313 310 312 309 307 305 305 301 305 307 303 304 307 308 309 310 310 307 307 309 313 315 315 316 316 320
314 313 310 312 313 313 311 312 312 311 311 311 311 309 303 292 307 309 308 308 308 308 308 309 306 307 303 304 304 307 307 305 307 308 307 307 308 308 309 313 313 313 314 316 314
314 313 311 309 311 313 312 312 313 310 311 310 310 306 300 296 308 308 307 305 307 309 306 310 310 306 306 303 308 307 303 305 305 306 304 307 303 304 311 313 311 312 313 314 315
313 312 311 309 310 312 312 312 312 309 310 310 309 304 295 305 308 307 307 305 307 310 312 313 312 308 306 308 305 302 302 296 304 306 307 305 297 306 311 310 310 312 313 313 314
312 311 311 309 309 311 311 312 312 310 309 310 303 300 293 307 301 304 307 305 308 310 312 313 310 304 305 299 297 299 293 295 298 306 305 303 299 306 309 309 309 311 312 313 313
312 311 311 309 308 310 310 311 309 307 306 306 304 295 297 294 300 304 308 309 305 306 305 304 303 298 299 296 288 291 293 296 296 301 303 301 301 304 308 308 309 311 312 313 312
312 310 310 309 307 310 309 305 300 296 298 293 294 293 295 302 306 302 305 305 305 302 295 298 292 292 295 297 296 297 295 295 297 303 300 300 301 304 306 308 308 309 310 312 313
310 309 309 309 307 309 307 298 296 299 290 297 297 297 299 303 295 299 306 294 297 292 295 291 288 297 299 298 297 296 294 295 298 302 301 299 299 304 305 306 307 308 309 312 314
310 309 309 308 307 306 302 298 306 303 293 294 297 297 299 301 295 296 301 294 295 292 291 289 292 299 297 296 293 295 293 294 294 300 301 299 297 300 304 306 308 309 310 312 314
309 308 308 306 303 304 300 304 306 304 288 287 292 296 299 300 293 302 303 295 294 291 291 290 297 296 295 294 295 290 297 297 295 294 289 299 287 296 300 302 304 307 308 310 313
308 308 307 306 303 300 301 306 306 301 278 290 292 302 300 295 295 296 303 299 291 291 293 288 293 294 294 295 297 293 297 296 295 293 292 292 290 293 298 298 301 305 307 309 311
308 308 307 306 305 304 306 305 303 285 277 286 292 291 292 294 294 297 298 302 300 294 294 292 298 297 296 297 297 297 295 295 295 293 285 291 290 291 294 296 299 304 307 309 310
308 308 306 306 301 307 306 301 285 282 288 284 286 290 290 289 291 291 292 291 289 286 286 291 292 296 299 293 296 296 293 284 283 283 283 289 288 292 297 299 298 299 302 306 309
307 307 306 305 306 306 303 290 282 285 285 290 289 290 286 289 289 290 290 288 293 292 287 286 283 292 296 295 292 292 292 286 278 280 284 287 285 292 297 297 298 299 300 302 301
307 306 305 304 305 305 295 286 285 286 290 288 289 284 286 289 288 288 289 290 292 293 287 286 285 295 296 296 296 292 288 290 285 283 285 287 289 295 296 297 297 297 298 300 301
304 303 302 305 306 302 292 286 288 291 292 290 284 287 284 287 285 287 288 293 292 295 296 291 285 293 294 297 296 294 295 287 288 280 278 283 285 288 292 295 296 297 297 298 300
303 298 303 306 306 296 286 287 290 294 295 290 289 287 288 286 287 286 287 293 296 294 295 294 291 288 294 292 291 291 290 290 290 287 282 281 285 294 294 295 295 297 297 299 300
302 294 304 305 294 293 288 291 295 295 296 295 293 291 290 289 286 288 288 292 298 297 291 293 292 285 288 295 296 294 292 293 286 284 286 285 286 294 295 295 295 298 299 300 301
298 296 304 302 290 291 292 292 295 294 293 293 292 293 294 291 287 289 291 296 298 296 293 294 289 282 284 289 293 292 292 292 291 289 285 283 287 294 294 295 296 298 300 301 302
298 290 295 298 297 291 291 292 292 296 294 294 292 294 291 289 291 289 291 295 297 297 297 297 290 287 285 287 291 288 291 292 291 287 287 287 289 293 295 297 300 301 303 302 302
295 293 294 289 292 292 293 292 291 291 295 296 293 292 291 288 289 289 291 293 295 297 295 294 287 287 288 289 290 290 290 292 288 290 287 290 290 294 297 298 299 301 301 300 300
293 293 293 291 290 292 291 290 291 292 294 293 291 292 292 290 289 289 291 291 292 295 294 293 287 287 284 287 288 287 290 290 291 292 291 291 290 297 299 300 299 300 300 300 300
292 293 294 286 289 291 289 288 289 292 295 296 295 294 293 293 296 296 295 295 295 294 291 291 288 286 282 284 285 282 286 288 290 292 292 288 293 297 296 297 298 299 300 300 301

GFSSW_sfc_thetae_057.txt.gz
Theta_e
316 317 316 314 314 313 315 315 314 314 314 314 314 314 314 314 313 311 305 312 316 320 323 319 319 317 319 319 320 317 302 299 301 301 304 311 309 312 317 317 319 319 319 324 337
314 316 317 315 313 313 313 314 314 314 313 313 313 314 314 314 309 305 314 317 321 321 316 314 312 315 310 313 314 310 302 303 308 308 307 310 310 311 312 314 315 316 322 334 336
316 313 314 316 313 312 312 313 313 313 313 314 313 314 313 313 303 302 317 317 319 319 317 316 314 312 303 309 310 308 303 307 307 310 312 309 310 312 311 310 314 312 318 331 331
315 315 312 313 315 312 312 312 313 313 313 312 312 313 313 310 290 309 316 317 317 317 315 312 310 306 304 301 308 304 308 308 310 311 309 308 312 310 311 312 316 316 318 324 330
315 315 313 311 313 314 312 312 313 312 312 312 312 311 310 300 299 312 311 313 314 312 310 308 306 306 301 303 302 303 306 309 310 310 311 311 308 307 309 315 315 315 317 317 326
315 314 312 311 310 312 313 312 313 313 310 311 311 311 305 294 308 309 309 309 312 309 308 309 307 309 303 303 301 304 307 308 309 309 310 307 308 308 310 314 313 314 314 316 317
315 313 312 311 310 311 313 313 312 313 310 311 310 308 301 297 308 309 308 306 311 309 303 310 312 307 306 302 307 303 299 305 306 307 305 306 301 304 311 313 311 313 314 315 316
314 313 312 311 310 309 312 312 313 312 309 311 310 305 295 306 310 307 308 307 309 310 308 311 312 307 305 306 304 301 302 295 303 305 306 304 296 305 310 310 310 312 313 314 315
312 312 312 311 310 309 311 311 312 311 310 310 306 301 293 308 302 306 307 304 307 308 309 311 311 305 305 299 296 299 292 295 299 306 305 303 298 305 309 310 309 311 312 313 315
312 311 310 310 309 308 310 311 310 310 307 306 304 297 298 296 300 303 307 306 305 304 301 303 302 299 299 297 288 292 292 295 296 302 304 301 300 305 309 309 309 310 311 312 314
311 310 310 309 309 308 309 307 301 298 299 294 295 294 296 303 307 303 306 305 304 301 294 295 293 292 296 298 297 296 294 294 298 303 301 300 300 303 307 308 308 309 310 311 313
310 310 309 309 308 308 308 300 299 301 292 298 297 297 300 304 296 299 305 293 297 293 296 292 288 297 299 298 296 295 294 294 299 303 301 300 300 304 306 308 308 308 310 311 313
309 309 308 308 307 307 304 300 307 305 294 295 298 297 299 302 295 297 301 295 295 294 293 290 292 299 297 296 294 295 294 294 295 300 301 299 296 299 305 308 308 309 310 312 312
308 308 308 308 301 306 301 305 308 306 288 289 293 297 300 300 294 301 302 296 294 291 293 291 296 296 296 294 296 291 298 297 296 295 290 299 288 297 301 303 305 307 309 309 311
308 308 308 307 304 301 304 308 307 303 279 291 292 303 300 295 296 296 304 298 293 293 293 289 292 294 294 295 297 293 298 297 297 294 293 293 290 293 299 298 302 306 307 310 311
307 308 308 305 306 306 308 307 304 285 277 287 292 292 292 295 295 297 298 302 300 296 293 293 299 298 296 298 298 299 296 295 295 293 286 291 290 290 294 297 299 303 307 309 311
307 308 306 307 301 308 307 302 286 282 288 285 287 291 291 290 291 293 293 292 290 286 285 289 290 297 300 295 298 297 293 285 283 284 283 291 290 293 298 300 300 300 303 305 309
306 307 306 307 310 308 304 292 283 286 286 292 290 291 287 291 290 291 290 288 294 293 288 286 282 293 299 295 292 293 292 286 278 281 284 290 286 291 299 300 301 301 303 304 305
307 307 306 306 308 308 297 286 286 288 291 289 290 287 287 290 290 291 289 290 293 295 288 287 286 295 298 298 297 292 290 293 287 288 286 288 291 296 299 298 299 299 300 301 303
305 304 304 307 308 304 293 288 290 293 294 292 286 288 285 288 288 290 290 293 292 296 297 292 286 294 296 298 297 295 297 287 289 280 279 285 286 289 293 296 298 299 300 302 302
305 299 305 309 308 298 289 291 292 296 294 291 288 287 289 288 289 288 289 294 296 295 297 296 291 290 294 293 291 292 290 292 292 288 283 281 285 295 295 297 297 299 301 302 303
304 294 305 308 294 297 291 294 296 296 298 295 294 292 290 290 288 289 289 293 299 298 292 295 292 286 289 295 297 296 293 293 286 285 287 286 286 297 298 298 298 300 302 304 304
298 298 305 305 290 292 295 295 296 295 295 294 293 294 295 292 288 292 293 297 299 297 294 296 290 283 284 291 295 292 294 294 293 291 287 284 287 297 297 297 299 299 302 304 304
300 291 297 299 298 294 294 293 293 298 296 296 294 296 294 292 294 291 292 296 299 298 297 298 291 288 284 288 292 288 291 293 291 286 286 287 289 294 297 298 300 301 303 304 304
300 296 298 290 294 296 296 295 292 292 297 297 294 294 292 290 291 290 293 295 297 297 297 296 289 288 290 292 292 292 291 292 289 290 287 289 291 295 298 299 300 302 302 302 303
296 295 297 297 297 296 293 294 293 294 295 293 293 294 294 291 291 290 293 293 292 296 295 296 287 289 287 289 290 288 291 292 293 293 292 293 292 299 300 301 299 300 300 300 301
298 299 298 292 295 295 294 293 293 296 297 298 296 295 294 295 297 298 297 298 296 294 294 293 290 287 284 286 286 283 288 290 291 293 292 288 293 296 297 298 299 300 301 301 301

GFSSW_sfc_thetae_060.txt.gz
Theta_e
318 315 316 317 315 314 314 315 315 315 315 314 314 314 315 315 314 310 304 309 314 321 321 317 316 316 316 315 318 316 301 297 299 301 303 309 307 311 315 314 315 316 318 327 337
316 317 315 315 316 314 313 313 315 314 314 314 314 314 315 314 308 304 313 318 321 321 314 311 309 312 308 311 313 308 300 300 306 306 305 308 308 309 311 311 310 315 329 334 336
316 316 316 314 314 315 313 313 313 314 314 313 313 314 314 313 302 302 317 318 319 318 315 314 313 311 304 308 309 308 300 305 307 310 311 308 308 311 309 308 310 309 322 330 333
316 316 315 314 312 313 315 313 313 313 313 313 313 313 313 309 290 308 317 317 317 316 312 311 309 305 302 301 308 302 307 308 309 312 310 308 310 308 310 309 313 313 319 329 329
316 316 315 313 312 311 312 314 313 314 312 312 312 313 308 300 299 311 311 314 314 313 307 307 306 304 300 301 306 303 305 309 311 311 310 311 308 307 308 312 313 314 316 319 329
315 315 314 313 312 311 311 313 314 313 313 311 312 311 304 293 308 309 309 309 310 310 306 307 306 308 303 303 302 302 304 305 308 308 310 307 307 307 308 312 312 312 312 313 315
314 314 313 313 312 311 310 313 313 313 312 311 312 307 300 297 307 308 308 306 309 309 304 307 308 305 304 301 306 303 299 302 305 306 306 306 301 302 308 311 309 310 310 312 313
314 313 313 312 312 311 309 311 312 313 312 310 312 305 295 307 308 306 308 306 308 311 308 308 309 306 304 306 302 296 297 291 302 306 305 304 294 304 308 305 307 308 309 310 312
312 312 312 311 311 310 309 311 311 312 312 311 305 302 293 308 301 305 306 302 305 307 307 308 307 304 304 297 294 296 287 288 296 305 303 300 295 302 306 307 305 307 309 310 311
311 312 311 310 310 310 308 311 311 310 309 306 303 295 299 296 302 303 307 306 302 303 301 298 299 297 297 294 286 289 290 291 292 300 301 297 296 302 305 305 305 307 308 309 309
312 311 310 310 310 309 307 306 300 297 300 294 294 294 296 303 306 302 306 302 303 300 288 293 290 289 292 296 296 295 293 291 295 301 298 297 298 300 303 305 304 305 307 308 309
310 310 309 309 309 307 307 300 300 301 292 298 297 297 299 303 296 300 305 295 294 290 292 289 287 294 298 298 296 294 292 292 298 302 299 297 296 300 302 303 304 305 306 308 310
309 309 308 308 307 305 303 302 308 305 294 295 297 297 298 302 295 296 300 295 292 290 290 288 293 298 296 295 293 293 291 293 294 299 300 296 294 297 302 305 305 306 307 307 309
309 308 308 308 302 304 301 306 309 307 287 289 293 297 300 300 293 301 301 296 295 290 293 291 295 294 294 293 294 289 296 297 296 293 287 296 282 294 299 300 303 304 303 304 305
308 307 308 308 302 300 304 308 308 303 277 290 292 302 300 295 296 296 304 299 293 292 293 288 291 291 293 294 296 292 298 296 296 292 289 291 284 287 299 296 299 303 303 304 306
307 308 308 304 305 306 308 308 303 284 275 286 292 292 292 295 294 298 297 301 301 294 295 293 299 297 296 297 298 297 294 294 292 289 279 286 286 286 290 293 296 298 303 305 305
307 308 306 307 301 309 307 301 285 280 288 285 287 291 291 289 291 294 292 292 289 282 285 289 291 297 299 293 296 294 289 279 278 276 277 288 285 288 293 296 296 295 298 299 299
307 307 306 307 309 308 304 292 281 285 286 291 290 291 288 291 290 292 289 288 293 291 287 285 281 292 299 294 291 291 290 282 276 275 279 287 280 287 295 296 297 297 297 298 298
307 306 305 306 308 308 297 285 285 287 290 288 290 286 287 290 290 291 289 289 292 294 286 286 285 295 297 298 295 290 285 290 283 283 279 283 287 292 295 294 294 294 295 295 297
305 303 302 307 309 303 293 288 289 294 293 291 285 288 285 287 288 289 289 293 292 296 296 290 285 293 296 298 296 293 293 283 283 274 275 281 282 283 289 291 294 294 295 296 297
304 298 303 309 307 297 288 290 293 296 295 291 289 287 288 287 289 288 289 292 295 295 295 294 290 289 293 291 289 290 288 289 288 283 279 276 279 289 290 293 293 294 296 296 297
304 293 305 308 294 295 291 294 295 295 297 295 294 292 290 290 288 288 289 292 298 296 292 295 290 284 288 295 296 294 291 290 281 280 282 280 281 292 293 294 293 294 295 297 299
298 296 305 304 290 290 295 295 296 295 295 294 293 294 295 290 287 291 292 297 299 297 293 295 288 280 282 289 293 290 292 292 291 288 281 277 280 293 292 291 294 294 295 297 299
298 289 295 299 297 292 292 292 292 298 295 296 295 296 294 291 293 290 291 297 298 298 298 296 290 284 279 283 288 285 289 291 288 280 283 283 284 288 291 291 294 295 296 297 298
299 294 295 288 291 294 296 294 292 291 297 297 293 294 292 289 290 289 292 294 297 297 295 294 286 284 288 291 290 289 288 289 285 287 281 286 287 290 293 293 294 295 297 297 297
295 294 296 295 296 294 294 293 293 294 295 292 292 294 293 290 291 289 291 292 289 293 292 293 284 284 281 288 288 284 289 291 291 291 290 289 289 293 294 295 295 295 296 297 297
297 299 296 295 294 293 293 293 294 296 296 297 296 294 292 293 294 295 295 296 295 293 291 290 284 281 279 284 283 278 285 288 289 290 289 286 288 293 292 294 294 294 296 296 297

GFSSW_sfc_thetae_063.txt.gz
Theta_e
317 317 318 316 316 316 315 314 314 315 315 314 315 315 315 315 315 310 303 308 310 318 321 315 316 314 315 312 316 313 300 294 295 297 302 307 306 309 312 311 317 317 320 330 336
317 317 317 316 315 315 316 314 313 314 315 314 314 314 314 315 307 304 313 319 319 319 312 309 308 310 306 308 311 306 299 297 302 304 304 306 306 307 308 309 316 324 331 334 335
317 317 317 316 314 314 313 315 314 313 314 313 313 314 314 313 302 301 316 316 319 317 314 312 311 309 303 307 307 306 300 304 306 310 308 306 305 310 308 306 308 320 325 331 329
317 317 317 315 314 313 312 312 315 313 315 313 312 313 314 308 288 307 316 317 317 315 312 308 307 303 301 300 307 301 306 306 310 311 308 306 309 306 308 307 312 321 328 330 329
317 316 316 315 313 313 312 312 314 314 313 314 312 313 307 299 299 311 312 314 314 313 306 304 302 302 298 300 304 302 305 308 310 311 308 309 306 305 306 310 312 317 327 327 329
316 315 314 314 313 313 311 311 314 314 313 313 311 312 303 292 307 311 309 308 310 309 305 304 303 306 301 300 302 304 305 307 309 309 309 306 304 306 306 310 310 311 312 321 328
316 315 313 313 313 313 311 310 312 313 313 312 310 307 299 295 306 308 307 306 309 308 304 306 307 303 304 301 305 304 300 302 306 307 306 306 300 301 305 308 308 309 310 311 318
315 313 313 312 312 312 311 309 311 312 313 312 310 304 293 307 305 305 307 306 308 310 308 308 308 304 303 305 302 299 298 292 300 303 306 303 295 303 306 303 304 306 306 309 311
314 312 313 311 311 310 310 309 310 312 312 312 303 299 292 308 301 303 304 302 305 307 307 307 303 301 303 297 293 294 287 290 292 302 303 301 295 303 306 305 303 304 306 308 309
311 312 311 311 310 310 309 310 310 310 307 308 303 292 297 296 301 304 306 305 302 302 299 299 296 295 296 293 285 288 285 290 290 299 300 298 296 299 302 303 302 303 305 306 307
311 310 310 310 309 308 305 302 297 294 298 292 293 293 296 303 306 302 305 302 302 299 289 293 288 286 289 293 294 294 290 289 294 300 298 297 297 298 300 300 300 301 303 305 307
311 309 309 308 308 307 304 297 297 298 291 297 297 296 299 303 296 299 304 294 295 290 292 289 286 292 296 295 295 294 291 290 295 298 298 296 295 298 300 300 301 303 303 304 306
309 308 308 307 307 302 299 300 305 302 291 295 298 297 298 301 295 296 300 296 292 289 289 287 291 296 295 293 293 291 290 292 293 298 299 296 292 295 300 301 303 304 304 305 306
308 307 307 307 300 300 300 305 305 302 284 287 293 296 299 299 293 302 302 296 294 287 291 291 296 295 293 293 294 287 294 296 296 293 288 295 282 290 297 298 301 301 301 303 303
308 307 307 308 298 300 302 305 303 298 267 288 292 302 300 295 295 297 304 298 291 291 292 288 292 292 292 294 296 292 295 296 295 292 290 291 283 286 294 294 298 301 301 302 304
307 308 309 303 303 305 304 302 299 281 265 280 293 292 292 295 294 298 297 301 301 294 294 293 298 297 295 297 297 296 293 292 293 290 280 287 284 283 289 293 295 298 301 302 303
307 309 306 306 300 304 303 297 284 269 287 282 287 291 290 289 292 293 292 290 289 283 284 289 289 297 298 291 295 292 286 280 279 276 278 286 283 285 290 292 294 294 295 297 297
308 308 306 307 305 303 299 291 272 284 281 290 290 290 287 290 290 290 288 285 293 291 286 284 281 292 297 293 288 288 286 279 276 274 277 285 280 285 290 294 296 294 294 295 296
308 301 303 302 305 303 296 284 283 283 288 288 289 284 285 289 289 289 288 289 292 293 285 285 285 295 296 296 293 288 281 287 281 280 276 281 285 289 290 291 292 294 294 294 295
299 299 301 304 304 299 291 287 288 292 292 290 283 286 282 285 285 287 287 291 291 295 293 290 284 292 295 296 295 291 291 282 279 272 274 279 280 282 286 289 292 293 294 295 297
299 296 302 305 302 296 286 288 292 295 294 290 285 285 285 284 287 287 287 290 293 294 293 291 288 288 291 290 288 288 287 288 286 282 277 274 278 287 289 292 291 293 294 294 295
297 289 303 302 292 293 288 293 296 294 297 293 291 290 288 287 286 287 289 289 295 294 289 292 288 284 287 294 295 292 289 289 280 280 280 277 279 290 291 292 293 293 294 294 296
294 294 304 302 284 287 293 294 297 294 295 293 291 292 292 288 284 291 291 296 299 295 290 292 287 281 282 287 291 289 291 291 290 286 280 276 280 290 290 290 292 292 294 295 296
293 287 295 297 295 290 289 290 291 298 296 296 293 293 292 288 290 289 290 296 298 295 299 295 287 281 278 283 287 285 289 290 287 279 283 283 283 287 290 291 292 293 294 294 295
294 288 291 286 286 290 294 292 290 290 294 294 291 292 290 286 289 289 291 294 295 297 294 292 282 281 287 290 289 288 287 288 285 286 281 284 285 288 289 290 292 292 294 295 295
292 290 290 288 291 291 292 292 291 293 292 291 291 292 291 288 289 287 290 291 291 291 290 291 281 283 279 287 287 284 287 288 288 288 288 287 287 292 292 292 293 292 294 294 295
293 293 292 290 289 288 288 291 292 293 294 295 295 292 290 291 291 292 293 292 293 290 289 288 282 278 275 283 282 278 284 286 288 289 290 286 287 290 290 292 291 291 291 292 293

GFSSW_sfc_thetae_066.txt.gz
Theta_e
318 318 318 317 316 315 315 316 315 313 315 315 314 314 315 315 315 309 303 308 310 318 316 309 311 313 313 310 312 314 299 293 295 294 300 305 304 309 312 313 320 317 322 327 334
318 318 317 318 316 314 314 314 316 314 314 314 313 314 314 315 307 303 312 319 321 317 308 305 305 309 304 306 309 306 298 296 300 301 300 305 305 307 308 313 319 325 330 332 332
318 318 317 317 316 314 314 313 313 316 313 315 313 313 313 312 301 300 316 318 317 317 312 310 309 308 302 304 306 306 299 303 304 308 307 304 304 310 307 305 312 320 326 330 331
318 317 317 316 316 314 313 313 312 315 314 314 313 312 313 307 286 306 314 317 317 315 310 307 306 302 300 297 306 299 306 306 308 310 307 304 307 307 307 306 316 325 329 330 329
318 317 316 314 314 313 313 311 312 314 314 313 313 312 306 298 298 310 312 311 314 311 305 302 302 302 298 300 302 301 303 307 309 310 308 308 305 304 304 308 318 327 327 328 329
317 316 315 313 314 314 313 310 311 313 313 313 311 311 301 291 305 311 309 308 309 307 305 303 303 305 301 300 297 304 306 306 308 308 308 305 303 305 305 308 314 320 323 325 326
316 316 314 313 312 312 313 310 310 311 313 313 311 307 298 294 304 307 307 305 308 308 303 306 306 302 303 298 305 305 300 303 306 306 306 307 301 301 305 307 308 309 312 321 325
316 314 312 313 312 311 310 310 310 310 312 312 310 303 292 305 304 304 304 305 308 310 308 309 307 302 302 303 302 298 298 292 297 305 306 304 296 302 304 304 304 305 306 309 318
315 312 312 312 311 311 310 310 310 310 312 312 302 298 291 307 300 303 303 301 305 306 307 308 304 299 302 297 294 295 286 291 291 301 303 300 297 302 304 304 302 303 304 306 307
313 310 311 310 310 309 309 309 310 309 306 307 304 291 295 294 300 303 305 304 301 302 299 299 297 293 295 294 285 287 287 289 288 298 299 298 297 301 301 303 301 302 303 305 306
312 311 309 309 309 308 304 300 296 293 296 292 292 292 295 302 306 302 305 301 300 297 289 294 289 287 290 294 292 292 290 289 294 300 298 297 297 299 300 297 298 299 301 304 305
311 310 308 308 307 307 302 295 296 297 289 297 295 295 297 302 295 299 303 296 294 289 291 289 286 292 294 295 294 293 290 290 295 299 297 296 295 298 299 299 299 299 300 302 304
310 309 308 307 307 301 298 299 303 301 289 294 297 295 297 299 294 296 299 296 292 289 289 286 288 294 293 293 293 292 290 290 290 296 299 296 293 295 299 300 301 302 302 303 304
310 309 307 307 300 299 297 304 303 301 277 284 292 296 298 299 293 302 302 297 292 289 291 291 295 292 292 292 292 288 294 295 293 292 286 296 282 289 296 297 299 300 300 301 302
309 308 307 308 298 297 301 303 301 295 265 286 290 301 300 295 295 297 303 298 290 290 292 288 292 291 290 292 294 291 296 295 295 291 290 290 284 285 291 292 297 299 299 301 302
309 308 308 305 300 303 303 301 298 276 265 279 292 290 292 294 294 296 297 301 300 292 293 293 298 294 294 296 296 296 292 291 292 290 283 288 284 282 287 292 294 298 299 301 302
308 308 306 304 297 303 301 296 276 268 284 280 286 290 289 289 292 292 291 290 287 283 284 289 290 296 298 291 296 294 288 281 280 280 279 287 283 284 289 291 294 294 293 293 295
309 309 306 305 303 302 297 287 268 280 279 289 289 288 285 289 289 290 287 287 293 290 285 284 282 291 296 292 290 290 287 280 276 276 279 285 280 284 289 291 291 292 291 293 294
309 300 300 301 304 301 290 276 277 279 287 287 288 283 283 288 288 287 287 289 292 292 285 283 285 295 295 295 294 289 285 289 281 280 277 280 283 287 289 290 292 293 293 293 294
300 298 298 303 303 297 287 285 285 289 291 289 282 285 280 284 285 286 286 291 291 293 293 288 283 292 294 294 293 289 290 282 282 273 275 278 279 282 285 288 291 291 292 293 294
299 293 300 303 301 292 281 287 290 294 293 288 284 283 284 284 286 286 285 291 292 293 293 289 285 287 289 288 286 287 285 286 284 281 276 274 278 284 287 290 290 291 293 293 295
297 287 300 302 290 292 288 292 296 292 294 291 290 288 286 285 285 285 287 288 293 293 288 290 287 282 283 291 294 292 288 285 277 277 278 275 278 288 289 290 291 290 292 294 296
293 294 302 301 286 286 293 294 295 293 293 292 289 291 290 287 285 290 290 294 296 293 288 290 284 274 280 285 290 289 290 291 288 285 281 276 279 289 289 290 292 291 292 294 295
292 287 294 296 294 290 290 291 292 296 294 295 292 292 289 287 289 289 290 296 297 293 299 295 285 280 276 280 286 284 288 289 286 279 281 282 283 287 289 291 291 292 292 293 294
292 286 291 286 288 287 289 291 290 289 293 293 290 291 288 284 286 287 292 293 294 296 293 290 281 280 285 287 287 286 287 288 284 286 283 285 285 286 288 290 291 292 293 293 294
291 288 289 286 289 287 290 289 289 291 290 289 289 290 289 287 286 285 291 289 287 290 289 289 279 282 278 286 285 284 286 287 287 287 286 287 285 289 290 292 292 290 291 290 291
294 292 291 288 286 287 289 292 291 292 292 293 293 290 289 289 290 291 291 291 291 289 287 286 281 277 276 281 281 278 282 285 287 287 287 285 288 289 289 289 289 287 287 287 289

GFSSW_sfc_thetae_069.txt.gz
Theta_e
319 319 319 318 318 317 315 315 314 316 315 314 315 314 314 315 314 307 302 307 310 318 318 310 308 309 311 309 310 312 298 294 294 294 296 303 303 308 313 313 318 317 321 324 326
319 319 319 318 318 317 315 315 314 314 316 314 315 313 313 314 306 302 310 318 320 320 309 303 301 305 301 304 306 302 295 296 301 298 298 303 303 308 311 315 317 323 327 330 330
320 319 319 317 317 316 315 314 313 313 315 314 315 313 312 311 300 299 315 316 317 317 310 307 306 303 298 303 302 302 296 302 303 306 308 304 304 309 310 307 313 317 320 327 328
320 319 318 317 315 315 314 313 312 312 315 314 314 313 313 306 283 304 314 314 315 315 309 305 303 297 297 296 302 298 303 305 305 309 306 303 307 306 307 309 314 323 326 326 325
320 319 318 317 315 314 314 314 312 311 314 313 313 311 305 297 297 308 313 310 312 311 304 301 299 299 296 297 300 299 301 306 308 309 308 308 305 304 304 310 324 327 328 326 324
320 318 317 315 313 313 313 313 311 311 313 313 312 310 300 289 303 307 308 306 307 306 304 302 300 303 300 299 297 302 301 305 307 308 308 304 302 304 305 310 322 324 323 326 327
320 318 316 314 313 312 311 311 311 310 311 313 312 306 297 293 302 305 305 304 306 307 302 303 304 301 302 298 301 302 297 303 305 306 305 306 300 301 304 311 314 320 321 324 327
319 317 314 312 313 312 311 310 310 310 311 312 311 302 291 304 302 303 303 302 306 309 307 307 307 301 301 303 299 295 293 293 298 303 306 304 294 301 304 305 304 306 309 318 323
318 315 313 312 312 311 310 310 310 310 310 312 301 296 290 306 299 301 302 300 304 306 307 307 304 298 300 294 292 292 285 290 293 301 301 300 296 301 303 304 302 303 304 307 310
318 313 312 311 310 309 308 309 309 308 306 307 303 291 294 293 299 302 304 304 300 301 299 299 297 293 293 293 284 286 285 290 291 297 299 296 295 300 302 301 301 302 304 303 306
316 312 312 310 309 308 303 299 295 292 295 291 292 291 294 301 304 300 304 299 300 297 289 294 290 284 291 291 292 291 289 289 293 299 296 295 297 299 302 299 299 300 300 303 305
314 312 311 309 308 307 301 294 295 296 288 296 295 294 297 300 294 299 302 295 293 288 292 289 287 291 293 293 293 292 289 289 295 299 296 295 295 300 302 300 299 299 300 300 302
313 312 310 308 307 302 297 298 302 300 288 293 295 294 296 299 293 295 298 295 291 289 289 285 289 294 292 290 290 291 288 288 290 295 298 295 292 295 300 300 299 300 300 301 302
313 311 309 308 300 299 296 302 302 299 274 283 290 295 299 299 293 302 302 296 292 288 288 289 294 292 289 286 292 287 294 293 293 290 284 295 283 289 296 296 298 298 298 300 302
312 310 309 308 298 297 300 302 301 292 263 284 289 300 300 294 295 296 303 298 289 290 291 288 290 290 288 290 295 290 297 294 294 290 290 289 286 287 291 292 295 297 299 300 301
311 309 308 304 300 301 302 301 295 275 263 278 290 289 291 294 293 295 296 300 299 293 294 292 297 294 293 296 296 296 294 292 292 289 282 288 287 283 287 290 294 297 298 300 301
310 309 306 304 296 302 301 294 275 268 282 279 284 288 289 289 291 293 291 291 288 283 284 289 290 294 297 291 294 294 288 281 279 280 280 288 286 287 288 290 293 294 292 292 293
309 308 306 304 303 301 296 285 267 277 278 287 287 287 284 288 287 289 289 288 292 289 286 284 281 289 295 291 289 289 286 280 275 277 279 286 281 284 287 289 290 291 291 292 293
309 302 301 303 302 300 289 274 275 278 285 286 286 282 283 286 287 287 288 288 292 290 284 284 284 295 295 294 292 289 283 289 280 279 279 281 282 286 289 290 291 291 292 292 293
301 299 299 303 302 297 289 282 283 287 289 288 281 284 279 282 283 284 285 289 290 292 291 288 284 291 294 295 293 290 290 283 282 275 274 278 278 280 284 287 290 290 291 292 293
300 294 299 303 301 294 283 282 288 292 291 286 283 282 283 282 284 284 284 289 292 291 291 288 285 285 289 289 285 286 284 285 284 282 276 275 278 284 286 287 288 288 291 292 293
298 289 300 300 290 290 285 289 294 291 292 290 288 287 284 285 284 283 285 288 293 292 287 288 285 282 283 290 292 289 285 284 278 278 277 276 279 287 289 290 290 289 291 292 292
294 293 300 300 283 284 292 292 292 291 291 290 288 289 289 285 283 288 288 293 295 291 287 289 281 273 277 283 289 287 288 287 285 282 277 273 278 289 289 289 291 291 291 292 293
294 287 294 296 291 288 290 289 289 294 292 293 290 290 288 286 288 287 288 294 294 293 298 293 283 279 275 279 284 283 287 287 284 276 279 280 281 285 288 289 290 290 291 292 292
293 287 292 286 287 289 290 292 289 288 291 293 289 289 287 282 285 288 292 291 293 295 291 288 280 280 284 286 285 285 286 287 283 285 280 283 283 286 288 288 288 289 289 288 289
291 287 290 288 288 289 290 288 290 289 289 288 288 289 288 285 285 285 291 288 285 290 287 288 278 281 277 283 284 283 285 286 286 285 285 285 284 289 289 289 288 287 287 287 288
296 292 290 290 285 287 287 288 290 291 290 292 291 289 287 288 289 289 290 291 289 287 286 285 281 277 275 280 281 278 280 283 285 285 285 283 286 288 285 286 287 286 287 286 287

GFSSW_sfc_thetae_072.txt.gz
Theta_e
322 321 320 320 318 319 318 316 316 315 315 317 315 315 313 313 314 306 300 306 309 318 318 310 308 306 307 305 308 308 296 292 295 296 296 301 301 306 310 310 312 313 314 322 326
323 322 321 320 319 318 317 316 315 314 314 314 315 316 313 313 305 301 310 315 319 319 311 306 301 303 299 301 303 299 294 294 299 299 298 302 302 304 310 311 315 312 320 324 323
325 322 322 320 318 316 316 316 314 313 313 314 314 315 312 310 298 296 314 315 315 316 310 306 305 302 296 298 299 298 293 298 301 303 304 303 304 307 309 308 314 310 317 320 320
327 323 321 320 319 316 315 315 315 313 312 315 313 313 312 304 281 303 314 313 314 313 309 304 301 297 294 292 298 294 299 301 303 305 307 304 307 304 310 309 316 317 322 323 320
329 323 320 319 318 316 314 314 314 312 311 314 314 311 304 296 295 306 315 310 311 310 304 301 297 297 291 293 296 296 297 301 305 307 308 308 305 304 304 313 322 323 323 322 320
328 323 319 319 317 315 313 312 313 311 310 312 313 310 298 288 301 305 307 306 305 305 303 301 298 301 294 295 295 297 298 300 305 305 308 305 304 302 305 311 322 321 322 323 322
327 323 318 317 315 314 313 311 311 311 310 311 312 305 296 291 301 303 304 303 304 305 300 303 303 299 298 295 299 298 295 298 302 304 304 306 301 300 305 315 317 320 321 323 324
324 322 318 315 314 313 312 311 311 310 310 310 311 301 291 302 301 302 302 301 304 307 305 306 305 300 297 300 298 293 295 290 298 303 305 302 294 301 305 310 309 313 318 320 323
322 319 316 314 313 312 311 310 310 310 310 310 301 295 289 304 299 300 301 300 302 304 305 306 302 298 298 291 291 292 284 286 291 302 300 300 296 301 304 306 304 303 308 316 318
319 319 315 313 312 310 309 309 308 309 306 307 302 291 293 292 298 301 303 302 300 299 299 298 296 293 292 288 281 286 284 288 288 297 298 294 294 301 302 302 302 302 304 307 311
316 318 313 312 311 309 304 300 295 292 295 290 291 291 293 300 303 300 303 298 298 295 289 294 289 286 287 287 293 289 288 286 293 298 296 294 293 297 302 300 298 301 301 305 307
313 316 313 312 310 308 301 294 295 296 287 295 295 294 296 299 294 298 301 293 291 287 291 289 286 291 293 293 293 291 288 287 293 298 296 294 292 295 301 301 299 300 300 301 304
313 315 313 311 309 303 297 298 302 299 288 291 295 293 295 299 293 295 298 294 291 288 288 286 289 293 292 291 291 290 288 288 287 293 296 294 291 293 300 302 301 301 301 300 302
311 314 312 309 301 299 296 302 302 297 275 282 289 293 298 299 293 302 301 294 291 287 289 289 294 291 289 288 291 287 293 293 291 288 283 293 284 290 296 298 299 299 299 301 301
310 314 311 308 299 297 300 302 301 291 264 282 287 299 299 294 294 296 303 297 289 289 291 287 290 289 287 289 293 289 295 293 292 290 289 288 285 287 292 292 298 299 299 300 302
309 313 310 305 301 302 302 301 295 275 264 277 289 289 291 294 293 295 296 299 298 293 294 292 295 294 290 292 294 296 292 292 291 289 281 287 286 283 285 290 294 297 299 301 300
310 311 307 305 297 302 301 294 275 269 281 279 284 288 290 289 291 292 291 290 288 281 284 289 290 294 296 292 295 293 288 281 280 280 279 287 285 286 287 287 290 290 290 292 294
311 309 306 304 304 301 296 284 269 277 277 285 286 287 284 289 289 291 290 288 290 288 286 279 276 290 295 292 290 288 286 280 275 277 280 287 282 282 287 290 290 291 291 293 293
309 304 302 303 302 300 289 272 275 277 284 285 286 282 282 285 287 288 288 289 292 290 283 284 284 294 293 293 292 289 283 287 280 281 279 282 283 286 289 290 291 291 292 291 292
301 299 299 303 303 297 286 281 283 285 288 286 281 282 279 282 283 284 285 289 291 293 292 287 284 291 293 292 293 288 290 281 281 274 274 277 279 280 284 286 289 290 290 291 292
300 293 300 304 301 293 280 281 287 290 290 285 282 281 281 282 283 282 283 290 292 290 291 288 285 286 288 287 284 286 285 285 283 280 277 276 279 284 283 287 286 288 289 290 290
298 287 301 301 290 290 285 287 293 290 291 289 287 286 283 283 282 282 284 288 293 291 286 287 284 282 282 288 291 290 284 282 277 278 277 278 279 286 287 287 288 288 289 291 291
292 292 301 300 284 285 288 290 290 289 289 289 287 289 288 284 282 285 287 293 293 290 286 287 280 272 277 282 287 285 286 286 283 280 276 274 278 289 288 289 289 289 290 290 290
293 286 293 296 293 283 286 287 287 292 291 291 289 290 287 284 286 285 286 292 293 292 297 292 282 278 274 278 283 283 285 285 282 275 278 278 279 284 286 288 289 289 288 287 288
293 288 293 286 288 285 287 289 287 287 290 291 288 288 286 282 283 285 288 289 291 294 290 287 279 278 281 284 284 285 285 285 280 282 278 282 282 285 287 287 286 286 287 287 287
291 289 290 289 286 285 290 287 287 288 288 286 287 288 287 284 284 284 288 285 284 289 286 286 277 280 278 282 283 283 283 285 285 284 284 283 281 287 287 287 285 285 286 286 287
296 294 291 290 285 284 287 289 290 290 290 290 290 287 287 287 288 287 289 289 288 285 285 283 280 276 275 279 280 277 280 283 284 284 285 282 285 287 284 287 286 285 286 286 286

GFSSW_sfc_thetae_075.txt.gz
Theta_e
329 326 324 323 322 321 319 318 317 317 316 315 316 315 316 314 313 306 300 304 310 318 319 311 309 307 307 305 308 309 295 291 293 295 298 304 302 307 312 311 314 316 315 320 325
329 329 326 323 322 320 318 317 317 316 314 314 314 315 315 312 306 301 309 314 318 318 311 307 303 303 300 301 303 299 292 293 298 301 300 302 303 305 308 309 311 313 323 324 326
328 328 327 324 322 319 318 316 315 315 314 313 315 313 313 310 297 295 314 317 315 315 309 307 305 302 296 299 300 299 292 297 298 302 304 303 304 307 307 306 313 311 317 322 321
326 326 328 324 322 319 318 316 315 316 313 312 315 313 311 305 283 303 314 313 314 313 308 304 301 296 294 292 297 293 298 299 300 303 305 303 305 304 306 308 315 316 319 320 318
322 325 326 323 321 318 317 315 313 313 312 311 314 311 304 296 295 305 312 311 313 309 304 301 297 296 292 294 295 294 296 299 301 302 305 307 305 304 305 310 313 319 321 319 319
319 322 323 321 319 317 315 314 312 313 311 311 312 310 300 286 300 305 306 307 305 306 303 302 298 299 294 294 293 296 296 297 300 301 304 303 304 306 306 310 309 319 319 320 319
318 319 324 320 318 316 315 313 311 311 311 311 312 305 297 290 301 302 304 303 305 304 300 303 303 298 297 292 297 297 292 294 297 300 301 305 300 302 307 309 308 316 319 321 320
315 317 322 319 316 315 314 312 311 310 309 311 311 301 290 301 302 302 303 302 304 305 305 305 305 299 295 297 295 291 292 286 294 299 303 302 294 303 307 306 307 314 314 318 322
312 314 316 317 314 313 312 310 309 310 310 310 303 295 288 303 299 301 302 300 302 303 305 306 302 296 295 289 287 290 283 284 292 301 301 300 295 302 305 306 306 307 311 316 317
312 312 314 316 313 312 309 308 308 308 307 307 302 291 293 291 298 301 303 302 299 299 298 297 295 290 292 289 282 284 285 288 289 296 297 294 296 301 304 303 304 304 307 314 317
310 311 313 314 312 311 305 303 296 293 296 291 290 290 293 299 303 300 303 299 299 295 288 293 288 284 289 289 287 288 288 287 292 297 295 292 293 298 302 302 302 304 305 307 313
308 309 311 312 312 310 302 296 297 296 288 295 295 294 296 299 294 298 302 293 291 286 291 288 285 291 293 290 287 289 288 288 292 297 296 293 291 296 300 302 303 303 303 304 306
308 308 310 312 311 305 299 298 303 299 289 292 295 293 294 298 293 294 298 294 290 287 288 286 289 293 291 286 289 290 288 288 287 292 294 293 290 292 300 302 304 304 304 303 305
307 307 308 311 302 300 297 302 303 298 280 284 289 293 297 298 292 301 301 295 291 287 289 289 293 291 290 289 292 287 293 291 290 288 283 292 283 290 295 298 301 303 303 304 304
307 307 307 309 299 296 301 303 300 293 271 283 287 299 298 294 295 296 303 295 289 289 290 287 290 290 287 289 293 290 295 292 291 289 288 288 286 288 294 293 297 302 303 305 305
307 307 307 304 302 303 303 301 295 279 268 277 289 288 291 294 294 295 296 299 298 292 293 291 296 294 290 292 293 295 293 292 291 290 282 287 286 284 287 290 294 299 300 301 302
307 306 306 305 298 304 301 293 280 272 281 280 284 287 289 288 291 292 290 289 287 280 284 288 290 295 293 292 295 293 288 281 279 279 280 288 286 283 287 288 290 295 293 294 295
307 308 308 304 305 302 296 286 274 278 278 285 286 286 284 289 289 291 290 288 291 288 285 277 279 290 295 292 290 289 287 280 276 277 282 289 281 284 290 292 293 293 294 295 295
308 304 301 303 304 301 291 280 277 279 283 284 285 282 282 286 288 288 288 289 291 291 283 285 284 294 294 294 293 290 285 288 282 282 281 282 284 289 291 291 292 293 293 293 294
301 298 298 304 304 298 288 282 283 284 286 286 281 282 279 283 284 285 285 290 291 294 293 288 284 291 293 293 293 290 290 282 283 278 276 280 280 280 287 288 290 290 291 292 293
298 291 300 304 302 292 283 282 287 288 289 284 282 281 281 282 284 283 284 290 292 291 291 287 285 287 288 287 286 287 285 284 284 282 279 278 279 286 287 289 288 289 290 292 292
297 287 301 303 288 290 284 286 292 289 290 288 287 286 283 283 283 283 284 288 292 292 286 288 286 281 284 289 291 290 286 283 281 279 278 279 279 288 287 289 290 290 291 291 291
290 292 301 300 285 286 289 289 289 288 288 287 287 288 287 285 283 286 289 293 293 290 287 288 281 274 280 284 287 287 288 285 283 281 278 277 279 289 289 289 290 290 289 290 290
292 285 291 295 293 287 288 285 285 291 290 290 288 289 286 284 286 286 286 292 292 292 296 290 282 279 276 280 285 285 286 286 283 279 280 280 281 286 288 288 289 289 288 288 289
293 288 292 285 288 288 289 287 286 285 290 290 288 287 285 281 282 285 288 289 291 292 289 287 280 279 281 284 286 286 286 285 282 283 281 282 283 286 288 289 289 288 288 288 288
291 289 292 288 288 287 289 284 286 286 287 286 287 287 286 283 283 282 287 285 284 288 286 286 278 280 277 282 284 284 285 285 286 285 284 283 284 288 289 288 287 287 287 287 287
296 295 291 289 287 287 288 286 288 289 289 289 289 287 286 286 288 287 289 287 287 286 284 283 280 276 275 279 281 278 281 284 285 285 285 282 286 287 287 288 287 286 286 286 287

GFSSW_sfc_thetae_078.txt.gz
Theta_e
327 328 328 329 326 323 322 320 318 318 316 315 315 315 315 315 314 309 300 304 309 315 319 314 312 310 309 304 309 310 297 293 295 296 298 305 305 311 313 310 313 316 318 321 327
324 326 327 327 327 324 321 318 318 317 315 314 314 315 314 313 307 302 307 313 316 318 309 306 303 306 302 302 302 300 295 294 300 301 300 303 306 307 307 308 310 314 320 325 327
321 323 324 325 328 324 320 318 317 316 315 313 314 314 313 311 299 297 314 316 317 315 310 308 306 303 298 300 300 297 293 298 300 302 304 303 305 308 306 304 310 311 317 324 325
318 320 322 325 326 324 320 318 316 315 315 312 311 313 311 305 287 305 315 313 319 313 308 305 303 298 295 294 299 294 298 298 300 303 302 302 306 305 307 307 313 315 318 323 323
315 317 320 320 325 323 319 318 314 313 313 311 311 311 306 297 296 307 312 313 313 310 303 300 298 297 293 294 296 295 297 299 300 302 303 305 304 304 306 310 312 314 317 322 323
313 313 318 319 325 321 318 316 313 311 312 310 310 311 302 292 303 308 308 310 308 307 303 302 298 300 296 295 293 297 297 298 299 300 302 301 303 306 307 310 311 312 315 321 322
312 312 315 317 323 319 316 314 312 311 310 310 310 307 299 297 303 307 305 306 307 306 301 304 303 299 297 293 297 296 292 295 297 298 300 302 299 301 309 311 310 311 314 320 321
311 311 312 315 320 316 315 314 312 311 309 309 311 304 295 303 307 306 306 305 307 307 305 306 305 301 297 298 295 292 290 287 295 297 299 300 293 302 309 309 309 310 312 316 320
310 310 311 313 317 314 314 312 311 310 310 311 305 301 292 304 301 305 306 302 304 305 306 306 303 298 296 290 287 289 285 287 290 297 297 298 294 303 309 309 308 309 311 314 318
310 310 310 312 315 313 312 310 310 310 309 308 303 295 297 293 300 303 306 305 300 301 299 299 297 292 291 288 281 285 285 287 288 294 296 296 296 303 306 307 308 310 311 312 313
310 309 309 311 313 312 308 305 296 295 301 295 294 292 295 300 305 301 305 302 301 297 290 295 289 285 289 290 291 287 287 287 289 293 296 293 296 296 300 306 307 308 310 313 315
309 308 308 310 313 311 304 298 297 299 292 298 297 296 299 300 294 299 304 296 294 289 292 290 286 291 293 293 290 288 287 289 293 297 297 293 294 295 298 303 306 306 307 309 310
309 309 308 309 311 307 301 299 305 303 293 293 296 295 297 299 295 296 300 297 292 289 289 286 289 293 292 288 288 287 290 289 288 293 295 294 291 292 297 302 305 305 307 306 308
308 308 307 308 304 303 299 303 305 302 287 287 292 295 298 299 293 302 302 297 292 288 290 288 294 292 291 287 292 287 294 291 288 288 287 293 284 288 291 299 302 305 306 305 305
307 308 307 306 301 298 301 304 304 299 277 288 291 302 300 295 296 296 303 296 290 289 289 288 290 291 289 288 294 291 295 291 291 290 291 288 287 287 295 295 299 303 304 306 307
307 307 307 304 303 303 304 303 299 285 276 283 291 291 291 295 295 296 296 299 298 290 292 291 297 295 292 294 295 296 294 293 293 291 284 287 288 285 286 289 296 299 298 298 300
306 306 305 305 298 305 303 297 284 279 284 283 287 290 291 290 292 293 290 290 288 285 286 290 290 293 292 292 295 294 291 284 283 284 282 289 286 285 291 292 295 295 294 297 299
306 306 304 305 306 304 300 290 279 282 282 288 289 290 288 291 289 290 290 287 292 291 288 285 283 289 295 293 292 292 290 285 279 282 283 289 283 284 293 295 295 296 296 297 297
308 305 302 305 305 303 293 283 284 283 286 288 289 287 287 289 290 288 288 290 292 293 286 287 285 294 295 296 296 291 288 291 287 287 284 284 286 292 294 294 294 294 295 294 296
301 299 298 305 305 299 290 284 286 287 290 291 285 288 285 287 288 288 288 291 291 295 295 291 285 293 294 296 295 293 293 288 289 281 279 282 284 285 290 291 293 293 294 295 297
300 290 300 305 303 293 285 286 289 291 292 289 287 286 288 287 289 287 287 291 294 294 295 293 290 289 293 291 290 291 290 289 289 286 283 281 283 292 293 294 293 294 295 295 294
297 287 300 304 288 290 288 289 293 292 294 292 292 290 289 290 289 289 289 291 296 295 291 293 291 286 288 293 294 294 291 289 288 282 284 286 284 292 294 295 295 294 294 293 293
291 291 302 301 285 287 291 291 292 291 291 292 291 292 292 290 288 291 292 296 297 295 292 293 289 285 287 291 293 292 291 290 289 289 283 284 284 292 294 295 296 295 294 294 294
294 285 291 293 294 290 289 289 289 294 293 293 292 293 292 290 293 290 291 295 296 296 295 294 289 285 284 285 290 289 290 291 290 288 286 286 286 290 292 293 295 294 294 294 294
294 288 292 286 289 290 290 290 289 289 294 294 292 292 291 288 290 290 292 293 295 295 294 294 286 286 287 288 290 290 290 290 288 288 287 287 288 291 294 295 296 294 293 293 293
291 291 293 292 292 289 291 290 289 290 292 291 291 291 293 289 290 289 292 292 291 295 292 293 287 286 286 288 290 288 290 291 290 289 289 289 289 295 296 296 293 293 292 292 292
298 298 295 291 290 289 290 291 291 293 293 293 294 293 291 291 295 295 296 295 293 292 290 290 289 287 283 285 286 285 285 289 290 290 290 288 290 294 293 294 293 293 292 292 291

GFSSW_sfc_thetae_081.txt.gz
Theta_e
322 324 325 326 327 328 325 323 320 318 317 316 315 314 316 315 314 311 304 307 308 313 318 314 312 310 310 305 306 308 296 292 294 295 297 303 302 308 311 309 311 313 313 317 329
318 320 322 324 325 326 326 324 320 318 317 315 313 314 314 314 309 304 310 310 313 318 312 308 305 307 303 303 302 299 294 294 299 300 299 302 303 304 305 307 309 311 315 319 330
316 317 318 320 323 323 326 322 319 316 316 315 312 314 313 313 302 299 317 313 317 315 309 307 306 304 299 301 301 298 292 297 299 301 302 302 302 305 304 303 308 308 312 318 326
314 315 316 318 322 321 325 322 319 316 315 314 311 313 312 308 290 306 316 316 318 311 307 304 302 298 296 294 300 294 298 299 298 300 301 301 304 302 304 306 310 313 314 318 322
314 313 314 315 318 319 325 321 319 315 315 313 311 312 308 301 300 311 312 314 314 309 303 300 297 297 293 294 296 294 296 298 300 301 300 302 301 302 303 309 311 313 313 316 320
311 313 311 314 315 318 323 320 316 314 314 312 312 312 305 294 305 307 308 309 309 307 303 302 299 300 296 295 294 296 296 296 298 298 300 298 299 302 305 308 309 311 311 313 316
311 311 311 311 313 316 320 315 314 313 313 312 311 309 301 299 305 307 307 306 308 306 302 304 303 298 298 292 298 296 291 294 295 297 296 300 296 297 304 308 308 308 311 313 316
310 310 310 311 313 315 316 315 314 312 311 311 311 307 298 305 307 304 304 303 306 307 305 306 305 300 296 297 295 291 291 285 294 296 298 297 291 298 304 306 306 309 310 310 314
310 310 310 310 312 316 315 314 313 311 310 312 307 303 295 306 300 304 307 302 304 305 306 305 303 297 297 290 286 289 283 287 290 297 296 295 293 299 304 304 305 308 310 311 315
310 310 310 310 312 314 313 312 311 310 309 309 305 297 298 295 301 303 306 304 301 301 299 299 296 291 291 288 279 284 285 287 288 294 295 293 294 301 304 306 305 307 309 311 315
309 309 310 309 310 313 309 306 297 296 300 297 297 294 295 301 305 302 305 303 302 297 290 295 288 286 290 291 290 288 287 286 290 295 293 292 294 297 301 303 306 307 308 312 314
309 309 309 309 309 311 308 297 297 300 293 300 298 297 299 301 295 300 305 296 295 289 294 290 286 292 293 292 291 288 286 287 291 295 294 292 294 298 300 300 303 306 308 312 313
308 308 309 309 309 307 301 300 306 304 295 295 298 296 297 300 295 297 302 297 292 290 290 287 290 294 291 290 289 288 286 287 287 293 295 294 291 294 299 301 303 307 308 312 313
308 308 308 308 304 303 299 304 305 306 289 290 293 296 299 300 294 302 302 298 294 289 291 290 294 292 291 287 288 284 292 290 290 291 286 295 284 290 294 296 301 304 306 307 308
307 307 308 307 303 298 304 306 304 302 279 291 292 303 300 295 296 297 303 298 291 291 290 289 290 291 290 289 294 290 295 293 291 289 289 289 288 288 291 293 299 302 304 306 307
307 307 307 305 304 304 305 304 301 286 279 285 292 292 292 295 296 297 297 299 299 292 291 290 298 295 293 295 296 296 293 292 292 291 284 288 288 285 287 288 292 298 299 301 303
306 306 305 306 298 308 304 297 285 282 286 284 287 291 291 290 292 292 291 290 289 285 284 291 291 293 294 291 295 295 290 284 284 284 282 288 287 286 290 292 292 295 297 300 302
306 306 304 304 306 306 300 287 281 285 283 290 291 292 288 291 289 291 290 288 293 291 288 285 284 290 295 293 292 293 290 284 279 282 282 289 282 285 292 295 295 295 297 297 298
309 302 300 304 305 305 291 283 285 285 287 289 291 287 287 291 291 290 290 290 292 294 287 286 285 294 296 297 296 292 289 294 288 289 284 285 287 292 293 292 294 294 295 295 297
301 299 298 306 306 299 288 285 286 289 292 293 287 290 286 289 289 290 290 293 292 296 296 291 286 293 296 297 297 293 295 289 291 282 279 283 285 286 291 291 293 293 293 295 296
301 292 301 307 303 291 286 287 288 292 295 291 289 288 290 289 291 290 288 292 295 295 296 293 291 290 295 292 291 292 290 291 291 288 284 281 283 294 293 295 294 295 296 295 295
299 286 301 303 288 289 288 291 294 293 296 294 293 292 291 291 290 290 289 292 298 297 292 295 293 287 289 295 296 295 291 291 288 285 288 288 284 295 296 297 296 295 294 294 294
291 289 299 301 287 288 292 292 294 293 293 293 292 294 295 292 289 292 293 297 298 296 294 295 291 287 288 292 296 292 293 294 292 292 285 286 285 296 297 296 297 295 295 295 295
295 286 292 293 295 292 290 290 290 297 295 295 294 296 294 293 295 292 293 296 298 297 296 297 291 288 285 287 292 290 292 293 292 288 287 287 287 292 294 295 296 296 296 296 296
296 290 293 288 292 294 293 292 290 291 296 297 293 293 292 290 292 291 294 295 297 296 296 296 288 289 290 291 292 291 291 292 289 290 287 289 289 292 295 296 297 297 296 296 295
295 294 296 292 293 293 292 291 291 293 294 292 292 294 295 291 293 291 293 294 293 297 295 296 289 289 289 290 291 289 291 292 292 292 291 291 290 297 299 300 297 296 295 295 294
303 302 298 292 293 292 292 292 292 295 295 297 296 295 293 294 298 298 298 297 296 294 293 293 291 290 285 288 288 286 287 290 291 293 292 289 292 297 296 296 296 296 295 295 294

GFSSW_sfc_thetae_084.txt.gz
Theta_e
316 317 319 320 321 323 326 327 325 322 320 318 316 315 314 316 315 311 305 309 310 315 315 313 312 309 309 304 304 305 293 290 292 292 294 300 298 303 305 303 306 307 307 310 330
315 316 317 317 319 321 324 324 326 322 319 318 315 314 315 315 309 305 312 315 313 315 312 308 304 306 302 301 301 296 291 292 297 297 296 299 299 300 300 301 302 305 310 314 329
314 315 314 315 316 319 322 322 325 320 319 317 315 314 315 313 303 303 314 315 317 318 310 307 306 303 298 300 299 297 290 295 296 297 299 298 298 301 300 298 302 304 307 310 324
312 312 314 314 314 317 318 320 323 319 317 317 314 314 314 309 291 309 320 319 320 312 306 303 301 297 294 293 299 292 296 297 297 299 298 295 298 298 300 301 305 306 309 312 314
312 312 313 312 313 313 314 319 323 319 316 317 313 314 308 301 300 314 318 318 314 308 302 299 296 295 291 293 294 292 294 296 298 298 298 299 297 296 298 303 306 308 308 311 314
312 312 311 312 312 312 316 317 322 317 316 314 313 313 304 293 306 310 310 310 308 306 302 301 297 299 294 293 291 294 294 294 295 295 297 295 295 298 298 303 304 306 307 309 310
312 312 311 311 312 313 315 319 318 315 316 314 313 309 301 298 306 307 306 305 307 306 301 303 302 297 296 292 296 295 290 292 293 293 293 296 292 293 299 301 301 304 306 307 311
311 311 311 312 312 312 316 317 315 314 314 313 313 307 296 307 307 304 304 302 305 306 304 305 304 299 295 297 293 289 290 283 291 293 294 293 285 295 300 300 299 302 306 307 310
311 311 310 311 311 314 317 315 314 313 312 312 306 302 296 305 298 302 302 300 303 304 305 304 302 295 295 289 285 287 280 283 287 295 294 292 287 294 299 299 298 300 304 307 309
310 310 310 310 310 310 315 314 312 310 309 308 305 296 299 295 301 303 306 303 300 301 298 298 296 290 290 286 277 279 282 286 286 292 294 291 289 294 299 302 301 299 304 306 308
310 309 309 309 310 310 309 304 298 296 301 296 296 295 296 301 304 301 305 302 301 296 289 294 288 283 286 288 288 286 285 284 288 292 291 290 291 292 298 300 300 302 302 303 307
309 309 309 309 309 309 308 297 298 300 293 300 299 298 300 302 296 300 305 296 295 288 292 289 285 289 291 291 289 287 285 285 290 293 292 290 290 294 297 298 298 302 303 308 311
309 309 308 309 308 308 303 301 306 304 293 295 298 296 297 299 295 297 301 298 292 289 289 286 288 292 290 289 288 287 286 287 285 290 293 290 287 291 297 298 301 304 305 309 311
308 308 308 308 303 303 299 306 306 305 286 288 292 295 298 300 294 303 303 298 294 288 291 290 294 291 289 288 289 284 291 290 287 285 280 290 275 290 292 294 298 303 305 306 311
308 308 307 307 302 297 301 305 305 301 276 291 292 302 299 295 296 297 303 297 290 291 290 286 290 290 290 290 292 287 295 289 290 288 288 288 284 286 291 291 292 301 304 306 306
306 305 307 305 304 303 305 304 300 284 277 284 292 291 292 294 295 298 297 300 298 292 292 290 295 294 293 295 295 295 293 291 290 289 282 287 286 284 286 288 290 297 299 303 304
307 306 304 305 298 305 304 297 282 278 286 283 286 291 291 290 291 292 291 290 288 284 284 290 291 294 295 290 295 294 290 282 280 281 279 288 285 284 290 291 293 296 297 299 302
308 306 305 304 307 304 300 288 277 282 284 290 291 291 288 291 290 292 290 287 293 290 287 284 283 290 295 290 292 290 289 282 278 279 280 287 281 284 291 295 295 296 297 297 298
308 302 301 303 306 304 291 280 282 284 288 289 290 287 287 290 290 289 289 290 292 294 286 285 285 295 295 297 295 291 287 292 287 287 282 284 285 290 292 293 294 294 295 295 296
300 298 298 305 306 299 287 284 285 289 292 293 285 289 284 287 288 288 289 292 292 296 295 291 285 293 295 297 297 292 294 286 288 280 278 282 283 285 288 290 293 292 293 294 295
299 293 299 306 303 292 284 286 287 293 295 291 289 288 289 289 290 289 287 292 295 295 296 293 290 289 294 291 289 290 287 288 287 284 279 278 281 292 292 293 293 293 293 293 293
296 286 301 304 289 289 286 290 294 294 297 294 294 293 291 291 290 290 289 292 297 296 291 292 290 284 288 294 295 293 289 288 281 281 283 281 280 293 293 294 293 292 292 293 293
291 290 301 301 286 286 291 292 295 293 294 294 292 294 294 292 288 291 292 297 298 296 291 292 287 281 281 288 292 290 291 291 290 288 281 279 279 293 293 292 292 290 291 292 293
295 285 293 295 296 290 290 290 290 297 295 296 294 295 293 292 294 291 291 296 296 296 297 295 288 283 279 282 288 286 289 290 288 280 282 282 283 288 290 291 291 291 291 292 292
297 290 293 288 292 292 292 293 291 290 296 296 293 293 292 290 291 290 293 293 295 297 294 293 283 283 287 290 290 289 288 289 286 286 281 284 286 289 291 291 291 292 292 292 292
294 293 295 292 293 292 292 291 291 292 293 292 292 294 294 290 291 289 291 291 290 292 291 293 283 284 281 289 288 285 288 289 289 289 288 288 287 293 294 294 292 291 292 292 292
301 301 297 294 292 290 290 292 293 295 295 296 295 293 291 292 295 294 294 293 291 290 290 289 286 282 278 285 285 280 284 287 289 290 288 285 288 293 292 294 292 291 293 292 292

GFSSW_sfc_thetae_087.txt.gz
Theta_e
315 316 316 316 317 319 320 323 325 326 324 321 320 317 315 315 316 311 304 309 311 316 316 312 312 309 307 301 302 300 291 286 289 291 293 298 296 300 301 297 300 301 303 315 327
314 314 315 315 314 315 316 320 324 324 324 321 318 315 314 315 309 304 314 318 319 316 311 308 305 305 298 299 298 292 287 289 295 294 293 296 296 295 296 297 298 300 306 326 326
314 313 313 313 314 314 316 317 319 322 322 320 318 315 315 314 302 301 315 317 315 316 315 307 306 303 296 297 296 294 288 293 295 297 298 296 295 297 295 294 298 298 302 316 323
314 313 313 312 312 313 313 314 316 321 322 320 317 315 315 308 290 309 316 316 319 315 308 303 301 295 292 290 296 291 295 296 296 298 297 294 297 295 296 295 300 302 304 308 318
313 314 313 312 312 312 312 314 317 320 320 319 316 315 308 300 299 316 321 320 313 309 303 299 294 293 289 290 292 290 293 296 297 296 295 296 294 294 295 300 300 302 305 308 312
313 313 312 312 312 312 312 314 317 319 319 318 315 314 303 293 311 315 313 315 310 306 302 299 296 298 292 291 289 292 293 293 294 294 294 292 292 294 295 299 300 301 301 303 309
312 312 312 311 312 312 313 317 316 320 318 316 315 309 301 298 305 309 308 306 307 306 301 302 301 295 294 289 294 293 288 290 291 293 292 294 288 289 296 298 298 300 301 302 305
311 311 311 311 311 312 312 318 320 317 316 315 315 306 295 307 303 304 304 302 304 305 304 303 302 297 293 294 292 287 287 280 290 292 294 291 283 290 295 296 296 298 300 301 304
310 311 310 311 311 311 313 316 315 316 316 314 306 302 294 305 299 301 301 299 300 302 303 304 301 293 293 287 281 284 273 280 285 293 293 292 286 291 295 295 296 297 298 300 303
310 310 310 310 310 311 313 315 314 311 309 308 306 295 298 294 299 300 301 303 299 299 299 297 292 289 289 283 271 273 274 282 283 290 291 290 288 293 294 295 294 295 297 298 302
309 309 309 309 309 309 306 304 298 296 301 297 296 295 297 301 303 301 304 301 300 296 287 293 286 282 284 286 286 283 282 281 285 290 290 289 290 292 294 295 296 297 298 301 305
309 308 308 308 309 309 306 298 298 299 292 300 300 298 300 301 295 299 305 296 293 286 290 288 283 288 289 289 287 287 284 283 287 291 291 290 289 292 294 295 298 298 300 302 307
309 308 308 308 308 305 301 301 306 304 292 295 299 297 296 299 296 296 300 297 290 287 287 282 286 292 289 287 286 286 285 284 284 289 291 289 286 289 293 297 299 301 303 304 308
308 308 307 307 301 301 298 305 305 304 285 288 292 295 298 299 294 303 302 297 292 287 289 287 292 290 289 287 289 284 291 289 288 287 279 288 272 284 290 292 295 300 300 302 309
307 306 306 306 300 297 300 305 305 299 273 289 292 302 299 295 296 297 302 295 288 289 289 282 288 288 288 289 292 288 293 291 289 286 287 282 283 286 291 289 290 298 302 303 305
307 306 306 302 300 302 304 303 299 281 272 284 292 291 291 295 295 297 296 298 296 290 290 289 294 292 292 294 294 295 292 290 290 288 279 281 284 283 286 289 292 297 300 303 304
307 306 303 304 295 303 301 294 275 271 285 283 286 290 290 290 291 291 290 288 286 284 283 287 290 294 295 289 295 293 287 281 279 279 280 287 283 283 290 292 294 296 297 299 300
307 306 303 304 305 301 296 283 275 282 282 289 289 290 287 291 290 290 288 284 290 288 285 282 276 290 295 291 290 291 288 281 277 277 279 287 279 285 292 295 296 297 297 298 298
306 302 298 303 303 300 289 279 280 283 288 288 289 285 286 290 288 286 285 289 291 293 285 284 284 295 294 296 295 289 287 291 286 284 281 283 285 288 290 292 294 294 295 295 296
299 297 296 303 303 298 284 284 284 289 291 291 284 287 283 286 285 286 288 291 292 296 295 291 284 292 295 297 297 291 294 284 285 279 278 282 283 284 286 288 291 292 292 293 294
294 290 298 304 302 289 281 285 288 295 295 291 288 287 285 286 288 288 286 290 295 294 295 292 290 288 293 289 288 290 286 288 287 284 279 276 281 292 291 291 290 291 292 292 293
291 285 301 302 288 288 286 288 292 294 295 293 291 291 287 289 287 287 287 292 297 295 290 293 288 280 286 292 293 290 288 285 280 280 280 279 281 294 293 292 292 291 291 292 294
291 291 298 297 280 283 290 292 294 292 292 292 291 292 292 290 286 288 290 296 297 294 290 290 285 278 281 285 290 287 289 288 288 284 279 276 280 290 290 290 291 291 291 292 292
292 285 290 295 291 288 286 288 289 295 293 294 292 293 291 289 290 288 291 295 295 294 298 294 285 281 276 281 286 284 287 288 284 277 279 279 282 286 287 287 288 288 289 290 291
292 284 288 282 286 288 289 290 289 289 293 293 291 292 291 287 288 287 290 291 294 297 292 290 281 281 285 288 287 285 286 287 284 283 279 282 283 286 288 287 288 289 289 290 290
288 287 289 287 289 287 289 288 289 290 291 290 290 291 290 287 287 286 289 288 287 291 288 290 281 282 279 286 286 282 285 287 287 287 285 285 284 291 291 290 289 288 290 290 290
295 295 290 290 287 285 287 290 291 292 293 293 292 290 289 290 291 291 291 291 289 287 287 287 282 278 276 283 283 279 282 284 286 287 286 283 286 290 289 291 289 289 290 290 290

GFSSW_sfc_thetae_090.txt.gz
Theta_e
314 315 314 315 316 315 316 317 320 324 325 325 323 320 317 315 315 311 303 309 311 317 315 311 310 308 305 300 300 298 288 285 288 289 291 296 293 297 298 295 297 299 299 315 324
315 315 314 313 314 315 314 315 318 321 322 325 323 319 315 316 309 304 313 320 320 318 310 306 304 304 297 297 297 291 285 288 293 292 291 294 294 294 294 295 295 296 302 318 326
315 315 315 314 313 313 313 314 314 316 319 324 321 318 316 314 302 301 317 320 319 316 313 309 306 303 295 295 294 293 287 292 293 295 297 295 294 296 293 292 294 295 298 301 312
314 315 314 314 313 312 312 312 313 315 318 323 320 317 317 308 288 308 318 320 317 315 310 302 300 294 291 289 295 289 294 295 296 297 296 293 295 293 294 294 298 299 300 300 307
313 314 313 313 312 312 313 313 313 315 317 322 319 317 309 299 298 312 318 318 312 308 302 298 293 293 288 289 291 288 291 294 295 294 294 294 292 291 292 296 298 300 301 299 305
312 313 312 312 312 312 312 313 314 315 317 321 318 316 303 292 309 315 315 311 309 304 300 298 294 297 291 290 288 291 292 292 293 293 293 291 291 292 292 296 296 298 299 300 301
311 311 311 312 312 312 312 313 314 316 317 321 317 309 301 298 311 312 314 310 308 304 299 301 299 294 293 288 293 292 286 289 290 291 291 293 288 288 293 294 294 296 298 300 300
310 311 311 311 311 311 312 316 317 318 319 318 316 306 295 307 308 305 304 302 305 304 302 302 301 296 292 293 290 286 285 280 288 291 292 291 282 290 294 292 291 294 297 298 301
310 310 310 310 310 311 311 317 320 318 317 316 307 302 294 306 300 302 302 299 299 301 302 303 299 292 292 285 279 282 273 279 283 292 290 289 285 291 295 295 292 292 294 297 299
310 310 309 309 309 310 308 313 313 314 310 308 305 297 298 294 298 300 299 301 298 298 298 295 291 286 286 283 270 274 279 280 281 288 289 287 287 291 294 295 293 291 293 294 297
309 309 309 309 308 309 304 301 297 295 300 296 296 295 297 300 302 300 303 300 299 294 285 291 283 282 283 284 284 281 279 280 284 289 287 286 287 290 294 293 292 293 295 296 298
308 308 308 307 308 308 303 294 297 299 289 300 299 297 299 301 294 299 304 294 292 285 289 288 283 287 288 287 285 284 283 282 286 290 290 289 287 290 293 292 293 294 297 300 304
308 308 307 307 307 304 299 298 306 304 292 293 299 296 297 300 295 296 299 296 290 286 286 281 284 290 288 285 284 284 284 284 284 288 289 287 285 287 292 293 297 300 301 302 304
306 307 307 306 299 300 297 304 305 303 285 288 291 295 297 299 294 302 301 296 291 286 287 285 290 288 287 286 287 283 289 289 289 286 280 289 272 283 289 291 293 299 302 303 305
307 307 307 305 297 296 301 305 305 300 274 288 290 302 298 295 295 297 301 294 287 288 287 280 286 286 287 287 291 287 292 291 290 286 285 284 282 281 288 286 290 297 300 302 305
308 307 306 301 299 301 304 303 300 281 273 286 291 291 291 295 295 297 295 297 295 289 289 288 293 291 290 294 293 294 291 291 290 287 279 278 280 280 285 288 292 296 298 300 304
307 306 302 303 295 303 300 294 277 272 285 283 287 289 290 290 290 290 289 287 285 282 282 288 289 294 295 289 294 292 287 280 278 276 278 287 283 283 289 292 293 296 296 298 299
307 305 304 304 304 301 296 282 270 282 280 289 289 289 286 290 288 288 287 282 288 288 285 283 278 291 295 291 289 290 287 281 276 277 277 287 279 284 292 295 296 297 297 298 297
306 297 296 300 302 297 286 275 275 282 288 287 289 285 285 290 286 286 285 288 291 293 285 284 282 293 294 296 294 290 286 291 286 283 278 282 285 288 291 292 293 294 294 294 295
294 293 295 301 301 293 282 282 283 290 292 291 282 285 281 285 284 284 286 290 292 295 295 290 283 291 295 296 296 292 293 284 285 277 277 281 283 283 286 287 290 291 291 293 294
292 288 296 301 298 290 282 284 288 294 295 290 286 285 285 286 288 287 284 290 293 293 293 289 289 286 293 290 288 289 288 288 286 284 279 276 280 291 288 288 288 290 292 293 293
292 285 297 299 285 288 285 288 292 292 295 292 290 289 287 288 286 287 286 289 295 294 289 291 287 280 285 291 292 290 287 285 280 279 278 278 280 294 293 292 292 291 291 293 294
288 288 296 297 279 282 289 290 292 291 291 291 289 291 291 289 285 288 289 295 296 293 288 288 284 278 281 284 288 286 288 287 285 282 277 275 279 289 292 291 292 291 291 292 292
289 281 287 292 290 285 285 287 288 294 292 293 291 292 290 288 289 287 289 294 294 293 298 293 284 281 275 281 285 283 285 287 283 276 278 278 280 283 285 287 288 288 289 289 290
288 282 286 282 286 287 286 289 288 288 292 293 291 290 289 285 286 286 288 290 292 296 291 289 281 280 283 286 285 283 284 285 282 281 278 281 282 285 286 286 286 287 288 288 288
287 286 288 286 288 285 288 288 288 289 290 289 288 289 289 285 285 284 287 286 286 289 287 288 280 282 279 285 284 281 284 285 286 285 284 284 283 288 288 287 287 287 288 288 289
293 293 289 289 285 285 286 288 290 290 291 291 290 288 288 288 289 290 290 289 288 286 286 286 281 277 275 282 283 277 281 283 284 286 285 282 285 288 288 289 288 287 289 289 289

GFSSW_sfc_thetae_093.txt.gz
Theta_e
315 316 316 316 314 314 315 314 315 318 320 324 325 324 320 315 315 310 302 306 310 317 315 309 309 306 304 298 299 297 287 283 287 289 290 294 292 295 297 293 295 296 299 310 323
315 316 316 316 314 313 314 314 314 315 316 320 322 323 318 316 308 304 312 318 320 317 309 305 302 302 296 296 296 291 285 286 292 291 289 293 293 293 293 293 293 295 299 301 305
314 314 315 316 315 314 313 312 313 314 314 318 322 321 316 314 299 298 316 320 320 315 312 308 305 302 294 294 293 291 286 290 292 294 295 294 293 295 292 290 293 293 296 299 300
313 314 314 315 314 313 313 313 314 313 315 317 321 318 317 307 289 306 318 321 320 314 307 301 299 293 289 288 293 288 293 294 295 296 294 292 294 291 292 292 296 297 298 298 299
312 313 313 313 313 313 312 312 313 314 314 316 319 318 309 298 296 310 321 319 311 308 301 296 293 292 288 288 290 287 290 293 293 294 293 293 291 290 291 295 296 297 298 298 299
310 312 312 312 312 312 312 312 313 313 314 315 320 316 304 293 306 311 311 309 307 302 298 296 293 295 290 289 287 290 291 290 292 291 292 290 290 291 290 294 295 296 295 296 298
310 310 311 311 312 312 311 312 313 314 314 315 319 309 302 298 312 314 311 307 306 303 298 299 298 293 292 287 291 291 285 287 289 290 289 291 286 287 292 293 292 293 294 295 298
310 310 311 311 311 310 311 311 314 316 316 316 316 306 295 307 312 310 307 304 305 303 302 301 300 295 291 292 289 285 283 279 286 290 291 288 280 288 292 291 291 293 295 296 297
310 310 309 310 310 310 310 310 317 318 318 317 306 302 293 309 305 303 303 298 299 300 301 303 298 291 291 283 276 281 275 279 282 290 289 288 284 290 293 293 293 294 294 294 295
309 309 309 309 309 309 307 307 313 311 308 307 305 296 297 296 300 299 299 301 297 296 296 294 290 284 283 279 268 272 273 280 279 286 288 285 285 289 292 293 293 294 294 292 294
309 309 308 308 308 307 301 299 297 296 299 294 294 296 296 299 302 299 302 299 297 293 284 289 281 277 281 283 281 278 277 279 283 287 286 285 286 288 292 292 292 292 291 293 297
308 308 307 307 307 307 301 292 295 298 292 300 299 297 299 300 294 298 302 293 291 284 287 283 278 285 287 286 284 283 281 280 285 289 289 288 286 290 291 291 292 292 293 295 299
307 307 307 306 307 302 298 297 305 304 290 293 297 294 297 298 293 294 298 295 289 285 284 280 283 289 287 284 283 282 282 283 282 288 290 288 284 285 291 292 296 299 300 302 302
308 306 307 306 300 300 297 304 305 303 285 285 290 295 297 299 293 301 300 294 289 285 286 285 288 287 286 285 286 282 288 288 287 286 277 286 272 280 287 290 292 296 299 302 305
308 307 307 303 297 296 301 305 305 300 273 288 291 302 297 295 295 296 300 294 287 288 289 281 285 285 285 287 290 286 291 290 290 287 284 283 278 280 287 286 289 295 298 300 305
308 307 305 299 299 300 304 304 300 279 273 285 291 290 291 294 295 296 294 296 294 288 288 287 292 291 289 292 293 293 291 290 290 287 278 278 276 275 285 288 290 296 297 299 301
307 308 303 302 294 301 301 295 277 271 286 284 286 290 290 289 289 289 288 285 284 282 279 288 288 293 294 290 293 291 286 275 275 277 275 286 280 281 289 292 294 295 296 297 298
307 304 304 302 300 298 294 283 275 282 281 289 288 289 285 288 287 288 286 283 286 288 285 283 275 290 295 291 290 289 287 281 275 275 276 287 281 283 291 294 296 296 296 296 296
304 296 296 300 301 297 285 278 276 283 287 287 289 283 283 288 286 284 286 288 291 290 285 284 282 292 293 294 294 290 286 291 285 284 276 280 286 289 292 292 293 293 293 293 294
293 292 292 300 299 292 283 282 283 289 291 290 281 284 280 284 282 282 285 289 292 295 295 290 283 290 293 295 296 292 294 285 285 278 275 280 283 283 286 287 288 289 290 292 294
291 286 294 299 296 289 282 285 289 294 294 290 286 284 284 284 286 285 284 289 292 293 292 291 288 285 292 289 288 289 287 288 287 285 279 277 280 292 288 287 287 290 291 293 293
291 282 296 297 285 289 286 289 293 292 294 292 289 288 286 287 287 288 284 288 294 293 288 291 286 280 285 289 290 289 286 285 279 279 279 279 281 294 292 291 292 291 293 293 294
286 286 295 294 279 284 288 290 291 291 290 290 289 291 291 288 283 287 288 293 295 292 288 288 283 277 280 283 288 285 286 286 284 281 277 275 279 291 292 292 292 291 292 293 292
286 282 288 289 287 284 284 286 287 292 291 291 291 291 289 286 288 285 287 292 293 292 298 292 283 280 274 281 284 283 284 285 281 275 278 277 278 283 287 289 289 287 286 287 288
287 282 285 282 286 286 285 288 287 287 291 292 289 288 287 285 285 284 287 288 291 293 290 287 281 278 282 285 284 282 282 284 281 280 276 280 280 284 285 285 286 286 287 287 287
287 286 287 285 286 285 288 287 287 288 289 288 287 289 288 285 284 283 285 285 284 288 286 287 279 281 278 283 283 282 282 284 284 283 284 283 281 287 286 285 285 286 287 287 288
291 291 289 287 285 284 286 288 289 289 290 290 289 287 287 287 289 289 289 288 287 284 285 285 281 277 275 280 281 277 280 282 284 284 283 280 283 287 285 287 287 286 287 288 288

GFSSW_sfc_thetae_096.txt.gz
Theta_e
314 315 316 316 316 315 314 314 314 314 317 318 320 323 323 319 316 309 301 304 310 317 317 308 306 304 302 298 298 297 285 282 284 287 288 292 291 295 296 293 295 295 296 301 301
314 314 315 315 316 315 315 314 314 313 314 315 317 321 322 317 307 303 310 318 318 317 307 303 300 301 294 295 295 291 283 284 290 290 289 292 292 292 291 292 291 294 298 300 301
314 314 314 314 315 315 314 314 313 313 313 314 316 320 317 312 297 296 315 321 321 315 310 305 304 300 293 293 292 289 285 289 291 293 294 293 292 294 291 289 292 292 294 297 299
313 312 312 313 314 314 313 313 313 313 314 314 316 319 317 307 290 305 318 322 320 311 305 300 298 292 289 288 291 286 292 292 293 293 292 290 293 289 291 291 295 295 296 296 297
311 311 311 312 312 312 313 313 313 313 312 314 315 319 307 299 296 308 322 320 311 305 299 296 293 291 287 287 289 286 288 292 292 292 292 292 290 289 289 293 295 295 295 295 296
311 311 310 311 311 310 312 312 312 313 312 313 315 317 304 295 307 311 309 307 305 301 297 296 292 294 289 288 286 288 290 289 290 290 290 289 288 289 289 293 293 294 294 293 295
310 310 310 310 311 311 311 311 312 313 313 313 315 310 302 298 311 310 309 304 304 301 297 298 297 293 290 286 290 289 284 286 287 288 288 289 283 286 290 291 291 292 293 294 294
310 310 310 309 310 310 310 311 311 312 313 314 315 307 297 309 310 308 307 303 303 303 301 300 299 294 290 291 287 284 282 278 284 288 290 287 279 287 292 290 289 292 294 296 297
310 309 309 309 308 309 309 309 309 316 316 314 307 302 296 310 307 303 303 299 300 300 301 302 297 290 289 282 275 279 271 278 282 289 288 286 282 288 292 291 291 292 293 295 297
308 308 309 308 308 308 306 307 306 313 311 309 306 296 297 298 300 300 301 301 297 297 296 294 289 284 282 278 268 272 272 279 279 285 286 284 284 288 291 291 290 291 293 294 296
308 308 308 307 308 305 300 295 293 296 300 295 296 295 296 302 302 299 302 299 297 293 284 289 281 275 280 282 279 277 276 277 282 287 286 284 284 287 291 290 290 291 291 293 294
308 308 307 307 308 305 300 289 291 298 290 298 297 297 299 301 293 298 302 292 290 284 287 282 279 283 286 285 282 280 281 281 284 287 289 287 286 290 290 289 290 294 297 298 301
308 308 308 308 308 302 297 295 302 304 288 292 295 296 297 298 292 294 298 294 287 284 283 279 282 288 286 282 282 283 281 282 283 287 289 286 283 283 290 292 294 297 301 303 304
307 308 307 306 300 300 297 303 305 304 283 285 290 294 297 298 292 300 300 294 289 284 285 283 287 286 284 285 286 281 288 287 286 286 280 285 275 280 286 288 290 295 298 300 304
308 308 307 304 297 296 301 305 305 300 272 286 290 301 299 294 293 295 299 293 286 288 287 280 283 284 285 286 289 285 291 289 288 286 285 283 279 279 286 286 289 294 297 299 301
307 306 304 298 298 300 304 303 299 280 273 285 291 290 291 294 294 295 293 295 293 287 286 286 290 289 289 291 292 293 290 289 289 287 278 279 281 273 285 288 291 295 296 297 299
308 307 303 302 296 301 300 293 279 274 286 284 286 290 289 288 288 288 287 284 283 281 275 285 287 292 293 289 293 291 287 278 272 274 273 285 280 278 289 290 294 294 295 296 297
306 304 303 301 299 297 292 282 274 283 283 289 288 289 285 287 286 286 284 282 286 286 283 279 275 289 294 291 290 290 288 279 269 275 278 287 281 282 291 295 295 296 295 295 296
303 295 294 297 300 295 286 278 275 281 287 286 287 282 282 287 286 283 284 286 289 290 284 283 282 291 293 295 294 290 286 291 284 286 280 280 286 290 292 291 292 292 292 293 295
291 290 291 298 298 291 285 283 284 289 290 290 282 284 280 283 282 281 282 287 290 293 293 290 283 289 292 294 295 292 294 285 285 277 276 280 282 284 286 287 288 288 289 293 294
291 287 294 298 296 290 283 285 289 293 293 288 284 282 282 282 283 283 281 288 291 294 294 291 288 284 290 288 287 289 286 288 287 285 279 276 281 291 289 289 288 289 291 293 293
288 283 296 296 286 287 286 289 294 291 293 291 288 287 285 285 285 286 283 287 293 294 288 290 286 279 284 289 290 288 285 284 278 277 278 278 280 293 292 291 291 290 293 294 294
285 285 294 294 280 282 286 289 291 290 290 289 288 290 289 287 283 285 287 292 294 292 288 289 282 275 279 282 286 284 285 285 283 280 277 274 278 291 292 292 292 291 292 293 293
286 283 288 289 285 282 284 286 286 291 290 291 289 290 288 286 287 284 286 291 293 292 298 292 283 281 275 280 283 282 282 284 281 274 277 277 279 287 289 290 291 290 287 288 288
287 282 285 281 285 284 284 287 286 286 290 291 288 287 286 283 283 283 286 287 290 293 289 287 280 278 282 283 283 283 282 282 280 279 276 279 279 284 286 286 287 287 286 286 287
288 286 286 284 284 285 287 286 287 288 288 288 287 288 287 284 283 281 284 283 283 287 285 286 279 281 277 283 282 282 283 282 283 283 281 281 281 286 285 284 285 285 286 287 287
289 290 288 286 284 284 285 286 287 288 289 289 288 286 285 287 289 289 289 287 286 283 284 284 280 277 275 279 280 277 280 282 283 284 283 280 282 285 285 286 286 286 286 287 287

GFSSW_sfc_thetae_099.txt.gz
Theta_e
316 316 314 314 315 316 316 314 314 314 314 315 317 318 322 321 317 310 302 305 311 318 316 309 306 304 304 300 300 300 288 285 287 289 291 295 294 297 299 297 298 300 300 304 304
315 315 315 314 314 315 315 315 314 314 313 313 315 317 322 318 308 303 310 318 322 318 307 304 300 301 297 297 297 293 285 286 292 294 292 294 294 295 295 294 295 297 300 302 304
313 313 314 313 313 314 314 313 315 313 314 313 314 316 319 312 300 298 316 321 321 315 310 306 305 301 295 296 295 292 287 291 293 295 294 293 294 296 294 291 294 295 298 300 301
312 312 312 312 312 313 313 313 314 314 312 312 314 316 317 307 293 306 320 323 319 312 305 302 299 294 292 290 293 290 293 293 294 293 292 291 294 292 293 294 298 299 299 298 298
311 311 311 311 311 312 311 311 313 313 312 310 314 317 308 299 298 308 322 321 309 304 301 298 295 293 289 289 291 289 290 292 293 293 292 293 291 291 291 295 297 297 297 297 298
311 310 310 310 311 310 309 310 312 313 312 310 311 315 305 297 309 312 309 306 304 301 298 297 295 295 291 289 288 290 290 290 291 291 291 289 289 290 291 294 294 295 295 296 296
311 310 310 310 310 309 310 309 310 312 312 312 312 311 303 298 312 310 308 304 304 302 298 299 298 294 293 288 292 290 286 287 288 289 289 290 286 286 292 293 292 293 295 296 298
311 309 309 309 308 308 309 309 310 312 311 312 312 307 298 310 312 307 305 302 303 303 300 300 299 295 292 293 287 285 284 281 286 289 290 290 283 288 292 293 293 294 295 296 298
310 308 308 308 308 309 307 307 309 312 314 313 307 303 296 312 304 303 304 299 301 302 302 302 298 291 290 284 279 281 277 280 283 289 289 288 285 290 294 293 292 293 294 296 298
309 309 309 309 309 306 305 308 309 311 310 309 306 297 300 299 300 300 302 302 298 298 297 294 290 286 285 281 275 277 277 280 280 286 287 286 285 290 293 293 292 293 294 295 297
310 309 308 309 306 304 300 298 294 296 299 295 296 295 299 302 304 300 303 299 298 294 287 291 284 280 282 283 280 279 279 279 282 287 285 285 286 290 293 293 292 294 298 300 302
309 308 308 309 306 304 299 291 291 295 288 298 299 299 301 301 293 298 302 293 291 286 289 284 281 285 286 286 284 283 280 280 285 288 288 287 287 290 292 293 297 297 299 302 305
309 308 308 308 306 300 296 296 303 303 287 289 296 296 297 298 293 294 298 294 288 285 285 281 285 288 287 284 283 282 281 281 282 287 290 287 284 285 291 294 295 298 299 302 304
308 307 307 308 300 300 297 303 305 303 283 283 290 293 297 298 291 300 300 294 290 284 285 285 288 286 286 283 285 281 287 287 286 285 281 289 280 284 287 290 292 295 297 299 302
308 307 307 305 298 296 300 305 304 300 272 287 290 300 299 293 293 295 299 294 287 287 285 281 285 286 285 285 289 284 290 289 288 286 285 285 281 283 287 287 290 295 297 297 300
308 307 305 300 299 300 304 303 299 280 272 283 291 292 292 293 293 294 294 296 294 288 287 286 291 289 288 290 291 292 289 289 289 287 280 280 281 281 285 288 291 295 296 297 298
307 307 302 301 294 301 299 292 280 274 286 283 287 290 289 287 288 288 287 285 283 276 274 284 287 292 293 288 293 291 287 276 273 277 275 284 281 283 289 291 293 294 294 296 297
305 303 301 301 300 298 292 284 275 283 282 289 289 288 285 286 285 286 285 282 286 286 283 277 276 288 292 290 290 289 288 280 272 274 278 285 280 285 292 294 295 294 295 296 296
302 293 293 296 299 295 287 279 277 280 286 286 286 282 284 286 285 283 283 285 289 288 282 281 278 291 293 295 294 290 285 291 284 284 281 283 287 291 292 291 290 290 292 293 294
291 290 291 296 296 291 285 284 284 288 289 288 282 283 279 283 282 283 283 287 291 292 292 289 283 289 292 294 295 292 293 285 285 276 276 280 282 284 287 287 288 288 289 292 293
290 288 295 297 296 290 282 283 288 293 292 287 283 282 282 282 283 282 283 287 292 293 294 291 288 284 290 289 287 289 286 287 287 285 279 277 281 291 287 289 288 289 292 292 293
288 285 297 296 286 284 285 289 293 290 292 290 288 287 284 284 283 285 284 287 293 294 288 290 287 281 284 289 290 289 286 285 280 278 280 280 282 292 292 292 291 292 293 294 295
286 285 295 295 281 277 285 288 290 289 288 289 288 290 288 286 283 286 288 293 294 292 288 289 283 276 279 283 287 285 286 285 284 281 278 277 280 292 293 292 292 292 293 294 294
287 283 289 288 285 283 284 285 286 291 290 290 288 289 287 285 287 284 286 291 293 292 297 292 283 280 275 280 284 283 283 284 282 277 279 279 282 287 290 291 292 291 292 292 291
287 283 284 281 285 284 284 286 285 286 289 290 287 287 285 282 283 282 285 286 290 292 290 287 280 279 282 283 284 284 283 283 280 281 278 281 282 287 288 290 290 290 288 288 289
288 286 284 283 283 283 287 285 286 287 287 287 286 287 286 283 283 281 284 283 283 286 285 286 280 282 278 283 283 282 283 282 284 284 283 283 283 288 289 289 288 289 288 288 288
288 289 288 286 283 282 283 285 286 287 288 289 287 285 285 286 288 288 288 287 286 283 284 283 281 277 275 279 280 277 280 282 284 285 284 282 285 288 287 287 288 288 287 288 289

GFSSW_sfc_thetae_102.txt.gz
Theta_e
315 316 316 316 314 315 315 317 315 314 313 314 316 317 320 321 318 313 304 308 314 320 316 311 310 310 311 306 307 306 294 292 292 293 295 299 298 301 303 301 302 304 304 307 309
314 315 315 315 314 314 315 315 315 314 312 313 314 315 323 319 309 306 311 317 322 320 310 305 303 307 304 303 304 299 293 291 296 298 297 298 298 299 297 298 299 300 304 306 307
312 313 313 313 313 313 314 314 315 314 312 314 314 316 319 312 302 301 315 322 321 316 312 309 307 303 299 302 299 298 294 295 296 298 298 297 297 299 297 295 299 298 300 303 304
312 312 311 311 311 312 313 313 314 313 313 311 314 316 315 309 295 307 320 322 319 314 310 306 303 298 296 294 298 293 296 296 297 298 296 295 297 295 296 297 300 301 301 302 302
312 311 311 311 310 310 311 311 312 313 313 310 313 316 309 300 300 312 322 320 312 309 306 304 299 298 294 295 296 293 294 295 296 296 296 296 294 294 294 298 300 300 300 300 301
312 311 310 309 309 309 310 311 311 312 313 312 313 316 306 296 310 314 310 308 307 306 303 303 301 300 296 294 292 294 293 294 294 293 294 291 293 292 296 298 297 299 299 301 302
312 311 310 309 309 309 310 310 309 310 311 311 313 312 305 302 312 312 310 306 306 306 301 303 302 298 297 293 295 293 289 291 291 292 292 294 292 290 296 297 298 299 301 302 303
312 311 308 309 309 309 310 309 310 311 312 310 313 308 299 311 312 307 307 304 307 307 304 305 304 299 296 296 292 289 290 288 290 293 293 293 290 295 297 299 298 299 300 301 303
311 309 308 308 309 309 307 307 308 311 313 312 308 304 298 313 303 305 306 302 304 304 304 303 301 296 294 291 289 289 286 286 288 293 292 292 291 297 300 299 298 300 301 301 303
308 309 309 310 309 306 307 310 312 313 310 306 306 298 302 298 301 303 307 305 301 300 298 297 296 292 291 290 286 283 283 286 286 290 291 291 292 297 299 299 300 301 303 304 306
310 309 309 307 306 305 304 303 299 296 301 293 292 297 298 301 304 301 304 302 300 296 290 293 290 286 287 287 287 286 285 284 288 291 290 292 292 296 299 299 300 299 300 303 306
309 309 308 307 306 304 303 297 296 298 288 297 299 298 301 302 295 299 304 295 294 289 291 290 286 288 290 289 288 287 285 287 290 291 291 293 292 296 296 298 299 300 300 303 307
308 309 308 306 306 304 300 298 304 301 288 290 295 295 296 299 294 295 299 296 291 288 288 287 287 291 289 288 287 288 287 286 286 291 294 292 292 292 295 298 298 301 301 301 302
309 308 307 307 301 301 298 304 306 304 286 284 289 293 297 298 292 302 302 296 292 288 289 289 290 289 288 287 289 285 291 289 289 288 285 292 283 291 292 294 296 299 299 300 300
309 307 308 306 300 298 301 306 306 301 275 288 291 301 298 293 294 295 302 297 291 290 290 287 289 288 288 288 291 289 292 291 290 287 286 288 283 290 292 291 294 296 298 299 299
308 308 305 303 303 302 305 305 301 287 275 285 291 291 292 294 293 296 296 300 297 291 291 290 293 292 292 293 293 294 291 291 291 287 281 287 285 289 290 291 293 296 297 298 298
307 307 305 305 299 304 303 298 287 280 286 285 288 291 290 289 290 291 290 290 289 285 285 288 290 293 294 291 294 292 287 283 282 279 282 287 284 289 292 294 294 294 295 296 297
308 304 303 304 305 304 300 291 279 283 285 290 290 291 287 289 289 290 289 289 290 290 286 285 284 291 295 293 290 289 289 283 278 281 283 287 283 290 293 295 294 293 294 295 295
302 303 303 302 303 302 295 283 283 285 289 289 289 287 286 289 290 289 290 290 292 292 286 286 286 293 295 297 295 290 287 291 285 285 282 288 289 292 293 291 291 290 292 292 294
301 300 301 302 303 299 294 284 288 291 292 291 285 288 285 287 288 288 289 292 292 294 296 290 286 292 295 296 297 293 295 285 286 280 279 285 285 286 287 288 290 289 290 291 293
300 301 304 303 303 299 288 289 291 295 295 291 288 287 288 287 289 288 288 292 295 295 296 294 290 289 293 292 291 291 289 289 288 286 283 281 286 292 289 289 289 290 291 292 293
300 295 307 306 297 294 290 292 294 293 296 294 293 291 290 290 289 290 289 292 297 298 292 294 290 285 288 293 294 294 290 289 285 282 286 285 286 295 293 293 292 292 292 294 295
298 297 306 307 292 291 292 292 293 293 292 293 292 294 294 291 288 291 292 296 298 296 293 294 289 284 284 288 291 290 290 289 288 287 285 283 287 295 294 292 293 292 295 297 297
299 295 301 299 294 293 291 291 291 295 293 293 293 294 293 290 292 290 291 295 297 297 297 296 290 287 284 286 290 287 288 288 288 285 286 286 288 291 293 292 294 296 297 297 297
298 293 292 293 293 293 293 291 290 290 295 295 292 291 291 289 289 289 291 292 295 295 295 293 287 287 288 289 289 288 288 288 285 288 285 287 288 293 296 295 296 298 298 295 295
297 295 293 292 290 293 292 290 290 291 292 292 291 291 292 290 290 288 290 290 290 292 292 292 288 287 284 288 288 286 288 288 288 288 288 288 288 296 299 299 298 297 296 294 295
298 297 296 290 292 292 291 290 290 292 293 293 292 292 291 292 294 295 295 294 293 291 290 289 289 286 283 285 285 283 287 288 289 291 291 287 292 295 294 295 297 298 297 296 296

GFSSW_sfc_thetae_105.txt.gz
Theta_e
316 316 316 316 316 315 314 315 316 313 312 313 315 317 320 323 319 316 308 312 314 320 315 310 311 311 312 309 310 306 296 295 295 295 297 301 299 303 305 302 303 305 305 308 310
313 313 314 315 314 314 314 314 314 314 312 313 313 314 320 320 313 310 314 316 322 319 309 306 306 308 304 304 305 299 295 295 299 300 299 300 299 300 299 300 300 302 306 307 307
312 312 313 312 312 312 313 314 314 314 312 314 314 315 323 317 306 304 316 321 322 318 310 307 308 305 301 303 301 299 296 297 298 300 300 298 298 300 298 297 300 299 302 304 304
312 311 311 311 311 310 312 313 314 314 313 311 315 316 316 312 297 307 320 324 319 314 310 306 304 299 299 297 300 295 297 298 299 299 298 296 298 296 297 298 302 302 302 302 302
311 311 310 310 310 310 310 311 313 313 313 311 313 316 311 303 302 314 322 322 313 310 306 303 300 299 296 298 297 295 297 297 298 297 297 297 295 295 296 300 302 301 301 301 302
311 310 310 309 309 310 310 311 312 313 313 312 313 316 307 298 311 316 318 313 309 308 306 305 301 302 298 297 296 297 296 295 296 295 295 293 294 294 298 300 300 301 302 303 304
311 310 310 309 309 310 310 310 309 311 311 312 312 312 305 303 313 315 309 308 309 308 303 305 305 300 300 295 297 295 292 294 294 294 294 296 294 294 299 299 300 302 303 304 305
312 309 309 309 309 309 310 310 311 309 308 311 312 310 301 313 315 310 309 307 308 308 306 305 305 300 298 298 294 292 292 290 293 294 296 295 291 298 299 301 300 302 303 304 305
312 310 309 309 309 310 308 308 309 310 311 311 308 304 299 311 304 309 308 304 305 305 305 304 302 297 296 293 292 291 290 289 291 295 294 294 293 299 302 302 300 303 304 305 307
310 310 311 309 308 308 310 310 311 310 309 309 307 298 302 296 302 306 308 306 301 301 298 297 297 294 293 291 288 289 288 288 289 294 294 293 293 298 301 301 301 303 303 305 306
310 309 308 307 306 306 308 305 300 296 300 296 293 297 298 301 305 302 305 302 301 297 292 295 292 289 290 290 290 289 288 288 292 294 292 294 295 297 301 301 301 302 302 303 305
309 308 308 308 306 305 305 299 298 299 289 295 299 298 301 303 295 299 304 296 295 291 293 291 289 291 291 291 290 289 288 290 293 293 293 294 294 298 300 299 300 301 302 302 303
309 308 307 308 307 306 301 299 305 303 289 289 296 295 297 300 295 295 300 297 294 290 290 290 290 293 291 289 289 290 289 289 288 294 296 294 294 294 297 300 301 301 303 303 302
308 309 307 307 302 302 299 306 307 306 286 284 290 293 298 299 292 302 303 297 294 290 293 291 292 290 289 288 291 288 292 291 290 289 287 294 285 293 295 295 298 300 300 301 300
309 307 308 306 302 299 302 307 307 303 276 288 291 300 299 294 295 296 303 299 291 291 293 288 289 289 289 290 293 291 293 292 292 288 286 289 285 293 294 293 295 298 299 300 300
308 308 307 307 306 305 308 307 303 286 276 285 292 292 292 294 294 297 297 301 299 294 294 292 295 294 294 294 294 295 293 292 291 288 282 289 288 289 293 293 295 297 297 297 298
310 306 306 306 302 307 307 301 287 281 288 286 288 292 291 289 291 293 292 292 291 286 285 291 292 295 295 292 295 293 289 285 282 282 284 290 286 290 294 294 294 293 294 296 296
308 306 305 305 307 306 302 294 282 285 286 292 291 291 288 291 291 291 291 290 293 293 289 287 284 292 297 294 290 290 289 285 279 282 284 289 283 291 295 296 295 294 294 295 295
303 307 307 306 307 306 297 285 284 287 291 290 291 288 288 290 291 292 292 291 294 294 287 287 286 295 297 298 297 290 288 293 285 287 282 288 292 295 295 293 292 291 293 292 294
306 305 304 306 307 302 296 286 289 294 294 293 287 290 287 289 290 291 291 294 293 296 297 293 287 294 296 298 299 294 295 286 286 279 280 287 288 290 290 291 291 290 291 292 294
307 303 307 308 306 301 290 291 293 297 297 292 290 289 291 290 292 291 291 294 297 296 298 296 293 291 295 293 292 291 289 290 289 287 281 282 288 295 292 292 291 291 292 293 293
308 298 310 309 301 299 293 294 295 295 298 296 296 294 293 293 292 292 291 294 300 299 293 296 292 288 290 296 297 296 292 291 285 285 288 286 287 297 295 294 293 293 293 294 295
302 303 312 312 296 295 296 295 296 295 295 295 295 297 296 293 290 293 293 298 299 297 294 296 291 286 286 290 293 291 293 292 291 289 286 284 288 298 296 294 294 293 295 296 298
305 298 304 303 300 297 295 294 293 297 296 296 295 297 295 293 295 292 293 296 299 298 297 297 292 288 285 287 290 288 290 291 290 286 288 288 290 294 295 294 294 295 297 298 299
303 298 298 297 296 297 297 295 293 292 297 297 295 294 293 290 291 291 293 294 297 297 297 295 288 290 290 291 291 289 289 290 287 289 285 290 289 293 297 297 297 298 299 298 298
301 300 299 297 295 296 295 293 293 293 294 293 292 293 294 291 292 290 292 292 292 294 294 295 289 289 285 290 289 287 290 290 290 290 290 290 289 297 299 301 298 298 299 298 298
304 303 299 293 295 295 294 293 293 295 295 296 295 294 293 294 296 297 298 297 296 293 292 291 290 287 284 288 288 284 288 289 290 292 291 287 293 297 296 298 299 299 300 299 299

GFSSW_sfc_thetae_108.txt.gz
Theta_e
314 315 316 316 315 315 313 314 315 315 313 313 315 316 319 324 320 315 309 312 315 320 317 311 311 312 315 309 310 306 292 290 292 293 295 299 297 300 301 297 299 300 299 302 304
313 313 313 313 313 314 313 313 314 315 314 313 314 314 318 321 314 312 314 317 322 318 310 306 305 307 302 304 303 297 290 293 297 297 296 298 297 296 295 296 296 297 301 303 303
311 311 311 311 312 313 313 313 313 315 314 315 314 315 318 318 307 308 316 321 322 317 313 308 309 307 300 301 299 297 293 297 297 299 298 297 295 298 295 293 295 294 297 299 300
312 311 311 311 311 311 312 312 313 315 314 312 315 319 319 314 295 307 319 323 319 315 310 305 304 299 297 295 300 293 298 298 299 299 297 295 296 293 294 294 298 297 298 297 297
312 311 311 311 311 311 311 311 314 315 314 311 313 317 313 304 303 313 322 321 313 311 306 302 299 299 295 296 297 294 296 298 298 297 295 296 293 292 292 296 297 299 299 297 298
312 312 311 311 311 310 311 312 314 314 314 312 313 317 308 298 311 316 319 315 309 308 306 304 301 303 297 296 294 297 297 296 296 295 295 292 292 293 294 297 298 300 300 300 301
312 312 311 311 311 310 310 310 312 313 313 313 312 313 305 302 314 313 311 310 310 310 305 306 305 301 299 294 297 296 291 293 294 294 294 295 291 291 295 296 297 300 301 301 302
311 312 311 311 310 310 310 311 310 310 311 312 312 310 300 313 313 311 309 307 309 308 306 305 305 300 298 297 294 291 289 284 291 294 295 293 286 295 295 296 297 299 301 303 305
312 312 311 311 310 310 308 309 310 310 310 311 308 304 297 311 306 310 308 303 305 305 305 304 303 296 295 290 286 287 284 285 289 295 295 292 288 296 298 299 297 297 301 302 304
310 310 309 309 309 309 311 309 310 310 309 308 305 299 300 297 304 307 308 306 301 301 299 298 296 290 290 288 281 283 283 286 284 292 293 290 290 295 298 298 295 296 298 300 303
309 309 308 307 307 308 309 306 299 295 297 295 295 296 297 302 305 303 306 303 301 298 291 296 289 286 288 289 289 287 285 284 290 294 290 290 292 294 297 297 296 296 297 299 301
308 309 309 307 307 307 307 299 298 299 289 297 298 298 302 303 296 299 305 296 295 290 292 291 287 290 292 292 290 289 288 287 292 294 292 290 291 295 297 297 297 296 296 298 300
309 307 308 308 308 306 302 300 307 305 289 290 296 295 297 301 295 295 301 298 294 290 290 287 288 292 291 289 289 288 287 288 287 293 294 291 289 291 295 298 299 299 299 300 300
309 309 308 307 303 304 299 306 308 306 286 284 290 294 298 299 293 302 303 298 295 289 291 289 292 290 289 288 290 286 292 291 290 286 279 290 277 288 292 294 296 297 297 297 297
309 308 307 309 302 300 302 307 307 303 275 288 291 301 299 294 294 296 304 300 291 290 292 287 288 288 289 290 292 289 294 292 291 287 286 286 278 286 291 290 293 295 296 295 296
310 308 308 307 306 305 308 307 303 285 276 285 292 292 292 294 294 297 297 302 299 294 293 291 296 294 293 294 294 295 292 292 291 288 280 284 282 283 288 290 293 295 294 296 297
311 306 307 307 301 308 307 300 285 279 288 286 289 291 290 290 291 293 292 291 289 284 284 290 291 295 296 292 295 292 288 281 278 279 275 288 282 284 292 292 292 292 293 296 296
307 306 304 305 307 306 302 291 279 285 285 292 291 291 288 291 291 292 291 287 292 292 286 285 277 292 295 293 291 290 288 282 273 279 280 287 278 285 293 294 294 295 294 295 295
307 306 306 306 307 305 294 284 284 287 291 290 291 288 288 291 291 292 291 290 292 293 286 285 284 295 296 297 295 289 286 292 283 284 277 281 287 292 293 293 293 292 293 293 294
306 305 303 307 307 301 293 286 288 294 294 293 286 290 285 289 289 290 290 293 293 295 296 291 285 293 295 296 296 294 294 285 285 278 276 281 284 285 288 290 293 291 291 293 294
305 301 306 308 305 299 288 289 292 297 297 292 290 289 290 289 291 289 289 293 296 295 296 294 291 288 294 291 290 290 288 289 288 286 280 277 281 292 290 291 291 292 292 292 294
308 295 309 308 298 297 291 294 294 296 298 296 296 294 292 292 291 291 290 293 299 297 292 293 290 282 288 294 295 292 289 288 279 283 283 281 280 294 293 292 292 292 293 294 295
302 302 312 308 293 292 295 294 296 296 295 296 295 296 296 292 288 291 292 297 298 296 292 292 288 278 280 286 290 288 290 291 288 285 279 277 281 294 292 291 292 291 292 294 296
304 293 304 302 299 295 294 294 293 298 296 297 295 296 294 291 293 290 292 296 297 297 298 295 289 284 279 282 287 285 288 290 286 278 281 283 285 289 291 291 291 291 292 293 294
302 295 296 295 294 295 295 295 293 293 296 297 294 294 292 288 289 289 291 292 296 298 294 292 284 285 287 289 288 286 286 288 285 285 280 283 284 287 291 292 292 293 293 294 295
299 297 297 295 295 295 294 292 293 294 294 292 292 293 293 289 290 288 290 289 289 292 290 292 283 284 279 287 287 284 287 288 288 288 287 287 286 293 294 294 293 293 294 295 295
303 301 297 294 294 292 291 292 293 295 295 296 294 293 291 293 294 294 294 294 292 288 289 288 285 281 278 285 285 279 285 286 287 288 289 284 289 291 290 294 295 294 296 295 296

GFSSW_sfc_thetae_111.txt.gz
Theta_e
313 313 313 313 315 314 314 315 316 316 314 314 317 316 318 323 321 315 308 310 314 321 317 310 309 310 310 305 305 300 289 286 289 291 293 296 295 298 299 294 296 296 295 299 300
312 312 314 314 315 315 316 315 317 315 315 313 314 314 321 322 314 311 314 318 320 317 310 303 302 306 299 301 299 292 287 290 294 293 293 296 295 294 293 293 293 294 297 299 299
311 312 312 312 312 314 314 314 316 316 316 314 314 315 320 319 306 306 317 319 320 317 313 307 306 304 297 297 295 293 290 294 296 297 296 295 294 295 293 291 293 291 294 297 297
311 312 312 312 312 313 313 313 315 316 315 313 315 320 320 314 292 309 319 322 319 317 311 304 302 295 293 292 296 290 295 296 297 297 295 292 293 291 291 292 294 294 295 295 296
311 312 312 312 312 312 311 312 315 315 314 313 314 318 312 304 301 314 322 320 314 311 305 300 296 295 292 293 294 291 294 296 296 296 294 294 290 289 291 294 294 298 299 296 297
313 312 312 311 311 312 312 313 314 315 313 313 313 316 307 297 312 315 317 315 310 308 303 301 297 299 294 293 291 294 295 294 294 293 293 291 290 292 291 294 296 298 298 298 299
313 312 312 312 311 312 312 313 312 313 313 313 312 312 304 302 314 314 310 309 308 307 302 302 300 297 295 291 295 293 289 290 291 293 292 293 288 289 292 294 294 298 299 301 303
312 312 311 311 311 312 312 311 311 312 313 313 314 308 299 312 313 310 309 305 306 306 304 303 302 297 294 294 292 288 287 282 289 292 293 291 282 293 294 293 294 297 301 302 304
312 312 311 311 310 310 311 311 311 311 313 311 306 304 297 312 306 309 310 303 303 303 302 304 300 293 293 287 282 284 279 282 286 293 293 290 285 292 294 296 295 295 299 301 303
310 309 309 309 309 311 310 310 310 307 306 308 306 298 299 299 305 307 307 306 301 299 298 296 293 287 287 285 274 279 279 284 282 290 291 288 287 292 295 296 294 294 296 299 300
310 310 308 308 310 311 307 301 297 295 298 295 296 296 298 303 306 303 306 303 300 296 286 294 286 280 285 287 287 285 283 283 287 293 289 287 289 292 295 295 294 293 295 296 299
308 309 308 309 309 308 303 297 298 299 289 297 297 299 302 303 295 300 305 296 294 288 290 287 282 288 291 291 289 287 285 285 291 294 291 289 289 293 295 295 295 295 295 296 297
309 308 308 309 309 304 299 299 305 302 288 291 296 295 297 301 295 296 302 297 291 288 287 283 286 292 291 288 288 285 284 286 284 291 292 289 285 289 294 296 297 297 297 297 296
309 308 307 307 301 299 297 305 306 306 283 284 291 294 299 300 293 302 303 298 292 287 289 286 290 290 288 288 289 284 291 290 290 283 276 287 274 285 290 292 295 295 294 294 295
309 308 307 307 297 296 301 305 305 300 269 288 291 302 299 294 294 295 302 298 290 290 289 283 286 286 288 289 291 288 293 291 290 285 281 282 275 282 289 288 291 293 293 293 293
308 308 309 304 300 302 305 303 300 277 273 285 292 292 292 294 294 296 298 300 297 291 290 288 293 292 291 293 293 294 290 289 288 286 273 281 279 280 285 289 291 292 290 293 293
309 308 306 306 297 304 302 296 279 275 287 286 288 291 290 290 291 293 292 290 286 278 279 289 289 293 295 290 293 290 283 273 272 272 272 285 280 282 290 290 291 290 289 291 292
308 307 304 304 304 304 298 287 276 285 286 292 291 291 288 291 291 292 289 285 290 289 281 278 274 290 293 292 287 290 288 274 267 271 273 284 277 283 292 292 292 293 291 295 294
308 300 299 302 304 301 291 281 279 284 290 289 290 287 287 291 291 290 290 289 290 291 281 281 282 293 293 297 295 287 285 291 278 279 273 276 284 290 292 291 291 290 292 291 294
298 298 298 303 302 297 286 282 286 293 293 292 284 288 283 287 287 287 286 290 291 293 293 289 281 292 293 295 295 293 294 284 282 271 276 276 279 282 286 289 291 290 291 293 293
297 294 301 304 299 292 280 283 291 296 295 291 288 287 286 286 288 286 286 290 294 293 293 292 289 287 292 289 288 289 286 287 286 285 277 274 278 291 289 289 289 290 291 293 294
298 288 301 302 289 289 282 291 295 294 296 294 293 291 288 290 288 287 287 290 296 295 290 291 288 280 286 292 294 290 287 286 278 280 283 279 280 294 292 291 291 290 291 293 294
295 294 302 301 284 281 290 293 294 294 293 293 292 294 293 289 286 288 290 295 297 294 290 290 285 275 279 284 288 286 288 289 286 282 277 275 279 292 290 289 291 290 290 291 292
296 286 295 294 293 288 289 290 290 295 294 294 293 293 291 288 290 288 289 294 296 295 298 295 286 282 278 281 285 283 286 288 285 275 277 279 281 287 289 289 290 290 290 290 293
293 287 291 284 289 289 291 291 290 290 294 293 290 291 289 285 286 286 290 290 294 297 292 290 282 282 285 286 286 285 285 286 283 284 280 280 282 285 289 290 291 292 291 291 292
292 291 291 289 290 289 290 288 290 291 291 290 289 291 289 286 287 285 287 287 288 290 289 290 281 283 278 285 285 282 285 286 286 287 286 286 285 291 293 290 291 291 292 292 293
295 294 292 290 288 286 286 288 290 292 292 293 291 289 288 290 290 290 291 290 289 287 287 286 282 278 276 282 282 277 281 285 285 286 287 283 288 289 289 291 292 292 293 293 294

GFSSW_sfc_thetae_114.txt.gz
Theta_e
315 313 313 315 315 314 315 315 317 316 314 315 317 320 321 324 321 315 307 309 313 320 318 309 307 308 309 303 303 297 288 285 288 290 291 295 294 296 297 293 295 295 294 296 298
312 311 313 314 315 312 312 315 316 316 314 315 315 315 319 323 315 311 314 318 320 317 310 302 302 303 299 300 298 292 287 289 293 292 293 294 293 291 292 292 292 291 295 296 297
313 313 313 313 314 314 315 315 316 316 314 314 314 315 321 318 307 305 320 318 320 317 312 309 305 301 295 296 294 293 289 294 295 294 295 293 291 293 291 289 290 289 292 294 295
312 313 313 313 313 313 314 313 316 316 315 313 316 319 319 313 293 310 323 321 318 315 309 302 300 295 292 291 295 291 295 296 296 296 293 290 292 288 290 290 293 293 294 295 296
313 313 313 313 312 312 312 312 314 316 314 313 315 319 312 302 302 314 323 321 313 309 304 299 295 294 291 292 292 291 293 295 295 294 292 293 289 288 289 293 293 296 298 296 296
313 313 312 312 312 313 313 314 314 314 313 313 313 316 307 295 312 314 314 314 309 306 301 299 296 297 293 291 290 293 294 293 293 292 292 290 288 290 290 292 294 296 296 297 300
313 312 312 312 312 312 313 314 314 314 314 313 314 312 304 302 313 315 311 307 306 305 300 300 299 296 293 290 293 292 288 289 290 291 290 291 286 288 291 292 293 296 300 302 305
312 311 311 312 312 312 312 312 312 312 313 314 314 307 300 312 315 309 310 305 304 304 303 302 301 296 293 293 291 287 285 281 288 291 292 289 280 291 293 291 291 296 300 303 304
312 312 311 311 311 311 312 312 312 312 313 312 305 301 296 312 305 309 309 303 302 301 302 303 299 292 291 285 280 283 276 280 285 292 292 288 282 290 291 294 292 294 298 301 302
309 309 309 311 311 311 311 310 310 308 306 307 305 296 300 299 305 307 308 306 300 297 296 295 291 286 285 281 274 277 279 282 282 288 289 287 286 290 293 293 292 292 295 298 299
310 308 309 311 312 312 305 301 296 295 299 296 296 296 299 303 307 303 306 302 300 294 286 292 284 279 284 286 287 284 283 282 286 291 287 286 287 289 292 293 291 292 294 296 297
309 308 310 311 310 309 302 296 298 299 289 297 299 299 302 303 295 300 306 295 295 286 290 285 280 287 290 290 288 286 284 283 288 292 290 288 288 292 293 293 293 293 293 295 295
308 309 308 309 308 302 298 299 304 302 289 291 297 295 297 300 294 296 301 297 292 287 287 283 286 291 290 287 286 285 284 285 283 290 290 287 284 288 293 294 295 295 295 295 295
309 308 307 308 300 298 296 304 305 304 281 284 291 295 299 300 293 301 303 298 292 287 288 285 289 289 287 286 287 282 290 290 289 282 276 286 274 284 288 291 293 294 293 292 293
308 307 308 306 297 295 300 304 303 297 270 287 291 301 300 294 293 296 302 298 290 291 287 282 285 286 287 287 290 286 292 289 288 283 279 281 274 282 288 288 291 292 292 291 291
308 308 309 302 299 301 304 302 298 277 272 285 293 291 291 294 294 295 297 299 297 291 289 287 291 290 290 292 292 293 289 288 286 281 272 279 278 280 284 287 289 292 291 293 292
308 310 305 305 296 303 302 295 278 274 287 286 288 291 290 289 291 292 290 289 286 278 277 287 288 292 293 289 291 289 280 270 271 274 271 283 279 282 288 290 291 291 290 291 293
309 307 304 304 303 302 297 285 275 284 286 291 291 291 287 290 291 291 288 284 288 286 279 274 274 288 292 289 286 286 282 272 268 271 272 282 276 283 290 291 291 292 291 292 293
308 299 298 300 304 301 289 280 278 284 290 289 289 286 286 290 290 289 287 287 288 289 281 278 279 292 292 296 292 285 279 288 277 277 274 275 281 288 290 290 290 290 291 290 292
297 296 297 302 301 295 285 282 285 292 292 291 284 288 284 287 287 287 287 290 290 292 291 287 279 290 292 294 294 290 292 281 280 271 272 274 278 281 285 288 290 289 290 290 292
296 292 300 302 298 291 279 282 290 294 294 290 287 286 286 286 287 286 285 290 293 291 292 290 286 288 292 288 286 288 284 285 283 279 273 273 277 287 288 289 289 290 291 290 291
295 288 300 300 288 286 281 290 295 293 294 292 291 290 287 287 286 285 286 289 294 294 288 289 286 279 285 290 292 289 286 285 277 277 279 277 278 289 291 291 291 290 291 291 292
293 293 300 298 284 281 289 291 293 292 292 292 291 292 291 288 285 287 288 294 296 293 288 289 284 274 279 284 287 287 287 287 284 281 277 274 278 290 289 289 290 289 289 290 291
293 286 293 292 290 287 287 289 289 294 292 293 291 292 290 287 288 286 287 293 294 294 298 294 285 281 276 280 284 283 285 287 284 275 277 279 280 284 289 289 290 289 289 289 291
290 286 289 283 288 288 288 289 288 288 292 292 289 289 287 283 285 285 288 289 293 296 291 289 281 280 283 285 285 285 284 285 283 286 279 280 281 287 287 288 291 292 290 289 290
291 289 289 287 288 287 288 287 289 289 289 288 287 289 288 285 285 285 286 286 287 288 288 288 280 281 277 283 283 282 284 285 286 286 285 286 285 292 292 287 289 290 290 291 292
292 292 290 288 287 285 285 288 289 291 291 291 290 288 287 289 290 289 289 289 287 287 286 285 281 278 275 280 281 277 282 284 284 285 287 283 288 288 288 288 289 289 291 292 293

GFSSW_sfc_thetae_117.txt.gz
Theta_e
315 312 312 313 314 314 313 314 317 317 315 315 318 322 324 324 321 314 306 309 313 319 318 309 306 307 307 302 301 296 287 285 287 289 290 294 293 294 295 292 294 293 293 295 297
313 312 312 313 315 315 313 313 315 316 314 315 315 319 320 323 315 310 317 320 319 318 308 302 302 303 298 297 296 291 286 288 292 291 291 292 292 290 291 291 291 290 293 295 296
314 314 313 312 313 313 314 312 313 315 315 314 314 315 319 321 307 305 324 323 320 316 310 307 304 300 295 294 293 292 289 293 294 293 294 292 290 291 290 287 289 288 290 293 295
314 314 314 313 312 313 314 314 314 315 315 314 317 317 321 313 292 311 323 327 319 313 307 301 299 294 291 290 293 290 294 295 295 294 293 290 290 287 288 288 292 291 292 294 294
314 313 313 313 312 312 312 312 313 315 314 315 315 318 312 302 302 315 322 317 311 308 302 298 294 293 290 291 292 290 292 295 294 293 291 292 288 286 288 291 291 293 296 295 297
313 312 312 313 313 313 313 313 314 314 314 313 315 315 305 294 312 314 316 310 307 304 299 298 294 296 292 290 289 292 293 291 291 291 291 289 287 289 288 290 292 294 296 299 302
312 312 312 313 313 313 314 314 314 314 314 315 315 311 304 300 313 314 312 308 304 304 298 300 298 295 292 289 292 291 287 288 289 290 290 290 285 287 289 291 292 296 299 303 303
312 312 312 312 312 312 312 313 313 313 314 314 315 306 300 312 314 310 310 305 303 303 301 301 300 295 292 291 289 285 284 280 287 289 291 287 279 288 291 290 289 295 300 302 302
311 311 310 311 311 312 313 313 313 312 313 311 304 302 297 312 305 309 310 303 303 300 301 302 297 291 291 284 279 282 275 280 284 290 290 287 281 289 290 290 291 291 298 300 300
309 309 311 310 310 312 312 311 311 308 306 306 304 294 300 298 304 307 310 305 299 296 295 295 289 285 285 280 275 278 279 281 281 287 288 285 285 289 291 291 290 290 294 298 298
309 309 311 311 310 310 305 300 295 296 299 296 297 296 298 303 306 303 307 302 298 292 286 290 283 278 283 284 283 283 282 281 284 290 286 285 286 288 291 290 290 290 292 295 297
309 309 311 310 310 309 302 296 297 299 290 298 299 299 302 302 295 300 305 295 292 285 289 284 280 285 289 289 286 284 282 281 287 290 288 287 287 290 291 291 291 291 292 294 295
307 308 309 309 308 302 298 299 304 302 289 291 297 296 298 301 295 296 302 296 291 287 286 282 284 290 288 286 286 284 282 283 281 288 288 286 282 286 291 292 294 294 294 295 295
307 308 308 308 299 297 295 303 304 304 282 284 291 296 298 300 293 301 302 296 292 286 287 285 288 288 287 285 285 281 288 289 287 281 275 285 274 282 287 290 292 293 292 293 293
308 308 308 304 296 294 299 303 303 296 272 288 291 302 300 294 293 296 300 297 291 289 286 282 284 286 286 286 289 285 290 288 287 282 277 280 274 282 286 286 290 291 291 292 293
308 308 308 302 299 300 303 300 295 277 273 286 293 292 291 293 293 295 296 298 297 290 288 286 290 290 288 291 291 292 288 285 284 280 271 278 277 280 283 287 288 290 291 292 292
308 310 305 304 295 303 300 293 278 274 286 284 288 291 290 289 291 292 291 290 284 278 276 285 287 291 292 287 290 287 280 269 270 270 271 280 278 282 287 288 290 291 290 291 292
308 305 303 303 302 301 296 284 277 284 285 291 291 290 287 290 290 290 287 284 289 286 279 274 273 287 291 288 285 284 281 271 267 270 272 281 276 282 288 289 290 291 291 291 291
307 298 297 299 303 299 289 277 277 283 289 288 289 284 285 290 288 287 286 286 287 287 280 277 276 290 291 293 290 284 278 285 276 275 275 274 280 287 289 290 289 290 290 289 291
296 295 296 301 300 293 285 281 285 291 292 290 283 287 282 284 285 284 285 288 288 291 290 285 279 289 291 294 292 288 290 278 279 270 272 273 276 280 284 287 290 289 289 290 290
295 292 298 301 297 290 279 282 289 294 294 290 287 286 286 286 286 284 284 289 291 290 291 288 284 287 292 287 285 287 283 283 281 278 272 273 276 285 287 289 289 290 291 290 290
294 287 299 299 288 284 280 288 294 291 293 291 290 289 286 286 285 285 284 287 293 292 287 288 285 279 284 289 291 288 285 283 277 276 278 276 278 287 290 290 290 290 291 290 291
292 291 299 296 283 280 288 290 291 291 290 291 290 291 290 287 284 286 287 292 294 292 288 288 283 274 279 283 286 285 286 286 283 280 277 274 277 288 288 289 290 289 289 290 290
291 285 291 291 288 287 286 287 288 292 291 291 290 291 288 286 288 285 286 292 293 293 297 293 283 280 275 279 283 283 284 285 284 275 277 278 279 284 286 289 290 290 289 289 290
289 286 287 283 287 286 287 288 287 287 290 290 287 288 286 283 284 284 287 288 291 296 290 288 280 279 282 284 284 283 283 284 282 285 280 278 280 285 286 287 288 291 290 289 289
290 288 287 286 287 285 287 285 287 288 288 287 286 288 287 284 285 284 287 285 285 287 286 287 280 280 276 282 282 282 283 284 285 286 286 286 285 292 294 288 287 289 290 290 291
290 290 289 287 285 283 283 286 287 289 290 290 288 287 286 287 288 287 288 288 286 287 285 284 281 277 275 279 280 276 280 283 283 284 286 282 288 290 288 288 288 288 288 289 291